     2              OBSERVATION DATA    GPS                 RINEX VERSION / TYPE
teqc 1997Sep10 19970910 19:00:31UTC                         PGM / RUN BY / DATE
                                                            COMMENT
BIT 2 OF LLI FLAGS DATA COLLECTED UNDER A-S CONDITION       COMMENT
BIT 2 OF LLI FLAGS DATA COLLECTED UNDER A-S CONDITION       COMMENT
Original Marker Name: unknown                               COMMENT
Campaign Name: Southern California GPS Survey March - A     COMMENT
4-Character Station Name: COXO                              COMMENT
6-Character Antenna Code: TI4100                            COMMENT
Vertical Measurement Point: PAE                             COMMENT
Vertical Offset to Rinex Ref. Point: 0.0000                 COMMENT
Radial Measurement Point: RRP                               COMMENT
Radial Offset to Rinex Ref. Point: 0.0000                   COMMENT
Antenna Height from Field Measurement: 1.5156 m             COMMENT
Original XYZ: 0.0000 0.0000 0.0000                          COMMENT
New XYZ position is based on association with SCEC monument COMMENT
E1D1Q2D1+0011. Position of that monument is believed to be  COMMENT
valid to within 1 m horizontally; vertical accuracy         COMMENT
should be no worse than 3-times this value.                 COMMENT
                                                            COMMENT
Revised Rinex header created by UCSD GPS archive for        COMMENT
GSAC on 17-Apr-1999 (1999:107) 01:46:53 GMT                 COMMENT
For assistance contact dagnew@ucsd.edu or hjohnson@ucsd.edu COMMENT
                                                            COMMENT
COXO                                                        MARKER NAME
unknown NATIONAL GEODETIC SURVEY                            OBSERVER / AGENCY
27 TI 4100 GSI TI4100                                       REC # / TYPE / VERS
124 TI 4100                                                 ANT # / TYPE
 -2255110.0000 -4786429.0000  3550376.0000                  APPROX POSITION XYZ
        1.5156        0.0000        0.0000                  ANTENNA: DELTA H/E/N
     1     1     0                                          WAVELENGTH FACT L1/2
     6    L1    L2    P1    P2    D1    D2                  # / TYPES OF OBSERV
     0                                                      INTERVAL
  1988     3    23     3     8   32.000000                  TIME OF FIRST OBS
  1988     3    23     8    27   35.000000                  TIME OF LAST OBS
     0                                                      # OF SATELLITES
                                                            END OF HEADER
 88  3 23  3  8 32.1400000  0  3G 6G 9G11
   4082461.725 9  -6417334.274 9  20245992.725    20245995.504        1950.855
      1509.129
    130236.544 8                                                        -0.500 1
      3082.192
    112761.004 8    -54685.422 9  21709751.737    21709753.079        3406.462
      2653.820
 88  3 23  3 48 35.0800000  0  3G 6G 9G11
     40423.411 9  -9566972.754 8  19476817.415    19476819.011        1358.049
      1054.069
  -7179350.267 9  -5626921.223 9  21688100.142    21688103.778        3052.129
      2365.358
  -6978901.034 9  -5580652.968 9  20360249.746    20360253.245        2418.271
      1890.488
 88  3 23  3 49  5.0800000  0  3G 6G 9G11
        70.875 9  -9598416.270 9  19469138.335    19469140.150        1335.497
      1045.488
  -7270503.004 9  -5697949.284 9  21670754.316    21670757.740        3033.668
      2363.531
  -7051190.611 9  -5636982.488 8  20346492.926    20346497.247        2395.241
      1868.715
 88  3 23  3 49 35.0800000  0  3G 6G 9G11
    -39970.782 9  -9629617.563 9  19461518.412    19461520.219        1323.711
      1030.743
  -7361608.106 9  -5768940.218 9  21653418.461    21653420.868        3044.179
      2371.578
  -7123022.949 9  -5692955.714 9  20332823.836    20332827.885        2399.763
      1849.048
 88  3 23  3 50  5.0800000  0  3G 6G 9G11
    -79699.471 9  -9660574.966 9  19453958.596    19453959.468        1323.624
      1022.410
  -7452663.741 9  -5839892.604 9  21636090.719    21636092.999        3025.574
      2357.479
  -7194396.425 9  -5748571.406 9  20319242.512    20319244.192        2372.618
      1863.296
 88  3 23  3 50 35.0800000  0  3G 6G 9G11
   -119113.371 9  -9691287.092 8  19446458.350    19446460.036        1311.176
      1023.323
  -7543668.636 9  -5910805.459 9  21618773.176    21618775.985        3019.650
      2354.508
  -7265309.785 9  -5803828.548 8  20305747.418    20305751.636        2358.894
      1846.115
 88  3 23  3 51  5.0800000  0  3G 6G 9G11
   -158209.390 9  -9721751.516 8  19439018.137    19439020.743        1302.173
      1015.699
  -7634619.987 9  -5981676.585 9  21601464.694    21601467.928        3050.159
      2352.296
  -7335760.761 9  -5858725.395 8  20292341.110    20292345.581        2348.368
      1823.932
 88  3 23  3 51 35.0800000  0  3G 6G 9G11
   -196984.993 9  -9751966.260 9  19431639.194    19431641.534        1284.669
       996.020
  -7725515.944 9  -6052504.546 9  21584168.659    21584171.409        3037.201
      2363.419
  -7405747.325 9  -5913260.359 8  20279023.109    20279026.326        2321.511
      1818.986
 88  3 23  3 52  5.0800000  0  3G 6G 9G11
   -235438.176 9  -9781929.782 9  19424323.096    19424324.343        1271.248
      1002.718
  -7816354.412 8  -6123287.706 8  21566881.647    21566884.729        3025.694
      2362.245
  -7475268.097 9  -5967432.368 8  20265793.390    20265796.600        2308.401
      1799.201
 88  3 23  3 52 35.0800000  0  3G 6G 9G11
   -273566.960 9  -9811640.520 9  19417066.679    19417068.455        1259.103
       980.311
  -7907134.039 9  -6194025.005 9  21549608.505    21549609.581        3023.294
      2345.505
  -7544321.629 9  -6021240.302 9  20252653.419    20252656.140        2296.583
      1778.385
 88  3 23  3 53  5.0800000  0  3G 6G 9G11
   -311368.658 9  -9841096.374 8  19409873.173    19409875.007        1253.888
       988.414
  -7997852.372 9  -6264714.551 9  21532344.844    21532346.122        3016.364
      2354.136
  -7612905.711 9  -6074682.417 9  20239602.830    20239604.947        2270.347
      1789.346
 88  3 23  3 53 35.0800000  0  3G 6G 9G11
   -348840.843 9  -9870295.463 8  19402742.734    19402744.118        1235.475
       979.560
  -8088507.213 9  -6335354.637 9  21515093.246    21515094.966        3029.737
      2358.193
  -7681019.089 9  -6127757.757 8  20226640.988    20226644.012        2254.510
      1772.128
 88  3 23  3 54  5.0800000  0  3G 6G 9G11
   -385981.505 9  -9899236.232 9  19395674.721    19395676.202        1231.863
       954.257
  -8179096.914 9  -6405943.975 8  21497854.974    21497857.342        3023.980
      2370.478
  -7748660.161 9  -6180465.067 8  20213767.977    20213773.117        2247.365
      1741.196
 88  3 23  3 54 35.0800000  0  3G 6G 9G11
   -422788.468 9  -9927916.977 9  19388671.408    19388672.562        1217.612
       954.419
  -8269619.487 9  -6476480.999 9  21480628.804    21480631.170        3016.468
      2361.101
  -7815827.591 8  -6232803.303 8  20200987.205    20200990.631        2231.584
      1733.254
 88  3 23  3 55  5.0800000  0  3G 6G 9G11
   -459259.513 9  -9956335.966 8  19381731.591    19381732.530        1222.150
       945.726
  -8360073.105 9  -6546964.289 9  21463416.557    21463417.736        3007.393
      2358.156
  -7882520.141 9  -6284771.495 8  20188295.871    20188300.048        2212.047
      1733.279
 88  3 23  3 55 35.0800000  0  3G 6G 9G11
   -495392.034 9  -9984491.172 9  19374854.919    19374855.134        1207.421
       940.506
  -8450455.618 9  -6617392.172 9  21446216.301    21446219.067        3016.835
      2352.495
  -7948735.480 9  -6336367.847 8  20175696.012    20175699.206        2199.511
      1707.461
 88  3 23  3 56  5.0800000  0  3G 6G 9G11
   -531183.367 9 -10012380.504 9  19368043.725    19368046.460        1182.613
       933.503
  -8540764.280 9  -6687762.502 9  21429031.529    21429034.193        3015.288
      2336.694
  -8014472.158 9  -6387591.201 8  20163186.483    20163189.717        2177.278
      1717.223
 88  3 23  3 56 35.0800000  0  3G 6G 9G11
   -566631.018 9 -10040002.044 8  19361298.492    19361300.450        1163.387
       936.566
  -8630997.076 9  -6758073.723 9  21411860.223    21411863.259        3022.146
      2348.158
  -8079728.371 9  -6438440.193 8  20150768.534    20150772.562        2164.416
      1679.176
 88  3 23  3 57  5.0800000  0  3G 6G 9G11
   -601733.630 9 -10067354.733 9  19354618.650    19354619.862        1144.823
       909.002
  -8721152.782 9  -6828324.868 9  21394704.168    21394707.320        3007.194
      2342.075
  -8144503.620 9  -6488914.380 8  20138442.293    20138446.249        2157.797
      1686.334
 88  3 23  3 57 35.0800000  0  3G 6G 9G11
   -636488.551 8 -10094436.480 9  19348005.728    19348006.958        1148.435
       882.569
  -8811228.832 8  -6898513.941 9  21377562.989    21377565.985        2993.645
      2357.684
  -8208796.132 9  -6539012.430 9  20126207.832    20126210.746        2127.375
      1673.322
 88  3 23  3 58  5.0800000  0  3G 6G 9G11
   -670893.346 9 -10121245.406 8  19341458.865    19341460.899        1146.545
       891.448
  -8901223.152 9  -6968639.329 9  21360438.327    21360439.976        3003.701
      2332.648
  -8272603.954 8  -6588732.792 9  20114064.883    20114068.547        2117.917
      1650.990
 88  3 23  3 58 35.0800000  0  3G 6G 9G11
   -704945.433 9 -10147779.490 9  19334978.609    19334980.336        1133.236
       890.044
  -8991133.199 9  -7038699.064 9  21343328.539    21343331.721        2990.711
      2336.979
  -8335925.606 8  -6638074.324 8  20102015.792    20102019.008        2108.117
      1638.811
 88  3 23  3 59  5.0800000  0  3G 6G 9G11
   -738642.834 9 -10174037.199 9  19328564.947    19328567.088        1120.461
       879.114
  -9080957.101 9  -7108691.665 9  21326235.957    21326238.779        2993.286
      2337.800
  -8398760.107 9  -6687036.250 8  20090058.924    20090061.934        2093.308
      1624.948
 88  3 23  3 59 35.0800000  0  3G 6G 9G11
   -771983.262 9 -10200016.745 8  19322220.353    19322222.798        1094.959
       856.595
  -9170692.779 9  -7178615.544 8  21309159.376    21309161.771        2985.487
      2334.059
  -8461105.943 9  -6735617.403 8  20078195.497    20078197.819        2072.743
      1618.740
 88  3 23  4  0  5.0800000  0  3G 6G 9G11
   -804964.541 9 -10225716.429 9  19315944.854    19315947.431        1100.429
       856.378
  -9260338.436 9  -7248469.248 9  21292100.410    21292102.977        2978.940
      2337.017
  -8522962.169 9  -6783817.030 8  20066424.206    20066428.252        2062.280
      1584.906
 88  3 23  4  0 35.0800000  0  3G 6G 9G11
   -837584.838 8 -10251134.826 9  19309737.681    19309739.649        1082.304
       837.612
  -9349892.128 9  -7318251.313 9  21275059.350    21275061.401        2979.156
      2325.111
  -8584327.533 9  -6831634.187 8  20054746.351    20054750.029        2042.903
      1582.533
 88  3 23  4  1  5.0800000  0  3G 6G 9G11
   -869841.805 9 -10276270.114 9  19303599.486    19303601.216        1074.234
       838.010
  -9439351.714 9  -7387960.038 9  21258035.371    21258038.117        2989.554
      2302.599
  -8645200.505 9  -6879067.656 8  20043163.227    20043165.988        2009.618
      1587.746
 88  3 23  4  1 35.0800000  0  3G 6G 9G11
   -901732.710 9 -10301120.163 9  19297529.732    19297532.604        1070.087
       825.327
  -9528714.428 9  -7457593.272 9  21241029.588    21241032.955        2973.263
      2322.414
  -8705579.785 9  -6926116.415 9  20031672.852    20031676.534        1990.527
      1565.258
 88  3 23  4  2  5.0800000  0  3G 6G 9G11
   -933255.414 9 -10325683.292 9  19291532.087    19291534.993        1062.615
       813.192
  -9617978.096 9  -7527149.342 9  21224043.438    21224046.878        2975.296
      2336.389
  -8765464.032 9  -6972779.455 8  20020277.188    20020280.545        1984.012
      1551.613
 88  3 23  4  2 35.0800000  0  3G 6G 9G11
   -964407.422 9 -10349957.571 9  19285603.837    19285606.195        1042.113
       815.963
  -9707140.528 9  -7596626.523 9  21207075.865    21207079.402        2986.947
      2316.530
  -8824851.659 9  -7019055.511 7  20008976.609    20008979.781        1975.798
      1536.035
 88  3 23  4  3  5.0800000  0  3G 6G 9G11
   -995186.534 9 -10373941.288 8  19279747.343    19279748.670        1009.601
       802.784
  -9796199.448 9  -7666023.025 9  21190128.968    21190131.761        2972.744
      2307.905
  -8883741.702 9  -7064943.829 9  19997770.320    19997773.331        1949.595
      1514.324
 88  3 23  4  3 35.0800000  0  3G 6G 9G11
  -1025590.556 9 -10397632.736 8  19273960.543    19273963.394        1016.762
       776.673
  -9885152.857 8  -7735337.335 8  21173202.277    21173205.732        2958.159
      2324.396
  -8942132.549 9  -7110443.183 8  19986658.666    19986660.978        1933.829
      1514.368
 88  3 23  4  4  5.0800000  0  3G 6G 9G11
  -1055617.211 9 -10421030.100 9  19268246.842    19268250.169        1012.751
       768.863
  -9973998.080 9  -7804567.335 9  21156295.851    21156298.216        2955.344
      2313.970
  -9000023.276 9  -7155552.824 9  19975642.137    19975645.305        1918.439
      1497.677
 88  3 23  4  4 35.0800000  0  3G 6G 9G11
  -1085264.476 9 -10444131.866 8  19262605.656    19262607.724         991.739
       778.028
 -10062733.505 8  -7873711.780 9  21139409.253    21139412.907        2950.735
      2303.512
  -9057413.401 9  -7200272.395 7  19964721.361    19964724.764        1909.444
      1483.696
 88  3 23  4  5  5.0800000  0  3G 6G 9G11
  -1114529.888 9 -10466936.078 9  19257036.487    19257038.853         975.120
       757.112
 -10151356.519 9  -7942768.632 8  21122544.942    21122547.351        2945.209
      2306.333
  -9114300.895 9  -7244600.290 8  19953896.429    19953899.061        1879.787
      1464.067
 88  3 23  4  5 35.0800000  0  3G 6G 9G11
  -1143411.167 9 -10489440.964 8  19251541.111    19251542.754         960.543
       751.041
 -10239864.711 8  -8011736.016 8  21105702.911    21105705.120        2947.514
      2304.543
  -9170684.756 9  -7288535.755 9  19943165.957    19943169.192        1881.199
      1478.458
 88  3 23  4  6  5.0800000  0  3G 6G 9G11
  -1171906.495 8 -10511645.108 8  19246119.160    19246121.175         954.849
       719.096
 -10328256.038 9  -8080612.331 9  21088882.145    21088885.066        2953.383
      2292.576
  -9226564.346 9  -7332078.262 8  19932532.068    19932535.392        1867.666
      1448.060
 88  3 23  4  6 35.0800000  0  3G 6G 9G11
  -1200013.387 8 -10533546.570 9  19240770.207    19240772.365         921.501
       722.309
 -10416528.139 9  -8149395.761 9  21072084.714    21072086.907        2932.897
      2289.922
  -9281938.172 8  -7375226.681 7  19921995.245    19921998.900        1839.820
      1428.866
 88  3 23  4  7  5.0800000  0  3G 6G 9G11
  -1227729.633 9 -10555143.651 9  19235496.239    19235497.704         915.616
       696.857
 -10504678.987 9  -8218084.701 9  21055309.336    21055311.987        2948.120
      2295.502
  -9336805.491 9  -7417980.419 8  19911554.651    19911557.783        1811.479
      1398.611
 88  3 23  4  7 35.0800000  0  3G 6G 9G11
  -1255052.675 9 -10576434.325 9  19230297.062    19230298.330         909.284
       712.106
 -10592705.626 9  -8286676.854 8  21038559.008    21038560.972        2934.133
      2293.999
  -9391164.863 9  -7460338.360 8  19901210.631    19901212.972        1805.482
      1412.890
 88  3 23  4  8  5.0800000  0  3G 6G 9G11
  -1281980.690 9 -10597417.191 8  19225171.888    19225174.255         881.278
       694.881
 -10680606.081 9  -8355170.667 9  21021832.400    21021834.105        2933.415
      2284.081
  -9445015.565 9  -7502299.938 8  19890963.077    19890967.056        1794.111
      1379.777
 88  3 23  4  8 35.0800000  0  3G 6G 9G11
  -1308511.408 9 -10618090.471 9  19220124.313    19220125.876         877.068
       681.733
 -10768377.902 8  -8423564.261 9  21005129.901    21005131.706        2929.252
      2281.062
  -9498356.180 8  -7543864.034 8  19880812.723    19880815.661        1769.358
      1381.256
 88  3 23  4  9  5.0800000  0  3G 6G 9G11
  -1334641.922 9 -10638451.909 9  19215151.038    19215152.797         867.243
       664.104
 -10856018.336 8  -8491855.465 9  20988452.686    20988453.661        2922.849
      2263.961
  -9551185.370 9  -7585029.604 9  19870758.767    19870761.643        1760.451
      1371.208
 88  3 23  4  9 35.0800000  0  3G 6G 9G11
  -1360370.749 9 -10658500.350 9  19210253.602    19210256.885         867.706
       657.555
 -10943525.520 9  -8560042.858 9  20971799.671    20971803.127        2904.037
      2287.977
  -9603502.994 9  -7625796.572 7  19860803.864    19860807.166        1738.338
      1352.057
 88  3 23  4 10  5.0800000  0  3G 6G 9G11
  -1385695.820 9 -10678234.162 9  19205434.958    19205437.368         838.240
       645.718
 -11030897.110 8  -8628124.579 9  20955173.632    20955176.830        2897.267
      2274.009
  -9655307.985 9  -7666164.080 8  19850944.971    19850948.988        1732.285
      1344.781
 88  3 23  4 10 35.0800000  0  3G 6G 9G11
  -1410614.483 9 -10697651.291 9  19200693.689    19200695.150         812.180
       659.183
 -11118130.246 9  -8696098.420 9  20938573.884    20938575.174        2908.328
      2264.160
  -9706599.105 8  -7706131.166 8  19841184.674    19841188.163        1702.844
      1334.864
 88  3 23  4 11  5.0800000  0  3G 6G 9G11
  -1435124.680 9 -10716750.146 9  19196029.841    19196031.364         833.998
       631.202
 -11205223.032 9  -8763962.903 9  20922002.245    20922003.051        2894.596
      2257.076
  -9757375.450 9  -7745697.131 7  19831522.810    19831525.555        1684.830
      1322.908
 88  3 23  4 11 35.0800000  0  3G 6G 9G11
  -1459224.449 9 -10735529.183 8  19191443.639    19191444.927         796.184
       634.427
 -11292172.721 9  -8831715.876 9  20905454.788    20905457.037        2898.232
      2258.468
  -9807636.337 8  -7784861.443 9  19821958.057    19821962.374        1647.893
      1313.352
 88  3 23  4 12  5.0800000  0  3G 6G 9G11
  -1482911.387 9 -10753986.536 8  19186935.278    19186938.087         785.394
       633.060
 -11378976.917 9  -8899355.481 8  20888935.627    20888938.351        2884.707
      2266.807
  -9857380.860 9  -7823623.396 8  19812491.977    19812494.471        1659.798
      1295.717
 88  3 23  4 12 35.0800000  0  3G 6G 9G11
  -1506183.447 9 -10772120.608 9  19182507.720    19182508.959         757.564
       596.933
 -11465633.216 8  -8966879.834 9  20872445.978    20872448.486        2883.057
      2255.492
  -9906608.107 9  -7861982.267 8  19803123.950    19803127.865        1641.968
      1264.735
 88  3 23  4 13  5.0800000  0  3G 6G 9G11
  -1529038.246 9 -10789929.554 8  19178158.827    19178160.568         758.034
       582.555
 -11552139.208 9  -9034287.069 9  20855984.548    20855986.924        2894.891
      2240.454
  -9955317.198 8  -7899937.402 8  19793855.426    19793859.154        1612.654
      1249.791
 88  3 23  4 13 35.0800000  0  3G 6G 9G11
  -1551473.635 9 -10807411.671 9  19173888.568    19173890.467         747.971
       573.321
 -11638492.154 9  -9101575.051 9  20839552.464    20839554.555        2879.277
      2241.529
 -10003507.328 9  -7937488.128 8  19784684.937    19784688.537        1588.827
      1244.292
 88  3 23  4 14  5.0800000  0  3G 6G 9G11
  -1573487.796 9 -10824565.562 9  19169700.121    19169702.020         731.679
       561.272
 -11724690.043 8  -9168742.215 9  20823148.779    20823151.716        2872.690
      2242.064
 -10051177.772 9  -7974633.897 9  19775614.214    19775616.391        1574.744
      1259.714
 88  3 23  4 14 35.0800000  0  3G 6G 9G11
  -1595078.774 9 -10841389.700 8  19165592.177    19165593.169         704.487
       572.687
 -11810730.229 9  -9235786.478 9  20806775.928    20806778.765        2862.252
      2234.825
 -10098327.888 9  -8011374.242 8  19766641.373    19766644.849        1559.035
      1215.342
 88  3 23  4 15  5.0800000  0  3G 6G 9G11
  -1616244.286 9 -10857882.306 8  19161564.366    19161564.497         709.056
       536.442
 -11896610.448 9  -9302706.106 8  20790433.435    20790436.457        2868.097
      2230.469
 -10144957.017 8  -8047708.604 9  19757767.616    19757770.848        1556.634
      1223.376
 88  3 23  4 15 35.0800000  0  3G 6G 9G11
  -1636982.297 9 -10874041.785 7  19157617.983    19157618.462         675.867
       547.298
 -11982327.985 9  -9369498.962 8  20774123.098    20774125.343        2864.971
      2201.562
 -10191064.568 9  -8083636.557 8  19748994.177    19748997.793        1536.252
      1195.041
 88  3 23  4 16  5.0800000  0  3G 6G 9G11
  -1657290.927 9 -10889866.691 9  19153753.235    19153753.591         685.516
       522.182
 -12067880.907 8  -9436163.542 9  20757843.476    20757843.778        2860.856
      2221.664
 -10236649.867 9  -8119157.540 8  19740320.100    19740322.023        1513.262
      1193.189
 88  3 23  4 16 35.0800000  0  3G 6G 9G11
  -1677167.759 9 -10905355.133 9  19149969.916    19149971.207         669.431
       519.578
 -12153265.776 9  -9502697.193 9  20741594.352    20741596.259        2861.040
      2227.244
 -10281711.942 9  -8154270.843 8  19731744.514    19731747.963        1504.155
      1153.514
 88  3 23  4 17  5.0800000  0  3G 6G 9G11
  -1696611.141 9 -10920505.827 8  19146270.289    19146272.854         659.009
       483.445
 -12238481.223 9  -9569098.820 9  20725377.987    20725379.937        2840.290
      2213.095
 -10326250.895 9  -8188976.508 7  19723269.383    19723272.174        1474.203
      1150.352
 88  3 23  4 17 35.0800000  0  3G 6G 9G11
  -1715618.779 9 -10935316.978 8  19142654.237    19142654.659         622.710
       506.809
 -12323523.883 9  -9635365.799 8  20709195.026    20709197.103        2843.249
      2210.436
 -10370265.561 9  -8223273.632 7  19714893.590    19714896.541        1457.019
      1137.073
 88  3 23  4 18  5.0800000  0  3G 6G 9G11
  -1734188.446 9 -10949786.839 9  19139119.305    19139121.605         608.507
       474.882
 -12408391.446 9  -9701496.338 8  20693045.585    20693047.262        2827.954
      2198.971
 -10413755.265 8  -8257161.712 9  19706618.013    19706621.306        1436.301
      1132.481
 88  3 23  4 18 35.0800000  0  4G 6G 9G11G13
  -1752318.141 9 -10963913.871 8  19135669.979    19135670.883         587.487
       469.302
 -12493081.048 9  -9767488.215 9  20676929.129    20676930.452        2824.661
      2209.497
 -10456719.542 8  -8290640.356 7  19698441.332    19698444.371        1423.327
      1124.757
 -25217640.000 1                                  31942344.000 1

 88  3 23  4 19  5.0800000  0  4G 6G 9G11G13
  -1770005.563 9 -10977696.281 8  19132303.551    19132306.910         572.965
       465.232
 -12577590.412 9  -9833339.642 9  20660847.170    20660849.246        2828.879
      2192.291
 -10499157.721 9  -8323709.056 8  19690365.316    19690367.607        1411.533
      1099.995
 -25327362.230 7  31994336.085 8  22754626.686    22754629.751        3692.534
      2895.052
 88  3 23  4 19 35.0800000  0  4G 6G 9G11G13
  -1787249.245 9 -10991132.916 8  19129022.170    19129023.741         565.533
       443.944
 -12661916.936 9  -9899048.602 9  20644800.926    20644802.435        2800.498
      2192.838
 -10541069.488 8  -8356367.566 8  19682390.898    19682394.434        1404.771
      1085.964
 -25438206.229 8  31907964.174 8  22733533.061    22733536.667        3696.768
      2880.872
 88  3 23  4 20  5.0800000  0  4G 6G 9G11G13
  -1804046.823 9 -11004221.938 8  19125826.457    19125827.533         562.942
       435.487
 -12746057.954 9  -9964613.010 9  20628789.022    20628791.172        2801.942
      2181.921
 -10582454.521 9  -8388615.628 7  19674514.815    19674517.297        1381.151
      1069.653
 -25548839.729 9  31821756.279 7  22712480.652    22712483.284        3696.361
      2869.805
 88  3 23  4 20 35.0800000  0  4G 6G 9G11G13
  -1820396.512 9 -11016961.961 8  19122714.630    19122716.559         539.633
       426.893
 -12830011.034 8 -10030030.965 8  20612813.407    20612815.841        2796.120
      2179.416
 -10623312.198 9  -8420452.757 9  19666739.715    19666742.797        1346.709
      1052.000
 -25659260.589 9  31735714.060 7  22691467.574    22691472.631        3663.946
      2861.597
 88  3 23  4 21  5.0800000  0  4G 6G 9G11G13
  -1836296.139 9 -11029351.272 8  19119689.102    19119690.323         524.697
       402.169
 -12913773.432 1 -10095300.355 1  20596869.699    20596873.865        2751.942
      2176.490
 -10663641.869 8  -8451878.474 7  19659066.066    19659069.287        1326.718
      1046.327
 -25769466.359 9  31649839.448 7  22670497.266    22670500.048        3678.499
      2870.134
 88  3 23  4 21 35.0800000  0  4G 6G 9G11G13
  -1851743.854 9 -11041388.466 8  19116749.879    19116751.340         504.753
       392.444
 -12997341.685 1 -10013878.667 1                                      2754.127
      2125.636
 -10703443.375 9  -8482892.609 8  19651492.154    19651493.945        1309.413
      1025.486
 -25879455.153 9  31564133.891 8  22649566.602    22649569.069        3662.191
      2848.709
 88  3 23  4 22  5.0800000  0  4G 6G 9G11G13
  -1866738.026 8 -11053072.228 9  19113896.217    19113897.524         503.780
       384.975
 -13080845.517 8  -9969414.316 8  20565105.442    20565108.279        2753.099
      2170.406
 -10742716.377 9  -8513494.942 8  19644018.130    19644020.453        1291.311
      1024.578
 -25989224.717 9  31478599.180 8  22628677.659    22628681.539        3666.226
      2834.815
 88  3 23  4 22 35.0800000  0  4G 6G 9G11G13
  -1881276.456 9 -11064400.864 9  19111130.372    19111130.784         484.562
       363.544
 -13164021.132 8 -10034226.969 8  20549278.247    20549279.331        2770.834
      2155.102
 -10781460.371 9  -8543685.051 7  19636645.123    19636647.097        1287.157
       978.895
 -26098772.252 9  31393237.497 9  22607831.351    22607835.131        3657.359
      2827.197
 88  3 23  4 23  5.0800000  0  4G 6G 9G11G13
  -1895357.127 9 -11075372.821 9  19108449.406    19108451.764         456.325
       359.008
 -13246995.817 9 -10098882.537 9  20533487.993    20533490.972        2765.658
      2145.483
 -10819674.885 9  -8573462.587 7  19629374.377    19629375.297        1273.576
       966.703
 -26208095.685 9  31308050.425 9  22587028.085    22587032.312        3637.216
      2829.782
 88  3 23  4 23 35.0800000  0  4G 6G 9G11G13
  -1908978.007 9 -11085986.495 8  19105857.857    19105859.719         458.892
       356.174
 -13329766.669 8 -10163379.285 8  20517737.896    20517739.895        2760.427
      2149.230
 -10857359.237 9  -8602827.015 7  19622202.130    19622205.300        1242.381
       958.066
 -26317192.290 9  31223040.132 8  22566267.793    22566271.535        3629.999
      2829.708
 88  3 23  4 24  5.0800000  0  4G 6G 9G11G13
  -1922136.920 9 -11096240.185 9  19103354.547    19103355.945         436.939
       343.405
 -13412331.101 8 -10227715.172 9  20502025.348    20502027.589        2747.182
      2146.775
 -10894513.344 9  -8631778.244 7  19615132.826    19615134.587        1229.008
       950.827
 -26426059.728 9  31138208.412 8  22545549.806    22545554.346        3646.753
      2829.807
 88  3 23  4 24 35.0800000  0  4G 6G 9G11G13
  -1934832.288 9 -11106132.684 8  19100939.093    19100939.455         416.269
       331.791
 -13494686.351 8 -10291888.077 9  20486354.040    20486356.245        2743.673
      2148.689
 -10931137.214 9  -8660316.301 7  19608162.633    19608165.297        1199.981
       942.681
 -26534696.300 9  31053556.566 9  22524877.778    22524882.005        3623.651
      2822.935
 88  3 23  4 25  5.0800000  0  4G 6G 9G11G13
  -1947062.289 9 -11115662.560 7  19098611.166    19098612.610         404.523
       313.647
 -13576829.938 8 -10355896.048 9  20470723.159    20470725.082        2743.872
      2131.123
 -10967230.671 8  -8688441.071 7  19601294.051    19601297.579        1212.676
       928.749
 -26643099.018 9  30969086.960 9  22504249.379    22504254.076        3618.316
      2811.886
 88  3 23  4 25 35.0800000  0  4G 6G 9G11G13
  -1958824.678 9 -11124828.057 8  19096372.898    19096374.797         374.548
       294.981
 -13658759.148 9 -10419736.980 8  20455132.199    20455134.393        2742.493
      2118.931
 -11002792.965 9  -8716151.933 7  19594526.996    19594530.630        1188.020
       908.132
 -26751265.612 9  30884801.332 9  22483665.953    22483669.764        3610.597
      2808.593
 88  3 23  4 26  5.0800000  0  4G 6G 9G11G13
  -1970117.655 9 -11133627.764 8  19094224.487    19094225.247         390.297
       299.051
 -13740471.099 9 -10483408.611 8  20439582.621    20439584.878        2723.251
      2120.435
 -11037823.835 9  -8743448.695 8  19587861.422    19587863.528        1159.113
       909.717
 -26859194.084 8  30800701.252 9  22463126.385    22463131.186        3591.722
      2809.227
 88  3 23  4 26 35.0800000  0  4G 6G 9G11G13
  -1980939.139 8 -11142060.104 9  19092164.317    19092165.724         359.205
       284.560
 -13821963.236 9 -10546908.944 8  20424076.298    20424077.030        2730.444
      2119.025
 -11072322.829 8  -8770331.021 7  19581295.741    19581298.034        1131.242
       891.249
 -26966882.495 9  30716788.224 8  22442635.357    22442638.310        3596.666
      2792.872
 88  3 23  4 27  5.0800000  0  4G 6G 9G11G13
  -1991287.416 9 -11150123.703 9  19090195.198    19090196.839         338.113
       264.800
 -13903232.397 9 -10610235.547 9  20408610.965    20408612.202        2704.272
      2103.006
 -11106289.745 9  -8796798.735 7  19574832.038    19574834.588        1128.076
       892.983
 -27074327.978 8  30633064.508 8  22422187.185    22422193.488        3565.869
      2784.975
 88  3 23  4 27 35.0800000  0  4G 6G 9G11G13
  -2001160.650 9 -11157817.141 8  19088316.216    19088318.838         318.815
       256.536
 -13984276.434 9 -10673386.722 9  20393188.761    20393190.917        2690.867
      2114.190
 -11139724.569 9  -8822851.839 6  19568469.717    19568473.292        1098.890
       871.943
 -27181528.129 8  30549531.976 8  22401788.681    22401792.938        3563.062
      2785.745
 88  3 23  4 28  5.0800000  0  4G 6G 9G11G13
  -2010557.041 9 -11165138.987 8  19086527.915    19086530.989         313.528
       245.413
 -14065092.395 9 -10736360.183 9  20377809.735    20377810.641        2695.923
      2105.404
 -11172627.393 9  -8848490.376 8  19562208.752    19562212.279        1088.332
       839.240
 -27288481.317 8  30466191.916 8  22381435.820    22381440.274        3569.027
      2774.144
 88  3 23  4 28 35.0800000  0  4G 6G 9G11G13
  -2019474.995 9 -11172088.050 9  19084830.865    19084833.028         299.038
       229.835
 -14145677.773 9 -10799153.971 9  20362473.939    20362476.570        2690.859
      2083.575
 -11204998.379 8  -8873714.525 8  19556048.513    19556051.575        1073.946
       830.578
 -27395185.251 9  30383045.996 8  22361132.783    22361135.910        3544.338
      2766.948
 88  3 23  4 29  5.0800000  0  4G 6G 9G11G13
  -2027913.038 9 -11178663.143 8  19083225.440    19083227.961         274.996
       223.516
 -14226030.266 9 -10861766.275 9  20347183.805    20347186.141        2668.323
      2081.779
 -11236837.367 9  -8898524.101 7  19549990.307    19549992.643        1051.323
       829.602
 -27501637.915 9  30300095.897 8  22340874.204    22340877.546        3533.222
      2772.348
 88  3 23  4 29 35.0800000  0  4G 6G 9G11G13
  -2035869.160 9 -11184862.736 8  19081711.640    19081713.220         272.859
       207.646
 -14306146.943 8 -10924194.833 8  20331938.479    20331940.929        2660.764
      2074.615
 -11268144.412 9  -8922919.189 7  19544032.658    19544036.153        1052.121
       825.911
 -27607837.156 9  30217343.240 8  22320665.989    22320670.228        3541.874
      2747.816
 88  3 23  4 30  5.0800000  0  4G 6G 9G11G13
  -2043341.627 9 -11190685.429 8  19080290.108    19080292.222         244.454
       180.852
 -14386024.574 9 -10986437.122 9  20316738.936    20316740.960        2641.019
      2073.173
 -11298919.157 9  -8946899.503 8  19538175.460    19538178.252        1037.336
       808.531
 -27713780.441 9  30134790.053 8  22300506.027    22300509.853        3533.844
      2753.471
 88  3 23  4 30 35.0800000  0  4G 6G 9G11G13
  -2050328.423 9 -11196129.687 9  19078960.067    19078962.280         237.317
       162.229
 -14465660.997 9 -11048491.456 9  20301584.092    20301585.820        2648.236
      2073.092
 -11329161.757 9  -8970465.136 7  19532421.230    19532422.973         990.279
       791.617
 -27819465.943 9  30052437.726 8  22280394.453    22280398.612        3504.777
      2748.058
 88  3 23  4 31  5.0800000  0  4G 6G 9G11G13
  -2056828.278 8 -11201194.520 8  19077723.984    19077725.042         222.748
       158.669
 -14545053.160 9 -11110355.462 9  20286476.452    20286478.041        2641.601
      2068.451
 -11358872.177 9  -8993616.108 8  19526767.169    19526770.100         978.677
       783.049
 -27924891.428 9  29970288.026 8  22260332.642    22260336.086        3504.762
      2753.508
 88  3 23  4 31 35.0800000  0  4G 6G 9G11G13
  -2062839.044 9 -11205878.239 9  19076579.371    19076580.556         183.626
       155.686
 -14624198.250 9 -11172026.943 9  20271415.654    20271417.024        2635.429
      2049.530
 -11388050.180 8  -9016352.201 8  19521214.985    19521218.254         949.889
       773.660
 -28030054.311 9  29888342.947 8  22240319.962    22240323.948        3499.762
      2731.903
 88  3 23  4 32  5.0800000  0  4G 6G 9G11G13
  -2068359.130 8 -11210179.605 8  19075529.710    19075530.973         173.402
       130.098
 -14703093.831 8 -11233504.008 9  20256401.640    20256403.895        2629.927
      2054.122
 -11416695.843 9  -9038673.483 7  19515764.442    19515767.167         958.645
       731.785
 -28134952.250 9  29806604.291 8  22220358.963    22220362.706        3495.679
      2737.445
 88  3 23  4 32 35.0800000  0  4G 6G 9G11G13
  -2073386.926 9 -11214097.382 8  19074572.953    19074575.346         156.050
       119.870
 -14781736.959 9 -11294784.343 9  20241436.454    20241438.382        2616.346
      2033.480
 -11444809.372 9  -9060580.114 8  19510413.281    19510417.094         935.950
       714.448
 -28239583.221 9  29725073.668 7  22200448.512    22200451.250        3477.904
      2703.462
 88  3 23  4 33  5.0800000  0  4G 6G 9G11G13
  -2077920.520 8 -11217630.052 8  19073709.672    19073711.162         146.361
       111.034
 -14860124.285 9 -11355865.368 8  20226519.254    20226522.205        2614.768
      2029.459
 -11472390.873 8  -9082072.189 7  19505165.567    19505169.030         919.499
       704.469
 -28343945.234 8  29643752.668 9  22180588.906    22180593.093        3461.429
      2704.562
 88  3 23  4 33 35.0800000  0  4G 6G 9G11G13
  -2081958.630 9 -11220776.633 8  19072941.721    19072941.987         114.863
       105.877
 -14938253.947 8 -11416745.602 8  20211652.815    20211654.481        2606.028
      2026.880
 -11499440.459 8  -9103149.788 8  19500017.866    19500020.856         875.624
       702.568
 -28448036.519 9  29562642.595 8  22160781.105    22160784.530        3464.643
      2697.870
 88  3 23  4 34  5.0800000  0  4G 6G 9G11G13
  -2085499.498 9 -11223535.764 9  19072267.095    19072269.241         106.609
        84.128
 -15016122.939 9 -11477422.725 8  20196834.930    20196836.323        2572.711
      2021.288
 -11525958.350 8  -9123813.055 7  19494972.144    19494974.960         872.482
       689.053
 -28551854.213 9  29481745.717 8  22141024.871    22141029.200        3454.802
      2699.597
 88  3 23  4 34 35.0800000  0  4G 6G 9G11G13
  -2088541.450 9 -11225906.112 9  19071688.468    19071689.719          98.420
        57.148
 -15093728.205 9 -11537894.351 9  20182066.812    20182069.189        2570.558
      2014.440
 -11551944.620 9  -9144062.089 8  19490026.942    19490030.327         865.832
       661.725
 -28655396.436 9  29401063.489 9  22121321.011    22121325.639        3458.917
      2694.695
 88  3 23  4 35  5.0800000  0  4G 6G 9G11G13
  -2091082.518 9 -11227886.172 8  19071204.911    19071206.493          86.115
        56.931
 -15171066.611 9 -11598158.028 8  20167349.826    20167351.224        2581.012
      2009.718
 -11577399.152 8  -9163896.764 7  19485182.932    19485186.797         843.974
       647.433
 -28758661.241 9  29320597.440 9  22101670.464    22101675.193        3437.514
      2686.666
 88  3 23  4 35 35.0800000  0  4G 6G 9G11G13
  -2093121.400 8 -11229474.924 7  19070817.582    19070818.150          55.533
        44.801
 -15248135.849 8 -11658211.960 9  20152683.913    20152685.489        2554.609
      2001.050
 -11602322.285 9  -9183317.361 8  19480440.144    19480443.632         817.698
       656.412
 -28861646.322 8  29240349.371 9  22082073.541    22082076.436        3440.121
      2671.958
 88  3 23  4 36  5.0800000  0  4G 6G 9G11G13
  -2094656.370 8 -11230671.023 8  19070524.080    19070526.854          58.763
        32.598
 -15324932.962 8 -11718053.851 9  20138069.813    20138073.032        2547.719
      1985.801
 -11626714.066 9  -9202323.938 8  19475799.224    19475801.265         803.058
       629.860
 -28964349.649 8  29160320.872 9  22062529.088    22062532.826        3443.120
      2669.001
 88  3 23  4 36 35.0800000  0  4G 6G 9G11G13
  -2095686.175 9 -11231473.462 8  19070328.766    19070330.797          31.236
        24.644
 -15401455.075 9 -11777681.459 9  20123507.665    20123511.281        2554.091
      1987.137
 -11650575.120 9  -9220916.956 8  19471258.003    19471260.911         798.831
       628.580
 -29066769.042 9  29080513.594 9  22043040.338    22043042.706        3410.744
      2671.772
 88  3 23  4 37  5.0800000  0  4G 6G 9G11G13
  -2096208.609 9 -11231880.560 8  19070229.747    19070231.183           3.269
        -4.809
 -15477698.948 9 -11837092.263 8  20108999.999    20109001.998        2537.249
      1973.026
 -11673905.023 8  -9239096.098 7  19466818.816    19466821.624         773.847
       607.031
 -29168901.985 9  29000929.492 8  22023604.766    22023609.022        3413.423
      2662.613
 88  3 23  4 37 35.0800000  0  4G 6G 9G11G13
  -2096222.708 8 -11231891.561 8  19070226.579    19070228.732         -13.796
         9.482
 -15553662.529 9 -11896284.651 9  20094543.960    20094546.497        2516.260
      1965.519
 -11696704.851 9  -9256862.172 9  19462480.864    19462482.290         747.301
       584.301
 -29270747.009 9  28921569.737 8  22004224.728    22004227.625        3387.275
      2644.506
 88  3 23  4 38  5.0800000  0  4G 6G 9G11G13
  -2095726.507 9 -11231504.920 8  19070321.128    19070322.915         -15.143
       -13.440
 -15629342.068 8 -11955255.715 9  20080142.706    20080144.664        2527.576
      1959.399
 -11718974.298 8  -9274214.986 7  19458242.911    19458245.781         741.910
       569.990
 -29372301.741 9  28842436.193 9  21984899.324    21984902.861        3396.326
      2628.145
 88  3 23  4 38 35.0800000  0  4G 6G 9G11G13
  -2094718.681 8 -11230719.616 8  19070512.509    19070514.479         -41.865
       -29.335
 -15704735.130 9 -12014003.547 9  20065795.880    20065797.200        2492.927
      1957.025
 -11740713.853 8  -9291154.887 8  19454106.259    19454109.018         704.375
       563.379
 -29473563.824 9  28763530.680 9  21965630.181    21965632.591        3371.725
      2630.978
 88  3 23  4 39  5.0800000  0  4G 6G 9G11G13
  -2093197.582 9 -11229534.359 8  19070802.238    19070803.194         -66.410
       -36.208
 -15779838.670 9 -12072525.769 9  20051504.316    20051506.066        2497.042
      1949.190
 -11761923.641 9  -9307681.980 8  19450069.295    19450072.888         699.319
       541.774
 -29574531.537 9  28684854.568 8  21946415.686    21946419.615        3362.044
      2632.109
 88  3 23  4 39 35.0800000  0  4G 6G 9G11G13
  -2091161.978 9 -11227948.185 8  19071189.779    19071191.798         -70.501
       -58.410
 -15854650.253 9 -12130820.505 8  20037267.974    20037269.888        2504.897
      1929.660
 -11782604.263 9  -9323796.732 8  19446135.280    19446137.151         687.023
       542.513
 -29675202.752 9  28606409.502 8  21927258.991    21927262.101        3360.482
      2608.988
 88  3 23  4 40  5.0800000  0  4G 6G 9G11G13
  -2088610.938 9 -11225960.374 8  19071675.032    19071676.320        -100.708
       -66.780
 -15929167.346 9 -12188885.766 9  20023088.382    20023088.788        2490.017
      1944.970
 -11802756.531 9  -9339499.795 8  19442299.591    19442302.195         646.529
       523.387
 -29775576.127 9  28528196.509 8  21908158.662    21908161.486        3344.772
      2604.414
 88  3 23  4 40 35.0800000  0  4G 6G 9G11G13
  -2085542.343 9 -11223569.265 8  19072259.572    19072260.704         -99.791
       -80.636
 -16003386.276 9 -12246718.681 9  20008963.722    20008965.990        2473.693
      1920.550
 -11822380.398 9  -9354791.108 8  19438565.364    19438569.668         659.966
       517.732
 -29875648.825 9  28450217.817 9  21889115.609    21889118.305        3333.305
      2597.716
 88  3 23  4 41  5.0800000  0  4G 6G 9G11G13
  -2081954.756 9 -11220773.759 8  19072941.653    19072943.470        -134.799
       -93.033
 -16077304.752 9 -12304317.469 8  19994898.149    19994899.935        2459.395
      1904.923
 -11841476.018 8  -9369670.801 8  19434931.516    19434934.010         612.670
       488.565
 -29975419.151 9  28372474.720 9  21870129.397    21870133.108        3327.858
      2588.967
 88  3 23  4 41 35.0800000  0  4G 6G 9G11G13
  -2077846.887 8 -11217572.829 9  19073722.728    19073726.187        -137.613
      -118.404
 -16150919.404 9 -12361679.540 9  19980890.035    19980891.447        2468.709
      1907.949
 -11860043.761 9  -9384139.155 8  19431397.606    19431400.249         606.458
       475.386
 -30074884.779 9  28294969.052 9  21851201.667    21851204.377        3312.619
      2578.211
 88  3 23  4 42  5.0800000  0  4G 6G 9G11G13
  -2073217.148 9 -11213965.257 8  19074604.241    19074606.707        -155.819
      -128.271
 -16224227.198 9 -12418802.482 7  19966939.435    19966941.930        2430.018
      1896.664
 -11878084.000 9  -9398196.464 8  19427964.511    19427968.254         596.538
       466.506
 -30174044.078 9  28217702.064 8  21832332.017    21832335.973        3296.671
      2573.109
 88  3 23  4 42 35.0800000  0  4G 6G 9G11G13
  -2068064.118 8 -11209949.922 8  19075585.225    19075587.675        -184.662
      -136.200
 -16297225.549 9 -12475684.289 8  19953047.825    19953050.925        2434.762
      1894.707
 -11895597.418 9  -9411843.286 8  19424632.223    19424634.845         568.747
       456.303
 -30272894.189 9  28140676.004 8  21813521.719    21813526.006        3275.674
      2564.976
 88  3 23  4 43  5.0800000  0  4G 6G 9G11G13
  -2062385.946 9 -11205525.391 8  19076665.777    19076667.438        -206.711
      -148.143
 -16369910.782 9 -12532322.127 9  19939217.083    19939219.085        2415.130
      1882.944
 -11912584.272 8  -9425079.775 8  19421399.256    19421402.736         561.227
       438.438
 -30371433.189 9  28063892.380 8  21794769.912    21794773.164        3289.821
      2551.299
 88  3 23  4 43 35.0800000  0  4G 6G 9G11G13
  -2056181.406 9 -11200690.681 8  19077846.426    19077847.959        -219.446
      -175.465
 -16442280.239 9 -12588713.910 9  19925444.876    19925447.165        2416.150
      1883.441
 -11929045.156 8  -9437906.419 8  19418267.144    19418270.130         544.481
       419.474
 -30469658.958 9  27987352.856 8  21776078.747    21776081.543        3268.992
      2550.988
 88  3 23  4 44  5.0800000  0  4G 6G 9G11G13
  -2049448.574 9 -11195444.328 8  19079127.076    19079129.040        -232.668
      -170.357
 -16514330.451 9 -12644856.924 9  19911735.063    19911736.779        2393.272
      1864.477
 -11944979.348 9  -9450322.667 8  19415234.931    19415237.848         520.319
       419.033
 -30567569.024 9  27911059.320 8  21757447.380    21757450.189        3264.989
      2536.976
 88  3 23  4 44 35.0800000  0  4G 6G 9G11G13
  -2042186.146 9 -11189785.312 8  19080509.538    19080510.914        -245.578
      -194.777
 -16586058.200 9 -12700748.667 9  19898086.129    19898087.948        2379.428
      1865.055
 -11960387.593 9  -9462329.079 8  19412302.044    19412305.530         519.601
       396.011
 -30665161.623 9  27835013.178 8  21738874.666    21738879.193        3259.654
      2531.813
 88  3 23  4 45  5.0800000  0  4G 6G 9G11G13
  -2034392.662 8 -11183712.485 7  19081993.332    19081994.013        -265.969
      -188.122
 -16657460.878 9 -12756387.100 8  19884497.172    19884499.629        2378.663
      1848.918
 -11975270.469 8  -9473926.123 8  19409470.958    19409473.446         479.769
       393.426
 -30762434.540 9  27759216.123 8  21720364.687    21720368.467        3257.070
      2514.420
 88  3 23  4 45 35.0800000  0  4G 6G 9G11G13
  -2026066.198 8 -11177224.348 9  19083577.253    19083578.724        -277.221
      -226.878
 -16728534.646 9 -12811769.250 9  19870972.903    19870974.825        2363.854
      1843.978
 -11989627.988 9  -9485113.779 9  19406738.477    19406740.790         474.131
       373.399
 -30859384.805 9  27683670.464 8  21701916.366    21701920.135        3223.331
      2509.083
 88  3 23  4 46  5.0800000  0  4G 6G 9G11G13
  -2017202.574 9 -11170317.635 8  19085264.195    19085266.293        -299.517
      -215.022
 -16799273.572 9 -12866890.476 9  19857511.693    19857513.651        2354.628
      1842.859
 -12003457.615 8  -9495890.110 8  19404107.228    19404110.027         448.047
       346.847
 -30956007.055 9  27608380.419 8  21683529.610    21683532.333        3220.021
      2507.616
 88  3 23  4 46 35.0800000  0  4G 6G 9G11G13
  -2007803.916 9 -11162994.016 8  19087052.724    19087055.026        -323.647
      -252.721
 -16869678.260 9 -12921751.277 9  19844114.000    19844115.682        2341.104
      1819.266
 -12016763.496 8  -9506258.305 8  19401575.672    19401577.712         441.931
       346.313
 -31052303.903 9  27533343.934 8  21665205.627    21665208.166        3203.195
      2492.504
 88  3 23  4 47  5.0800000  0  4G 6G 9G11G13
  -1997871.444 8 -11155254.448 8  19088942.258    19088943.800        -334.955
      -259.686
 -16939748.054 9 -12976351.104 9  19830780.184    19830782.746        2330.274
      1814.674
 -12029548.304 9  -9516220.495 9  19399142.413    19399144.833         423.454
       324.366
 -31148275.191 9  27458561.120 9  21646942.489    21646945.884        3207.517
      2485.377
 88  3 23  4 47 35.0800000  0  4G 6G 9G11G13
  -1987403.767 9 -11147097.829 8  19090935.196    19090936.442        -367.195
      -273.220
 -17009479.981 9 -13030687.653 8  19817510.269    19817513.529        2297.564
      1799.127
 -12041813.117 9  -9525777.473 9  19396808.105    19396811.169         409.643
       317.170
 -31243919.479 9  27384033.131 9  21628741.948    21628745.587        3182.358
      2474.304
 88  3 23  4 48  5.0800000  0  4G 6G 9G11G13
  -1976399.662 8 -11138523.202 8  19093028.599    19093029.377        -373.718
      -298.386
 -17078870.959 8 -13084758.523 8  19804306.396    19804307.398        2315.968
      1815.494
 -12053558.446 9  -9534929.670 8  19394572.710    19394575.596         383.782
       304.146
 -31339234.563 9  27309761.635 9  21610603.867    21610607.191        3182.845
      2469.122
 88  3 23  4 48 35.0800000  0  4G 6G 9G11G13
  -1964858.181 9 -11129529.850 9  19095224.030    19095225.968        -388.160
      -296.447
 -17147918.284 9 -13138561.636 9  19791166.685    19791168.380        2307.260
      1790.371
 -12064785.037 9  -9543677.663 8  19392435.658    19392438.912         357.108
       294.664
 -31434218.752 9  27235748.015 8  21592528.279    21592532.704        3162.327
      2454.743
 88  3 23  4 49  5.0800000  0  4G 6G 9G11G13
  -1952778.462 8 -11120117.096 8  19097523.511    19097525.371        -404.675
      -316.319
 -17216619.623 9 -13192095.136 9  19778093.520    19778095.573        2287.931
      1776.707
 -12075493.723 9  -9552022.069 8  19390398.511    19390401.835         345.999
       282.367
 -31528870.301 9  27161993.586 9  21574516.808    21574521.577        3164.368
      2451.381
 88  3 23  4 49 35.0800000  0  4G 6G 9G11G13
  -1940159.282 9 -11110283.981 8  19099924.828    19099925.336        -420.408
      -321.122
 -17284971.482 9 -13245356.322 9  19765087.115    19765089.348        2250.204
      1773.569
 -12085685.351 9  -9559963.594 8  19388460.154    19388462.640         302.172
       238.286
 -31623187.092 9  27088500.003 8  21556568.980    21556573.035        3134.225
      2439.811
 88  3 23  4 50  5.0800000  0  4G 6G 9G11G13
  -1926999.766 9 -11100029.809 8  19102428.670    19102430.600        -439.570
      -341.385
 -17352971.436 9 -13298343.283 9  19752146.265    19752148.740        2263.218
      1761.254
 -12095361.030 9  -9567503.080 7  19386618.480    19386621.025         303.504
       250.577
 -31717167.947 9  27015268.193 8  21538685.480    21538689.005        3129.353
      2427.545
 88  3 23  4 50 35.0800000  0  4G 6G 9G11G13
  -1913298.739 9 -11089353.688 8  19105036.000    19105038.351        -465.607
      -366.862
 -17420616.178 9 -13351053.458 8  19739274.203    19739275.664        2255.443
      1768.486
 -12104521.522 9  -9574641.121 8  19384874.811    19384878.679         297.467
       238.690
 -31810810.600 9  26942299.917 8  21520865.658    21520870.201        3135.389
      2443.502
 88  3 23  4 51  5.0800000  0  4G 6G 9G11G13
  -1899055.435 8 -11078255.035 8  19107745.590    19107748.223        -488.206
      -377.941
 -17487903.289 9 -13403484.959 8  19726470.193    19726472.317        2247.221
      1745.943
 -12113167.492 8  -9581378.223 8  19383229.556    19383232.280         303.783
       209.392
 -31904113.677 9  26869596.251 8  21503111.497    21503114.552        3104.513
      2421.972
 88  3 23  4 51 35.0800000  0  4G 6G 9G11G13
  -1884268.683 9 -11066732.889 8  19110560.755    19110561.908        -504.641
      -389.729
 -17554829.574 9 -13455635.301 9  19713734.648    19713736.332        2228.569
      1733.981
 -12121299.779 8  -9587715.063 8  19381681.986    19381684.865         257.540
       206.459
 -31997075.192 9  26797158.724 8  21485421.375    21485423.613        3091.602
      2411.961
 88  3 23  4 52  5.0800000  0  4G 6G 9G11G13
  -1868937.453 9 -11054786.496 8  19113477.748    19113479.683        -517.974
      -419.667
 -17621392.170 9 -13507502.257 9  19701067.769    19701069.469        2204.854
      1726.506
 -12128919.531 8  -9593652.528 8  19380232.980    19380234.757         241.400
       190.210
 -32089693.273 9  26724988.801 9  21467796.545    21467799.957        3084.848
      2408.432
 88  3 23  4 52 35.0800000  0  4G 6G 9G11G13
  -1853061.027 9 -11042415.271 8  19116498.879    19116501.412        -533.349
      -427.925
 -17687588.403 8 -13559083.737 8  19688471.240    19688473.696        2201.018
      1699.371
 -12136027.600 9  -9599191.272 8  19378879.681    19378881.734         221.432
       188.967
 -32181965.985 9  26653088.001 9  21450236.920    21450240.488        3065.630
      2384.067
 88  3 23  4 53  5.0800000  0  4G 6G 9G11G13
  -1836638.463 9 -11029618.479 8  19119624.057    19119626.531        -551.068
      -429.112
 -17753415.199 9 -13610377.324 8  19675944.671    19675947.232        2193.363
      1709.897
 -12142624.819 8  -9604331.943 8  19377624.214    19377627.044         211.679
       179.678
 -32273892.523 9  26581456.945 9  21432744.303    21432747.415        3050.973
      2381.520
 88  3 23  4 53 35.0800000  0  4G 6G 9G11G13
  -1819668.817 9 -11016395.373 8  19122853.876    19122854.209        -582.878
      -446.777
 -17818869.857 9 -13661380.938 9  19663489.245    19663490.645        2162.167
      1694.014
 -12148712.006 8  -9609075.202 8  19376466.250    19376467.426         194.726
       156.855
 -32365470.045 9  26510097.868 9  21415317.248    21415320.457        3054.681
      2367.899
 88  3 23  4 54  5.0800000  0  4G 6G 9G11G13
  -1802150.759 9 -11002744.950 9  19126186.803    19126189.237        -593.651
      -463.306
 -17883948.917 9 -13712091.896 9  19651106.151    19651107.321        2163.874
      1685.632
 -12154289.937 8  -9613421.640 8  19375405.006    19375406.946         170.651
       129.564
 -32456697.263 9  26439011.739 8  21397956.776    21397960.516        3055.470
      2352.744
 88  3 23  4 54 35.0800000  0  4G 6G 9G11G13
  -1784083.583 9 -10988666.648 8  19129625.431    19129626.372        -602.415
      -480.531
 -17948649.628 9 -13762508.025 9  19638792.667    19638794.823        2145.421
      1665.797
 -12159359.694 8  -9617372.091 8  19374438.869    19374441.797         167.868
       127.849
 -32547572.403 8  26368199.980 8  21380664.251    21380667.503        3011.460
      2358.603
 88  3 23  4 55  5.0800000  0  4G 6G 9G11G13
  -1765466.473 9 -10974159.830 8  19133167.850    19133169.562        -635.819
      -492.306
 -18012969.195 9 -13812627.168 9  19626553.830    19626555.618        2130.923
      1674.553
 -12163922.353 9  -9620927.398 7  19373571.253    19373574.264         155.827
       102.136
 -32638094.203 8  26297663.516 8  21363439.194    21363442.970        3009.084
      2345.940
 88  3 23  4 55 35.0800000  0  4G 6G 9G11G13
  -1746299.074 9 -10959224.197 9  19136816.741    19136816.312        -648.546
      -492.660
 -18076905.201 9 -13862447.421 9  19614385.982    19614388.138        2129.018
      1656.011
 -12167979.322 8  -9624088.656 7  19372798.705    19372803.087         118.116
        97.668
 -32728260.813 9  26227403.827 8  21346279.845    21346283.812        2996.739
      2339.446
 88  3 23  4 56  5.0800000  0  4G 6G 9G11G13
  -1726580.514 9 -10943859.093 8  19140567.608    19140569.319        -685.595
      -517.316
 -18140454.636 8 -13911966.453 9  19602293.217    19602296.263        2107.965
      1652.407
 -12171531.324 9  -9626856.440 8  19372122.848    19372126.068         114.464
        83.401
 -32818070.864 9  26157421.992 8  21329190.288    21329194.224        2993.757
      2325.092
 88  3 23  4 56 35.0800000  0  4G 6G 9G11G13
  -1706309.794 8 -10928063.750 8  19144425.018    19144426.765        -662.127
      -531.627
 -18203614.386 9 -13961181.828 9  19590274.996    19590276.280        2103.763
      1636.499
 -12174579.392 9  -9629231.552 8  19371543.160    19371545.866          92.614
        65.605
 -32907522.303 9  26087719.593 8  21312169.139    21312171.360        2977.330
      2320.681
 88  3 23  4 57  5.0800000  0  4G 6G 9G11G13
  -1685486.238 9 -10911837.618 8  19148387.798    19148389.277        -710.802
      -545.247
 -18266381.851 9 -14010091.540 9  19578330.140    19578331.423        2089.385
      1626.477
 -12177124.871 9  -9631215.038 8  19371058.509    19371060.952          66.052
        54.818
 -32996613.611 9  26018297.802 8  21295215.138    21295218.202        2965.129
      2312.385
 88  3 23  4 57 35.0800000  0  4G 6G 9G11G13
  -1664109.626 9 -10895180.527 7  19152454.875    19152456.725        -720.292
      -550.871
 -18328754.417 9 -14058693.534 8  19566461.890    19566463.292        2064.665
      1628.925
 -12179169.167 9  -9632807.981 8  19370669.717    19370672.659          60.892
        40.588
 -33085343.750 9  25949157.449 8  21278329.210    21278334.236        2954.164
      2304.910
 88  3 23  4 58  5.0800000  0  4G 6G 9G11G13
  -1642178.980 8 -10878091.739 8  19156628.774    19156630.478        -749.637
      -572.675
 -18390728.980 9 -14106985.395 8  19554667.784    19554669.770        2063.325
      1608.854
 -12180713.300 9  -9634011.197 8  19370375.740    19370378.933          44.920
        33.486
 -33173710.893 9  25880299.964 8  21261514.099    21261517.388        2943.494
      2293.800
 88  3 23  4 58 35.0800000  0  4G 6G 9G11G13
  -1619693.459 9 -10860570.562 8  19160907.218    19160909.224        -751.902
      -587.961
 -18452302.751 9 -14154964.961 9  19542951.806    19542952.316        2057.591
      1596.520
 -12181758.195 9  -9634825.384 9  19370176.832    19370179.852          38.811
        24.538
 -33261713.315 9  25811726.658 8  21244767.492    21244770.489        2948.223
      2293.222
 88  3 23  4 59  5.0800000  0  4G 6G 9G11G13
  -1596652.613 8 -10842616.668 8  19165292.381    19165294.555        -786.567
      -614.313
 -18513472.770 9 -14202629.898 9  19531310.768    19531312.224        2034.992
      1586.640
 -12182305.074 8  -9635251.523 7  19370072.875    19370076.825          11.013
        -4.294
 -33349349.605 9  25743438.653 8  21228091.311    21228094.650        2913.224
      2263.663
 88  3 23  4 59 35.0800000  0  4G 6G 9G11G13
  -1573055.892 9 -10824229.624 8  19169782.110    19169784.205        -780.977
      -614.786
 -18574236.289 9 -14249978.094 9  19519747.084    19519749.228        2020.455
      1576.754
 -12182355.164 9  -9635290.539 9  19370063.654    19370066.893         -20.063
         6.276
 -33436617.927 9  25675437.377 9  21211484.119    21211487.974        2907.538
      2273.002
 88  3 23  5  0  5.0800000  0  4G 6G 9G11G13
  -1548902.315 9 -10805408.679 9  19174377.289    19174381.442        -814.038
      -626.194
 -18634590.210 9 -14297007.122 8  19508262.491    19508264.677        2016.739
      1570.559
 -12181909.244 8  -9634943.061 8  19370147.652    19370151.853         -18.421
       -16.752
 -33523517.089 9  25607723.772 8  21194947.933    21194953.342        2889.803
      2251.434
 88  3 23  5  0 35.0800000  0  4G 6G 9G11G13
  -1524191.328 9 -10786153.374 8  19179080.417    19179083.425        -829.907
      -637.596
 -18694531.731 9 -14343714.805 9  19496856.423    19496857.335        1992.098
      1542.137
 -12180968.713 9  -9634210.181 8  19370327.053    19370329.789         -44.991
       -28.167
 -33610045.330 9  25540299.195 8  21178483.256    21178485.620        2876.606
      2246.979
 88  3 23  5  1  5.0800000  0  4G 6G 9G11G13
  -1498922.647 9 -10766463.513 8  19183889.769    19183891.103        -855.058
      -656.325
 -18754058.184 8 -14390099.047 9  19485527.790    19485530.562        1974.243
      1537.017
 -12179534.829 9  -9633092.860 8  19370599.361    19370602.231         -50.358
       -53.041
 -33696201.229 9  25473164.747 8  21162087.723    21162091.381        2875.768
      2236.471
 88  3 23  5  1 35.0800000  0  4G 6G 9G11G13
  -1473095.675 8 -10746338.614 9  19188803.946    19188806.237        -854.811
      -668.839
 -18813166.896 9 -14436157.770 8  19474279.950    19474281.264        1960.400
      1535.283
 -12177609.038 9  -9631592.234 8  19370966.296    19370969.327         -81.841
       -48.381
 -33781983.278 9  25406321.613 9  21145763.135    21145767.041        2863.153
      2211.175
 88  3 23  5  2  5.0800000  0  4G 6G 9G11G13
  -1446709.861 9 -10725778.266 7  19193826.074    19193828.751        -882.825
      -717.139
 -18871854.766 9 -14481888.585 9  19463112.738    19463114.408        1955.831
      1520.209
 -12175192.434 9  -9629709.150 8  19371426.166    19371429.167         -91.474
       -64.095
 -33867390.219 8  25339770.769 8  21129511.224    21129514.300        2833.129
      2208.006
 88  3 23  5  2 35.0800000  0  4G 6G 9G11G13
  -1419764.630 9 -10704781.999 9  19198953.487    19198954.578        -918.957
      -707.974
 -18930118.975 9 -14527289.273 8  19452025.243    19452026.942        1933.550
      1507.091
 -12172285.924 9  -9627444.331 8  19371979.233    19371983.162         -91.896
       -79.505
 -33952420.663 9  25273513.304 8  21113330.514    21113334.432        2827.986
      2205.688
 88  3 23  5  3  5.0800000  0  4G 6G 9G11G13
  -1392259.603 9 -10683349.525 8  19204187.354    19204188.806        -929.092
      -719.544
 -18987956.583 9 -14572357.519 9  19441018.716    19441021.360        1917.641
      1501.785
 -12168891.278 9  -9624799.151 8  19372625.228    19372628.200        -117.749
       -87.987
 -34037072.920 8  25207550.530 9  21097220.665    21097224.657        2820.482
      2189.644
 88  3 23  5  3 35.0800000  0  4G 6G 9G11G13
  -1364194.549 9 -10661480.655 9  19209527.192    19209529.101        -943.319
      -738.465
 -19045365.164 9 -14617091.472 8  19430093.830    19430095.818        1905.903
      1495.577
 -12165010.131 9  -9621774.859 9  19373363.722    19373366.114        -128.618
      -101.726
 -34121345.224 9  25141883.808 8  21081184.707    21081188.037        2808.784
      2187.563
 88  3 23  5  4  5.0800000  0  4G 6G 9G11G13
  -1335568.978 9 -10639175.029 8  19214974.651    19214976.788        -948.917
      -745.132
 -19102341.708 9 -14661488.774 8  19419252.567    19419253.736        1907.785
      1480.627
 -12160643.417 9  -9618372.223 7  19374195.569    19374198.532        -152.390
      -129.253
 -34205236.767 9  25076513.797 8  21065222.205    21065224.166        2797.380
      2173.327
 88  3 23  5  4 35.0800000  0  4G 6G 9G11G13
  -1306382.351 9 -10616432.223 8  19220528.929    19220531.198        -961.875
      -758.237
 -19158883.512 9 -14705547.327 9  19408492.195    19408494.355        1859.620
      1463.421
 -12155792.367 9  -9614592.173 8  19375118.465    19375120.864        -161.489
      -116.894
 -34288745.960 8  25011441.720 8  21049329.559    21049332.376        2788.457
      2173.557
 88  3 23  5  5  5.0800000  0  4G 6G 9G11G13
  -1276634.194 9 -10593251.856 9  19226190.196    19226192.227       -1005.598
      -784.733
 -19214987.616 9 -14749264.797 8  19397816.520    19397818.720        1856.334
      1450.453
 -12150458.419 9  -9610435.847 8  19376133.128    19376135.785        -195.156
      -148.373
 -34371871.608 9  24946668.503 8  21033511.535    21033514.682        2768.529
      2137.828
 88  3 23  5  5 35.0800000  0  4G 6G 9G11G13
  -1246324.128 9 -10569633.634 8  19231957.610    19231960.184       -1015.056
      -788.125
 -19270651.094 8 -14792638.929 8  19387224.464    19387225.962        1859.771
      1443.127
 -12144642.887 8  -9605904.253 8  19377240.329    19377242.542        -193.681
      -152.412
 -34454612.114 8  24882195.409 8  21017766.718    21017768.914        2751.695
      2149.758
 88  3 23  5  6  5.0800000  0  4G 6G 9G11G13
  -1215452.244 9 -10545577.633 8  19237833.163    19237834.664       -1031.204
      -805.567
 -19325871.613 9 -14835667.901 8  19376715.656    19376718.169        1838.528
      1418.209
 -12138347.580 9  -9600998.813 7  19378438.126    19378441.512        -228.617
      -184.680
 -34536965.944 9  24818023.601 8  21002094.770    21002097.776        2751.655
      2133.447
 88  3 23  5  6 35.0800000  0  4G 6G 9G11G13
  -1184018.224 9 -10521083.613 8  19243813.796    19243816.769       -1033.987
      -832.597
 -19380646.356 9 -14878349.510 8  19366292.219    19366294.405        1821.582
      1415.227
 -12131573.628 9  -9595720.398 8  19379726.968    19379730.529        -227.165
      -162.435
 -34618932.184 9  24754153.817 8  20986497.821    20986500.964        2724.056
      2118.981
 88  3 23  5  7  5.0800000  0  4G 6G 9G11G13
  -1152021.635 9 -10496151.218 8  19249902.685    19249904.345       -1071.195
      -821.121
 -19434972.523 9 -14920681.587 8  19355954.201    19355957.104        1807.627
      1416.463
 -12124322.610 9  -9590070.243 8  19381106.681    19381109.003        -253.361
      -187.457
 -34700509.237 9  24690587.297 8  20970973.616    20970977.525        2720.372
      2102.123
 88  3 23  5  7 35.0800000  0  4G 6G 9G11G13
  -1119462.485 9 -10470780.480 8  19256098.862    19256100.336       -1093.827
      -850.717
 -19488847.416 9 -14962662.022 8  19345702.663    19345704.736        1775.395
      1397.294
 -12116596.136 9  -9584049.620 8  19382577.303    19382579.908        -254.932
      -210.890
 -34781696.232 9  24627324.729 9  20955524.433    20955527.613        2690.372
      2111.065
 88  3 23  5  8  5.0800000  0  4G 6G 9G11G13
  -1086340.417 9 -10444971.081 8  19262401.664    19262403.288       -1112.590
      -860.242
 -19542268.219 9 -15004288.619 8  19335536.241    19335538.055        1770.132
      1379.168
 -12108395.568 9  -9577659.556 8  19384137.575    19384140.430        -274.788
      -225.287
 -34862491.657 9  24564367.272 8  20940150.017    20940152.503        2674.974
      2091.858
 88  3 23  5  8 35.0800000  0  4G 6G 9G11G13
  -1052655.107 9 -10418722.808 9  19268811.162    19268814.176       -1126.266
      -885.856
 -19595232.144 8 -15045559.199 9  19325457.605    19325460.608        1748.864
      1369.406
 -12099722.009 9  -9570900.930 8  19385788.346    19385790.459        -311.008
      -232.097
 -34942893.845 9  24501716.231 9  20924849.681    20924852.774        2674.703
      2074.994
 88  3 23  5  9  5.0800000  0  4G 6G 9G11G13
  -1018406.320 9 -10392035.455 9  19275328.729    19275332.292       -1140.540
      -902.583
 -19647736.325 9 -15086471.545 8  19315467.314    19315469.013        1740.571
      1349.516
 -12090577.233 9  -9563775.133 8  19387528.018    19387530.416        -301.072
      -237.354
 -35022901.907 9  24439372.303 7  20909623.732    20909627.676        2665.516
      2072.080
 88  3 23  5  9 35.0800000  0  4G 6G 9G11G13
   -983594.135 8 -10364909.095 8  19281953.671    19281956.192       -1165.492
      -909.915
 -19699778.221 9 -15127023.673 9  19305563.288    19305565.889        1721.018
      1346.527
 -12080962.865 9  -9556283.404 8  19389358.356    19389360.353        -310.234
      -255.498
 -35102514.741 9  24377336.335 8  20894474.695    20894478.417        2646.394
      2052.811
 88  3 23  5 10  5.0800000  0  4G 6G 9G11G13
   -948218.254 9 -10337343.481 9  19288685.600    19288687.289       -1185.037
      -927.755
 -19751355.126 9 -15167213.463 9  19295749.147    19295750.761        1714.750
      1336.697
 -12070880.032 8  -9548426.635 8  19391276.451    19391279.901        -338.743
      -278.284
 -35181730.789 9  24315609.567 8  20879400.895    20879403.553        2628.563
      2057.017
 88  3 23  5 10 35.0800000  0  4G 6G 9G11G13
   -912278.452 9 -10309338.459 8  19295524.178    19295526.803       -1207.007
      -935.056
 -19802464.091 9 -15207038.632 8  19286023.370    19286026.268        1707.932
      1310.841
 -12060330.696 9  -9540206.372 8  19393284.156    19393287.091        -364.707
      -290.122
 -35260548.608 9  24254193.094 8  20864400.903    20864405.763        2634.711
      2050.294
 88  3 23  5 11  5.0800000  0  4G 6G 9G11G13
   -875774.737 9 -10280894.022 9  19302471.422    19302472.135       -1213.872
      -956.177
 -19853102.313 9 -15246496.982 9  19276388.311    19276389.813        1672.191
      1326.717
 -12049315.900 9  -9531623.406 8  19395379.547    19395382.184        -381.374
      -285.250
 -35338967.199 8  24193087.724 9  20849479.108    20849482.642        2621.490
      2022.748
 88  3 23  5 11 35.0800000  0  4G 6G 9G11G13
   -838707.037 9 -10252010.128 8  19309525.765    19309526.936       -1243.976
      -952.318
 -19903267.393 9 -15285586.655 8  19266841.041    19266843.329        1661.050
      1302.223
 -12037837.200 9  -9522678.957 9  19397564.439    19397566.848        -399.659
      -295.857
 -35416986.008 9  24132293.880 8  20834633.409    20834636.059        2592.894
      2021.698
 88  3 23  5 12  5.0800000  0  4G 6G 9G11G13
   -801075.310 9 -10222686.719 8  19316685.837    19316688.373       -1268.983
      -980.753
 -19952956.395 9 -15324305.347 7  19257386.303    19257386.741        1654.918
      1279.076
 -12025896.374 9  -9513374.412 8  19399836.669    19399839.671        -408.120
      -307.986
 -35494603.643 8  24071812.622 8  20819862.930    20819866.190        2579.003
      2016.764
 88  3 23  5 12 35.0800000  0  4G 6G 9G11G13
   -762879.356 9 -10192923.661 9  19323954.387    19323956.100       -1270.331
      -985.425
 -20002166.652 9 -15362650.999 8  19248021.519    19248023.017        1626.553
      1269.712
 -12013494.820 9  -9503710.852 8  19402195.839    19402199.890        -420.177
      -332.338
 -35571818.307 9  24011645.375 8  20805168.986    20805172.153        2572.176
      1999.888
 88  3 23  5 13  5.0800000  0  4G 6G 9G11G13
   -724119.236 9 -10162720.985 8  19331329.720    19331331.809       -1286.272
     -1017.066
 -20050895.268 9 -15400621.357 8  19238747.762    19238750.019        1621.346
      1264.878
 -12000634.032 9  -9493689.453 9  19404643.275    19404646.319        -438.342
      -337.763
 -35648628.559 9  23951793.237 8  20790552.734    20790555.928        2548.389
      1988.504
 88  3 23  5 13 35.0800000  0  4G 6G 9G11G13
   -684795.148 9 -10132078.851 8  19338813.417    19338815.530       -1328.919
     -1032.619
 -20099140.030 9 -15438214.678 8  19229567.941    19229569.313        1585.709
      1246.007
 -11987316.114 9  -9483311.850 8  19407177.803    19407180.874        -442.928
      -348.102
 -35725033.894 9  23892256.634 9  20776012.597    20776016.603        2535.869
      1977.270
 88  3 23  5 14  5.0800000  0  4G 6G 9G11G13
   -644907.183 9 -10100997.337 9  19346403.674    19346406.064       -1330.689
     -1049.794
 -20146898.265 9 -15475428.876 8  19220479.788    19220481.558        1592.630
      1238.302
 -11973542.349 9  -9472579.043 8  19409799.604    19409802.418        -462.584
      -363.624
 -35801033.534 8  23833036.160 9  20761550.037    20761553.532        2530.136
      1973.703
 88  3 23  5 14 35.0800000  0  4G 6G 9G11G13
   -604455.318 8 -10069476.425 9  19354101.841    19354103.414       -1360.800
     -1058.636
 -20194167.184 9 -15512261.798 9  19211484.563    19211486.105        1578.604
      1227.732
 -11959314.461 9  -9461492.376 8  19412506.451    19412509.281        -476.731
      -361.008
 -35876626.247 9  23774132.774 7  20747166.915    20747170.550        2524.809
      1957.354
 88  3 23  5 15  5.0800000  0  4G 6G 9G11G13
   -563440.399 9 -10037516.759 9  19361906.664    19361908.351       -1372.419
     -1070.411
 -20240944.829 9 -15548711.909 8  19202583.457    19202584.572        1540.151
      1209.650
 -11944634.803 9  -9450053.672 7  19415299.885    19415303.493        -493.421
      -385.640
 -35951811.122 9  23715547.169 8  20732858.154    20732862.323        2506.811
      1948.102
 88  3 23  5 15 35.0800000  0  4G 6G 9G11G13
   -521862.236 9 -10005118.206 8  19369818.622    19369820.314       -1399.244
     -1081.783
 -20287228.381 9 -15584777.010 9  19193776.821    19193776.459        1552.232
      1204.325
 -11929504.733 9  -9438264.012 9  19418178.500    19418181.630        -517.544
      -394.967
 -36026586.673 9  23657280.531 9  20718630.114    20718632.285        2501.292
      1937.141
 88  3 23  5 16  5.0800000  0  4G 6G 9G11G13
   -479720.705 9  -9972280.663 9  19377837.965    19377840.044       -1416.437
     -1108.558
 -20333014.683 9 -15620454.642 8  19185062.219    19185065.135        1524.139
      1200.895
 -11913925.903 9  -9426124.669 7  19421144.211    19421147.055        -535.111
      -415.926
 -36100952.157 9  23599333.411 9  20704478.390    20704480.918        2481.293
      1928.156
 88  3 23  5 16 35.0800000  0  4G 6G 9G11G13
   -437015.975 9  -9939004.274 9  19385964.772    19385966.330       -1438.582
     -1119.227
 -20378301.239 9 -15655742.863 8  19176444.741    19176446.584        1513.589
      1178.562
 -11897899.761 9  -9413636.749 8  19424193.335    19424196.244        -531.650
      -408.811
 -36174906.552 9  23541706.629 8  20690405.590    20690408.780        2450.448
      1908.029
 88  3 23  5 17  5.0800000  0  4G 6G 9G11G13
   -393748.193 9  -9905289.146 9  19394197.944    19394200.227       -1447.370
     -1134.799
 -20423085.723 9 -15690639.860 8  19167922.339    19167924.625        1495.367
      1163.836
 -11881427.575 9  -9400801.272 8  19427327.813    19427330.792        -552.376
      -422.537
 -36248448.775 9  23484401.014 8  20676410.306    20676414.695        2444.978
      1914.361
 88  3 23  5 17 35.0800000  0  4G 6G 9G11G13
   -349917.704 9  -9871135.537 9  19402538.480    19402540.978       -1456.620
     -1143.809
 -20467365.312 9 -15725143.431 9  19159496.882    19159499.770        1465.224
      1143.448
 -11864511.390 9  -9387619.823 8  19430546.851    19430550.201        -568.253
      -444.702
 -36321577.958 9  23427417.241 8  20662494.749    20662497.635        2407.666
      1892.992
 88  3 23  5 18  5.0800000  0  4G 6G 9G11G13
   -305524.764 9  -9836543.645 8  19410986.133    19410988.280       -1496.468
     -1154.658
 -20511137.779 9 -15759251.841 9  19151166.788    19151168.702        1448.199
      1132.195
 -11847153.146 9  -9374093.908 8  19433850.543    19433853.573        -586.817
      -449.779
 -36394292.971 9  23370756.215 9  20648656.957    20648660.275        2414.723
      1882.957
 88  3 23  5 18 35.0800000  0  4G 6G 9G11G13
   -260569.590 9  -9801513.670 8  19419540.919    19419543.449       -1495.383
     -1176.276
 -20554400.329 9 -15792962.917 8  19142934.162    19142936.534        1425.639
      1111.776
 -11829354.531 9  -9360224.855 8  19437237.155    19437239.547        -612.949
      -474.360
 -36466592.779 9  23314418.716 9  20634898.453    20634901.276        2414.819
      1877.352
 88  3 23  5 19  5.0800000  0  4G 6G 9G11G13
   -215052.685 9  -9766045.964 8  19428202.290    19428203.983       -1518.238
     -1186.758
 -20597150.557 9 -15826274.787 7  19134799.847    19134800.469        1426.254
      1089.512
 -11811117.436 9  -9346014.128 9  19440707.941    19440710.211        -606.131
      -476.908
 -36538476.623 8  23258405.352 8  20621220.090    20621222.121        2379.564
      1872.505
 88  3 23  5 19 35.0800000  0  4G 6G 9G11G13
   -168974.317 9  -9730140.750 8  19436970.631    19436972.904       -1544.673
     -1201.646
 -20639385.778 9 -15859185.346 9  19126762.588    19126764.488        1379.691
      1076.451
 -11792443.267 9  -9331462.825 8  19444261.157    19444263.698        -626.410
      -489.982
 -36609943.415 9  23202716.973 9  20607619.688    20607623.277        2372.483
      1850.179
 88  3 23  5 20  5.0800000  0  4G 6G 9G11G13
   -122334.998 9  -9693798.443 9  19445845.296    19445847.867       -1556.228
     -1209.476
 -20681103.950 9 -15891693.003 8  19118824.265    19118825.749        1382.123
      1072.151
 -11773334.060 9  -9316572.532 8  19447898.023    19447900.101        -640.548
      -500.899
 -36680992.445 9  23147354.094 8  20594099.502    20594102.844        2365.465
      1828.282
 88  3 23  5 20 35.0800000  0  4G 6G 9G11G13
    -75135.607 9  -9657019.712 9  19454827.950    19454830.349       -1591.315
     -1237.891
 -20722302.331 9 -15923795.629 8  19110984.467    19110985.609        1350.593
      1061.836
 -11753791.935 9  -9301344.900 8  19451616.327    19451618.985        -663.586
      -509.145
 -36751623.129 9  23092317.210 9  20580659.449    20580662.747        2341.040
      1828.947
 88  3 23  5 21  5.0800000  0  4G 6G 9G11G13
    -27375.814 9  -9619804.307 7  19463916.076    19463917.513       -1597.718
     -1263.598
 -20762978.682 8 -15955491.503 8  19103243.154    19103246.169        1355.027
      1043.984
 -11733818.635 9  -9285781.295 8  19455416.613    19455420.537        -658.459
      -515.409
 -36821834.399 9  23037607.140 9  20567298.827    20567300.751        2341.135
      1828.325
 88  3 23  5 21 35.0800000  0  4G 6G 9G11G13
     20944.212 9  -9582152.357 9  19473111.015    19473112.284       -1627.128
     -1265.344
 -20803130.598 9 -15986778.695 8  19095603.428    19095604.957        1324.820
      1041.747
 -11713415.845 9  -9269883.005 8  19459299.304    19459301.872        -697.031
      -513.141
 -36891625.475 9  22983224.512 9  20554017.807    20554020.160        2325.825
      1817.855
 88  3 23  5 22  5.0800000  0  4G 6G 9G11G13
     69823.191 9  -9544064.850 9  19482412.458    19482414.302       -1639.615
     -1279.841
 -20842755.019 9 -16017654.868 8  19088062.981    19088064.422        1310.777
      1016.799
 -11692585.244 9  -9253651.367 8  19463263.485    19463265.798        -692.661
      -544.682
 -36960995.090 9  22929170.272 8  20540817.128    20540821.576        2307.851
      1797.399
 88  3 23  5 22 35.0800000  0  4G 6G 9G11G13
    119260.994 9  -9505541.911 9  19491819.704    19491821.505       -1664.567
     -1282.295
 -20881850.285 8 -16048118.709 9  19080623.454    19080624.282        1298.847
      1021.788
 -11671328.794 8  -9237087.889 8  19467308.324    19467310.759        -717.253
      -553.201
 -37029942.843 9  22875444.769 8  20527696.544    20527699.803        2299.477
      1778.640
 88  3 23  5 23  5.0800000  0  4G 6G 9G11G13
    169257.025 9  -9466583.978 7  19501333.965    19501336.980       -1668.116
     -1311.960
 -20920413.706 9 -16078168.124 7  19073284.817    19073287.832        1280.291
      1003.228
 -11649648.265 9  -9220193.971 8  19471434.037    19471436.563        -724.311
      -571.538
 -37098467.954 9  22822048.613 9  20514657.022    20514660.902        2268.872
      1772.358
 88  3 23  5 23 35.0800000  0  4G 6G 9G11G13
    219810.560 9  -9427191.624 8  19510954.895    19510955.494       -1694.654
     -1305.734
 -20958443.012 9 -16107801.355 8  19066047.606    19066049.903        1263.736
       968.070
 -11627545.636 8  -9202971.135 8  19475639.296    19475642.753        -751.591
      -581.411
 -37166569.384 9  22768982.585 9  20501697.280    20501701.268        2271.487
      1760.123
 88  3 23  5 24  5.0800000  0  4G 6G 9G11G13
    270921.320 9  -9387365.077 8  19520680.144    19520682.808       -1703.004
     -1317.266
 -20995935.513 8 -16137016.284 8  19058913.257    19058914.583        1236.528
       955.506
 -11605022.691 9  -9185420.797 8  19479926.922    19479928.793        -774.422
      -593.590
 -37234246.531 9  22716247.155 9  20488818.204    20488822.423        2244.710
      1749.162
 88  3 23  5 24 35.0800000  0  4G 6G 9G11G13
    322589.013 9  -9347104.556 8  19530512.614    19530514.355       -1721.783
     -1338.449
 -21032888.771 9 -16165811.041 8  19051881.560    19051883.345        1221.632
       946.508
 -11582081.276 9  -9167544.367 8  19484291.603    19484294.310        -775.307
      -603.961
 -37301498.622 9  22663842.939 9  20476021.451    20476024.606        2235.595
      1748.969
 88  3 23  5 25  5.0800000  0  4G 6G 9G11G13
    374812.835 9  -9306410.699 8  19540450.256    19540452.274       -1758.473
     -1357.799
 -21069300.550 9 -16194183.862 8  19044952.173    19044953.846        1203.737
       942.215
 -11558722.984 9  -9149343.085 8  19488735.581    19488738.250        -770.108
      -609.342
 -37368325.055 9  22611770.414 9  20463304.373    20463308.025        2225.276
      1715.048
 88  3 23  5 25 35.0800000  0  4G 6G 9G11G13
    427592.067 9  -9265284.025 9  19550494.122    19550495.983       -1771.408
     -1383.785
 -21105168.573 9 -16222132.954 8  19038126.810    19038128.266        1179.950
       919.969
 -11534949.850 9  -9130818.579 8  19493259.434    19493263.336        -797.212
      -619.663
 -37434724.808 9  22560030.367 8  20450669.090    20450673.135        2201.241
      1711.400
 88  3 23  5 26  5.0800000  0  4G 6G 9G11G13
    480925.872 9  -9223725.228 8  19560643.377    19560645.575       -1779.868
     -1385.643
 -21140490.787 9 -16249656.764 8  19031405.457    19031406.943        1172.127
       919.429
 -11510764.364 9  -9111972.732 8  19497862.431    19497865.440        -809.158
      -619.365
 -37500697.505 9  22508623.092 9  20438116.032    20438118.193        2190.356
      1697.450
 88  3 23  5 26 35.0800000  0  4G 6G 9G11G13
    534813.972 9  -9181734.516 9  19570897.505    19570900.126       -1798.903
     -1403.725
 -21175264.176 9 -16276752.909 8  19024788.236    19024790.822        1144.838
       895.792
 -11486167.694 8  -9092806.493 8  19502543.489    19502546.107        -812.093
      -650.043
 -37566242.602 9  22457548.999 9  20425643.131    20425645.674        2176.473
      1692.467
 88  3 23  5 27  5.0800000  0  4G 6G 9G11G13
    589255.149 9  -9139312.841 8  19581257.463    19581259.075       -1820.920
     -1417.607
 -21209487.167 8 -16303420.171 8  19018275.441    19018277.927        1142.079
       891.125
 -11461162.090 9  -9073321.595 8  19507301.008    19507304.686        -828.472
      -656.816
 -37631359.239 9  22406808.794 9  20413251.144    20413254.948        2172.430
      1680.791
 88  3 23  5 27 35.0800000  0  4G 6G 9G11G13
    644248.705 9  -9096460.736 9  19591722.481    19591725.411       -1812.579
     -1440.194
 -21243157.496 9 -16329656.792 9  19011868.323    19011870.323        1112.303
       871.781
 -11435749.792 9  -9053519.799 8  19512137.475    19512140.819        -849.835
      -653.932
 -37696046.888 9  22356402.843 9  20400941.986    20400945.404        2134.368
      1683.954
 88  3 23  5 28  5.0800000  0  4G 6G 9G11G13
    699793.981 9  -9053178.721 8  19602293.181    19602294.381       -1855.282
     -1446.264
 -21276272.882 9 -16355460.979 8  19005566.518    19005568.286        1095.485
       836.282
 -11409932.552 9  -9033402.477 8  19517049.907    19517053.100        -853.336
      -675.674
 -37760304.717 9  22306331.824 8  20388713.641    20388716.141        2126.402
      1653.246
 88  3 23  5 28 35.0800000  0  4G 6G 9G11G13
    755890.263 9  -9009467.365 8  19612967.392    19612968.520       -1885.257
     -1454.753
 -21308830.986 8 -16380830.931 8  18999370.930    18999372.314        1085.956
       833.039
 -11383712.578 9  -9012971.328 8  19522039.590    19522042.885        -894.523
      -683.870
 -37824132.026 9  22256596.274 9  20376567.863    20376571.339        2112.120
      1645.739
 88  3 23  5 29  5.0800000  0  4G 6G 9G11G13
    812537.102 9  -8965326.983 8  19623746.297    19623748.622       -1895.473
     -1473.009
 -21340829.102 9 -16405764.526 7  18993281.583    18993282.637        1059.178
       823.146
 -11357091.146 9  -8992227.343 7  19527104.950    19527108.584        -883.750
      -700.492
 -37887528.111 9  22207196.759 8  20364502.852    20364507.893        2103.851
      1633.815
 88  3 23  5 29 35.0800000  0  4G 6G 9G11G13
    869733.115 9  -8920758.676 9  19634630.674    19634632.554       -1923.136
     -1492.563
 -21372265.672 9 -16430260.552 7  18987299.723    18987301.821        1038.500
       802.156
 -11330070.575 9  -8971172.352 7  19532247.038    19532250.633        -917.354
      -706.936
 -37950493.003 9  22158133.213 8  20352521.470    20352525.747        2103.843
      1618.877
 88  3 23  5 30  5.0800000  0  4G 6G 9G11G13
    927477.156 9  -8875763.348 8  19645618.773    19645621.624       -1951.963
     -1511.882
 -21403139.115 8 -16454317.779 7  18981425.667    18981426.522        1019.737
       796.862
 -11302653.446 8  -8949808.345 8  19537463.871    19537467.551        -924.603
      -714.256
 -38013026.515 9  22109405.815 8  20340621.501    20340625.070        2072.719
      1620.915
 88  3 23  5 30 35.0800000  0  4G 6G 9G11G13
    985768.694 9  -8830341.389 8  19656710.793    19656713.647       -1953.295
     -1516.629
 -21433446.677 9 -16477934.065 7  18975657.814    18975659.198        1000.566
       779.227
 -11274841.380 8  -8928136.598 8  19542756.058    19542759.250        -915.329
      -719.569
 -38075127.782 9  22061015.224 9  20328804.768    20328808.744        2069.521
      1612.228
 88  3 23  5 31  5.0800000  0  4G 6G 9G11G13
   1044607.243 9  -8784493.198 8  19667908.257    19667910.718       -1977.250
     -1538.831
 -21463185.826 8 -16501107.423 8  18969998.444    18969999.457        1001.196
       783.129
 -11246636.072 9  -8906158.442 8  19548124.146    19548127.410        -940.089
      -741.019
 -38136795.578 9  22012962.421 9  20317069.205    20317073.140        2055.917
      1592.431
 88  3 23  5 31 35.0800000  0  4G 6G 9G11G13
   1103991.290 9  -8738219.916 8  19679208.033    19679210.430       -1970.272
     -1545.163
 -21492354.898 9 -16523836.581 8  18964447.978    18964450.064         958.813
       748.326
 -11218040.048 9  -8883875.837 8  19553565.312    19553569.245        -964.841
      -737.713
 -38198029.704 9  21965247.536 8  20305417.148    20305421.261        2027.201
      1566.340
 88  3 23  5 32  5.0800000  0  4G 6G 9G11G13
   1163920.183 9  -8691522.103 9  19690612.573    19690614.028       -2005.519
     -1558.920
 -21520951.782 8 -16546119.861 8  18959005.384    18959007.627         958.135
       746.164
 -11189055.109 9  -8861290.148 8  19559081.467    19559084.675        -967.010
      -754.683
 -38258830.665 9  21917870.172 8  20293847.691    20293849.736        2021.252
      1574.101
 88  3 23  5 32 35.0800000  0  4G 6G 9G11G13
   1224392.835 8  -8644400.581 8  19702119.747    19702122.322       -2029.370
     -1579.824
 -21548974.277 8 -16567955.569 7  18953673.683    18953677.115         915.743
       727.224
 -11159683.175 9  -8838402.924 8  19564670.862    19564674.177        -984.713
      -762.307
 -38319196.965 9  21870831.505 8  20282360.510    20282361.987        2014.243
      1571.882
 88  3 23  5 33  5.0800000  0  4G 6G 9G11G13
   1285408.558 9  -8596855.875 9  19713731.373    19713733.007       -2023.102
     -1595.905
 -21576420.132 9 -16589341.949 8  18948450.087    18948452.056         915.217
       696.323
 -11129926.023 8  -8815215.543 8  19570333.051    19570336.380        -975.854
      -800.242
 -38379127.760 9  21824132.211 8  20270954.918    20270957.905        1986.938
      1556.596
 88  3 23  5 33 35.0800000  0  4G 6G 9G11G13
   1346966.011 9  -8548889.048 8  19725445.051    19725446.618       -2060.071
     -1598.527
 -21603287.592 9 -16610277.639 8  18943337.455    18943339.757         874.707
       686.337
 -11099785.690 9  -8791729.570 8  19576068.718    19576071.274       -1013.923
      -791.524
 -38438623.676 9  21777771.775 9  20259633.470    20259637.078        1980.663
      1544.598
 88  3 23  5 34  5.0800000  0  4G 6G 9G11G13
   1409064.406 9  -8500500.689 8  19737262.540    19737263.328       -2089.895
     -1616.994
 -21629574.522 8 -16630760.967 8  18938335.830    18938337.102         860.593
       682.199
 -11069264.403 9  -8767946.736 8  19581875.956    19581880.134       -1013.812
      -800.572
 -38497683.836 9  21731750.883 9  20248395.027    20248397.443        1969.052
      1534.388
 88  3 23  5 34 35.0800000  0  4G 6G 9G11G13
   1471702.506 9  -8451691.803 8  19749181.579    19749184.426       -2096.690
     -1647.939
 -21655278.925 8 -16650790.366 8  18933443.458    18933445.111         862.570
       651.727
 -11038364.097 9  -8743868.569 8  19587757.461    19587760.470       -1008.469
      -819.971
 -38556307.719 9  21686069.958 9  20237239.307    20237241.700        1939.674
      1511.907
 88  3 23  5 35  5.0800000  0  4G 6G 9G11G13
   1534879.531 9  -8402462.978 8  19761204.099    19761206.311       -2110.358
     -1654.190
 -21680398.576 8 -16670364.110 8  18928662.906    18928666.194         833.528
       653.031
 -11007086.829 9  -8719496.673 8  19593709.602    19593711.588       -1057.240
      -815.857
 -38614494.986 9  21640729.243 8  20226166.569    20226168.678        1938.598
      1515.070
 88  3 23  5 35 35.0800000  0  4G 6G 9G11G13
   1598594.018 9  -8352815.359 8  19773328.534    19773330.949       -2126.617
     -1667.307
 -21704931.946 9 -16689481.028 7  18923995.619    18923997.948         804.644
       631.432
 -10975434.992 9  -8694832.905 8  19599732.895    19599735.578       -1052.448
      -826.284
 -38672245.612 9  21595728.771 8  20215177.448    20215180.143        1914.794
      1487.338
 88  3 23  5 36  5.0800000  0  4G 6G 9G11G13
   1662844.833 9  -8302749.806 8  19785554.630    19785555.885       -2147.749
     -1672.278
 -21728876.864 9 -16708139.409 8  18919439.250    18919441.565         787.603
       620.987
 -10943410.222 9  -8669878.526 8  19605825.911    19605828.816       -1060.262
      -838.755
 -38729559.117 9  21551068.903 9  20204270.229    20204273.437        1902.474
      1486.747
 88  3 23  5 36 35.0800000  0  4G 6G 9G11G13
   1727630.766 9  -8252267.283 8  19797883.274    19797885.853       -2157.119
     -1682.711
 -21752231.780 9 -16726338.048 8  18914994.611    18914996.936         782.571
       582.219
 -10911015.162 9  -8644635.612 9  19611990.607    19611993.893       -1065.047
      -827.831
 -38786434.952 8  21506750.085 8  20193446.744    20193451.630        1905.257
      1457.661
 88  3 23  5 37  5.0800000  0  4G 6G 9G11G13
   1792950.883 9  -8201368.500 9  19810312.907    19810315.563       -2179.966
     -1694.723
 -21774994.547 8 -16744075.261 8  18910663.901    18910664.642         734.239
       576.024
 -10878251.562 9  -8619105.537 8  19618225.512    19618228.390       -1092.439
      -852.388
 -38842873.032 9  21462772.374 8  20182707.716    20182709.510        1872.498
      1475.886
 88  3 23  5 37 35.0800000  0  4G 6G 9G11G13
   1858803.561 9  -8150054.732 8  19822845.126    19822846.037       -2200.452
     -1712.886
 -21797163.625 8 -16761349.879 7  18906445.045    18906446.645         719.279
       563.982
 -10845121.588 9  -8593289.981 9  19624530.018    19624532.790       -1113.994
      -870.315
 -38898873.250 9  21419135.856 9  20172051.429    20172053.011        1851.494
      1448.023
 88  3 23  5 38  5.0800000  0  4G 6G 9G11G13
   1925188.025 9  -8098326.602 9  19835476.820    19835479.588       -2218.211
     -1719.888
 -21818736.644 8 -16778160.026 9  18902339.073    18902340.930         712.979
       556.743
 -10811627.131 9  -8567190.397 9  19630903.857    19630906.593       -1117.750
      -865.021
 -38954434.824 9  21375841.135 9  20161477.459    20161479.874        1837.204
      1440.399
 88  3 23  5 38 35.0800000  0  4G 6G 9G11G13
   1992102.793 9  -8046185.244 8  19848209.927    19848212.302       -2236.703
     -1728.774
 -21839711.830 8 -16794504.340 9  18898347.561    18898349.648         689.056
       535.137
 -10777770.269 9  -8540808.425 9  19637347.151    19637350.186       -1136.138
      -880.096
 -39009557.929 8  21332888.082 8  20150987.547    20150990.723        1830.793
      1446.457
 88  3 23  5 39  5.0800000  0  4G 6G 9G11G13
   2059546.818 9  -7993631.489 9  19861044.948    19861047.136       -2251.336
     -1754.021
 -21860087.655 9 -16810381.594 8  18894470.237    18894471.535         684.423
       525.972
 -10743553.395 9  -8514145.928 8  19643857.685    19643860.485       -1146.314
      -882.152
 -39064242.511 9  21290276.734 8  20140582.559    20140584.577        1808.153
      1420.459
 88  3 23  5 39 35.0800000  0  4G 6G 9G11G13
   2127518.826 9  -7940666.321 8  19873979.278    19873981.100       -2266.711
     -1772.401
 -21879862.084 9 -16825790.250 8  18890707.495    18890709.751         650.787
       505.746
 -10708978.189 9  -8487204.210 8  19650437.700    19650439.779       -1153.028
      -887.695
 -39118488.003 8  21248007.531 8  20130260.238    20130262.428        1800.051
      1394.230
 88  3 23  5 40  5.0800000  0  4G 6G 9G11G13
   2196017.278 9  -7887290.916 8  19887014.303    19887016.171       -2302.699
     -1789.234
 -21899033.454 9 -16840728.985 8  18887059.023    18887062.499         633.706
       507.759
 -10674046.926 9  -8459985.051 9  19657085.302    19657087.136       -1166.880
      -903.049
 -39172294.317 9  21206080.549 8  20120021.128    20120023.354        1805.187
      1403.632
 88  3 23  5 40 35.0800000  0  4G 6G 9G11G13
   2265040.943 9  -7833506.258 8  19900149.646    19900150.771       -2312.061
     -1796.069
 -21917600.186 8 -16855196.578 9  18883526.585    18883527.370         609.966
       479.685
 -10638761.654 9  -8432490.033 9  19663798.853    19663802.420       -1186.257
      -919.503
 -39225661.255 9  21164495.930 8  20109865.785    20109868.837        1762.875
      1388.240
 88  3 23  5 41  5.0800000  0  4G 6G 9G11G13
   2334588.296 9  -7779313.533 9  19913383.546    19913386.594       -2336.255
     -1808.491
 -21935560.625 9 -16869191.730 8  18880108.969    18880109.724         595.892
       462.815
 -10603124.722 9  -8404721.004 8  19670580.825    19670583.804       -1198.458
      -926.500
 -39278588.665 9  21123253.822 8  20099793.278    20099796.160        1772.540
      1386.544
 88  3 23  5 41 35.0800000  0  4G 6G 9G11G13
   2404658.148 9  -7724713.668 8  19926717.065    19926719.808       -2343.831
     -1822.758
 -21952912.833 8 -16882712.932 8  18876806.573    18876808.328         572.495
       433.703
 -10567138.090 9  -8376679.470 8  19677428.827    19677431.722       -1214.614
      -936.175
 -39331076.083 9  21082354.545 8  20089805.340    20089807.830        1740.068
      1353.723
 88  3 23  5 42  5.0800000  0  4G 6G 9G11G13
   2475249.075 9  -7669707.780 8  19940150.493    19940153.095       -2338.919
     -1834.073
 -21969655.316 8 -16895759.037 8  18873620.462    18873622.736         550.183
       434.225
 -10530804.069 9  -8348367.249 9  19684343.601    19684345.764       -1212.868
      -938.070
 -39383123.630 9  21041798.035 8  20079900.636    20079903.895        1729.247
      1334.566
 88  3 23  5 42 35.0800000  0  4G 6G 9G11G13
   2546359.660 9  -7614296.958 8  19953682.539    19953685.189       -2385.186
     -1861.196
 -21985786.294 8 -16908328.621 8  18870550.796    18870553.433         521.339
       407.450
 -10494124.658 9  -8319785.896 8  19691322.993    19691325.382       -1221.528
      -967.325
 -39434731.740 9  21001583.939 8  20070079.728    20070083.414        1725.332
      1341.506
 88  3 23  5 43  5.0800000  0  4G 6G 9G11G13
   2617988.567 9  -7558482.249 9  19967313.299    19967314.788       -2407.275
     -1865.515
 -22001304.183 9 -16920420.489 8  18867598.461    18867600.333         507.337
       399.329
 -10457101.738 9  -8290936.862 9  19698368.013    19698370.650       -1239.941
      -952.772
 -39485899.586 9  20961712.910 8  20060343.057    20060346.070        1704.423
      1325.767
 88  3 23  5 43 35.0800000  0  4G 6G 9G11G13
   2690134.140 9  -7502264.943 7  19981042.093    19981043.874       -2415.576
     -1876.047
 -22016207.242 9 -16932033.258 8  18864762.223    18864764.286         493.445
       371.187
 -10419737.448 9  -8261821.842 9  19705478.878    19705481.140       -1241.424
      -978.068
 -39536627.201 9  20922184.916 8  20050690.044    20050692.938        1704.559
      1322.256
 88  3 23  5 44  5.0800000  0  4G 6G 9G11G13
   2762795.829 9  -7445645.451 8  19994869.010    19994870.703       -2427.657
     -1895.975
 -22030493.366 8 -16943165.311 8  18862044.116    18862045.889         469.203
       365.756
 -10382033.193 9  -8232441.909 8  19712652.563    19712656.699       -1251.567
      -981.324
 -39586913.511 9  20883000.793 8  20041120.673    20041124.376        1663.044
      1284.215
 88  3 23  5 44 35.0800000  0  4G 6G 9G11G13
   2835971.334 9  -7388625.605 8  20008793.466    20008795.807       -2435.329
     -1919.513
 -22044161.604 9 -16953815.887 9  18859442.696    18859444.747         430.264
       344.213
 -10343992.204 9  -8202799.578 9  19719891.610    19719894.474       -1263.481
      -990.154
 -39636759.569 9  20844159.718 8  20031636.002    20031638.202        1659.687
      1303.347
 88  3 23  5 45  5.0800000  0  4G 6G 9G11G13
   2909659.090 9  -7331206.597 8  20022816.348    20022817.440       -2474.331
     -1919.345
 -22057210.525 9 -16963983.874 7  18856959.312    18856960.862         425.344
       342.081
 -10305616.705 9  -8172896.590 8  19727193.929    19727196.963       -1273.401
     -1001.457
 -39686165.399 9  20805661.679 8  20022234.455    20022236.661        1637.048
      1267.488
 88  3 23  5 45 35.0800000  0  4G 6G 9G11G13
   2983857.372 9  -7273389.782 9  20036935.647    20036937.368       -2473.861
     -1933.518
 -22069638.777 9 -16973668.233 8  18854594.694    18854595.940         406.166
       304.065
 -10266908.839 9  -8142734.618 8  19734559.782    19734563.059       -1277.962
     -1009.895
 -39735131.052 9  20767506.630 7  20012915.316    20012918.267        1635.381
      1275.336
 88  3 23  5 46  5.0800000  0  4G 6G 9G11G13
   3058564.783 9  -7215176.232 8  20051151.784    20051153.848       -2506.867
     -1942.740
 -22081445.030 8 -16982867.909 8  18852347.518    18852349.296         382.897
       306.240
 -10227870.771 9  -8112315.355 8  19741989.362    19741992.028       -1310.322
     -1006.260
 -39783657.016 9  20729694.209 7  20003681.287    20003684.867        1617.909
      1243.534
 88  3 23  5 46 35.0800000  0  4G 6G 9G11G13
   3133779.535 9  -7156567.362 9  20065465.137    20065466.247       -2510.311
     -1948.351
 -22092627.605 9 -16991581.621 8  18850219.461    18850220.494         394.061
       297.982
 -10188504.557 9  -8081640.373 9  19749480.222    19749482.484       -1327.722
     -1036.509
 -39831742.687 9  20692224.864 8  19994531.003    19994534.377        1597.902
      1233.641
 88  3 23  5 47  5.0800000  0  4G 6G 9G11G13
   3209499.792 9  -7097564.579 8  20079874.012    20079876.289       -2528.637
     -1973.256
 -22103185.543 8 -16999808.596 8  18848210.984    18848212.764         350.585
       281.472
 -10148812.442 9  -8050711.461 9  19757032.433    19757036.271       -1334.859
     -1036.757
 -39879389.060 9  20655097.838 8  19985465.295    19985467.710        1589.879
      1246.311
 88  3 23  5 47 35.0800000  0  4G 6G 9G11G13
   3285723.964 9  -7038169.135 8  20094379.325    20094381.009       -2545.534
     -1980.488
 -22113117.243 8 -17007547.580 8  18846320.644    18846322.507         326.454
       243.618
 -10108796.694 9  -8019530.363 9  19764647.855    19764651.238       -1360.337
     -1035.216
 -39926595.312 9  20618313.754 8  19976482.320    19976483.951        1558.548
      1213.428
 88  3 23  5 48  5.0800000  0  4G 6G 9G11G13
   3362450.583 9  -6978382.176 8  20108979.363    20108982.181       -2565.821
     -2000.528
 -22122421.224 9 -17014797.431 7  18844551.217    18844552.037         285.594
       223.752
 -10068459.441 9  -7988098.743 8  19772323.929    19772326.694       -1336.518
     -1031.264
 -39973361.828 9  20581872.333 8  19967582.915    19967585.377        1548.070
      1217.958
 88  3 23  5 48 35.0800000  0  4G 6G 9G11G13
   3439678.126 9  -6918204.891 8  20123674.923    20123677.625       -2576.020
     -1992.730
 -22131096.154 9 -17021557.120 7  18842899.534    18842900.384         276.670
       228.754
 -10027802.668 9  -7956418.134 8  19780060.818    19780063.350       -1355.976
     -1068.038
 -40019688.349 9  20545773.757 8  19958766.352    19958771.136        1538.947
      1193.047
 88  3 23  5 49  5.0800000  0  4G 6G 9G11G13
   3517404.706 9  -6857638.750 8  20138466.445    20138468.545       -2597.918
     -2020.741
 -22139140.663 9 -17027825.580 7  18841368.848    18841371.025         264.206
       196.766
  -9986828.563 9  -7924490.264 9  19787858.510    19787860.429       -1362.730
     -1065.683
 -40065575.463 9  20510017.577 8  19950034.533    19950037.316        1527.073
      1195.414
 88  3 23  5 49 35.0800000  0  4G 6G 9G11G13
   3595628.475 9  -6796685.197 8  20153351.541    20153354.120       -2616.921
     -2032.603
 -22146553.886 8 -17033602.110 8  18839957.888    18839960.374         227.126
       178.578
  -9945539.144 9  -7892316.693 8  19795715.353    19795717.900       -1372.403
     -1095.397
 -40111023.215 9  20474603.756 8  19941386.437    19941388.545        1514.426
      1173.697
 88  3 23  5 50  5.0800000  0  4G 6G 9G11G13
   3674347.884 9  -6735345.411 8  20168332.225    20168333.897       -2637.335
     -2066.108
 -22153334.247 9 -17038885.526 8  18838667.980    18838670.052         208.218
       162.540
  -9903936.642 9  -7859899.165 8  19803632.358    19803633.807       -1404.340
     -1084.113
 -40156031.652 9  20439532.261 8  19932821.756    19932823.434        1490.607
      1176.394
 88  3 23  5 50 35.0800000  0  4G 6G 9G11G13
   3753560.720 9  -6673621.154 9  20183405.567    20183407.767       -2633.707
     -2062.722
 -22159480.885 8 -17043675.112 8  18837497.638    18837500.403         192.349
       152.660
  -9862023.998 9  -7827239.953 8  19811607.483    19811610.349       -1405.704
     -1087.207
 -40200601.511 9  20404802.515 8  19924340.538    19924342.401        1483.980
      1158.579
 88  3 23  5 51  5.0800000  0  4G 6G 9G11G13
   3833265.790 9  -6611513.316 8  20198573.264    20198574.933       -2655.229
     -2066.375
 -22164992.139 9 -17047969.600 7  18836449.339    18836450.332         170.412
       146.919
  -9819802.786 9  -7794340.302 8  19819641.363    19819643.284       -1422.633
     -1105.345
 -40244732.695 9  20370414.599 8  19915942.802    19915944.428        1476.731
      1146.406
 88  3 23  5 51 35.0800000  0  4G 6G 9G11G13
   3913461.069 9  -6549023.504 8  20213833.522    20213835.532       -2693.993
     -2093.318
 -22169867.006 9 -17051768.205 7  18835522.550    18835523.235         149.583
       121.088
  -9777275.115 9  -7761201.860 9  19827734.771    19827737.150       -1416.955
     -1095.360
 -40288424.608 9  20336368.960 7  19907628.229    19907629.790        1448.039
      1153.558
 88  3 23  5 52  5.0800000  0  4G 6G 9G11G13
   3994145.042 9  -6486152.887 8  20229187.110    20229188.983       -2699.750
     -2105.516
 -22174104.007 8 -17055069.779 8  18834715.146    18834717.494         134.065
        90.199
  -9734443.145 9  -7727826.299 9  19835885.583    19835888.304       -1425.791
     -1112.547
 -40331678.326 9  20302664.769 8  19899397.837    19899400.269        1427.450
      1124.154
 88  3 23  5 52 35.0800000  0  4G 6G 9G11G13
   4075315.676 9  -6422903.060 8  20244633.277    20244636.241       -2710.723
     -2113.364
 -22177702.263 8 -17057873.613 8  18834030.092    18834033.752         100.262
        78.927
  -9691309.077 9  -7694215.331 8  19844094.144    19844095.920       -1441.006
     -1128.821
 -40374493.857 9  20269302.029 8  19891248.692    19891251.772        1434.092
      1119.190
 88  3 23  5 53  5.0800000  0  4G 6G 9G11G13
   4156971.093 8  -6359275.487 8  20260172.219    20260174.011       -2728.617
     -2116.309
 -22180660.766 8 -17060178.950 8  18833467.725    18833469.963          84.114
        80.711
  -9647875.005 9  -7660370.604 8  19852359.139    19852360.889       -1454.523
     -1124.422
 -40416871.723 9  20236280.347 7  19883185.025    19883187.433        1402.689
      1109.185
 88  3 23  5 53 35.0800000  0  4G 6G 9G11G13
   4239109.373 9  -6295271.655 9  20275803.052    20275803.542       -2746.033
     -2131.440
 -22182978.453 9 -17061984.944 8  18833026.928    18833029.486          66.123
        52.712
  -9604143.221 9  -7626293.883 8  19860680.776    19860682.608       -1457.936
     -1141.130
 -40458811.887 9  20203599.701 8  19875204.345    19875206.054        1396.206
      1093.744
 88  3 23  5 54  5.0800000  0  4G 6G 9G11G13
   4321728.612 9  -6230893.059 8  20291524.710    20291526.408       -2770.036
     -2153.604
 -22184654.237 8 -17063290.757 8  18832707.592    18832709.806          66.905
        52.053
  -9560115.900 9  -7591986.880 9  19869059.186    19869060.846       -1463.932
     -1153.608
 -40500314.718 9  20171259.850 8  19867306.957    19867308.932        1374.197
      1083.572
 88  3 23  5 54 35.0800000  0  4G 6G 9G11G13
   4404826.877 9  -6166141.179 8  20307337.593    20307339.558       -2775.020
     -2170.164
 -22185687.225 8 -17064095.693 7  18832510.848    18832512.595          33.094
         4.449
  -9515795.316 9  -7557451.364 8  19877492.426    19877494.903       -1477.696
     -1154.801
 -40541380.249 9  20139260.752 8  19859491.531    19859494.893        1364.428
      1074.556
 88  3 23  5 55  5.0800000  0  4G 6G 9G11G13
   4488402.464 9  -6101017.370 9  20323241.027    20323243.446       -2792.069
     -2177.683
 -22186076.079 8 -17064398.711 8  18832436.783    18832438.925           4.872
       -13.378
  -9471183.384 9  -7522688.820 9  19885982.554    19885984.331       -1490.503
     -1158.249
 -40582008.759 9  20107602.187 9  19851760.623    19851763.656        1356.199
      1035.459
 88  3 23  5 55 35.0800000  0  4G 6G 9G11G13
   4572453.290 9  -6035523.236 7  20339236.042    20339237.772       -2813.568
     -2192.161
 -22185820.205 8 -17064199.328 7  18832485.329    18832487.701         -18.995
       -17.206
  -9426282.532 9  -7487701.132 8  19894527.181    19894528.828       -1496.539
     -1168.900
 -40622200.881 9  20076283.666 8  19844112.603    19844114.902        1338.878
      1031.948
 88  3 23  5 56  5.0800000  0  4G 6G 9G11G13
   4656977.205 9  -5969660.456 7  20355320.460    20355321.680       -2830.211
     -2209.131
 -22184918.742 9 -17063496.904 7  18832657.948    18832659.884         -54.202
       -28.770
  -9381094.855 9  -7452489.952 8  19903125.661    19903127.422       -1510.391
     -1186.031
 -40661957.291 9  20045304.659 8  19836546.446    19836549.384        1327.013
      1025.964
 88  3 23  5 56 35.0800000  0  4G 6G 9G11G13
   4741972.700 9  -5903430.232 8  20371495.287    20371496.070       -2828.959
     -2202.973
 -22183370.348 8 -17062290.370 8  18832952.658    18832954.316         -65.071
       -39.731
  -9335622.232 9  -7417056.735 9  19911778.227    19911781.147       -1507.879
     -1187.280
 -40701277.690 9  20014665.389 8  19829065.100    19829067.805        1319.150
      1018.315
 88  3 23  5 57  5.0800000  0  4G 6G 9G11G13
   4827437.490 9  -5836834.305 9  20387758.286    20387760.023       -2862.738
     -2225.436
 -22181174.378 8 -17060579.226 8  18833370.043    18833370.625         -80.700
       -68.662
  -9289867.294 9  -7381403.553 9  19920485.595    19920488.401       -1528.684
     -1200.006
 -40740162.612 9  19984365.470 8  19821664.717    19821666.420        1286.599
      1013.754
 88  3 23  5 57 35.0800000  0  4G 6G 9G11G13
   4913369.611 9  -5769874.237 8  20404110.354    20404112.800       -2870.457
     -2251.310
 -22178330.020 8 -17058362.851 8  18833911.410    18833913.495        -102.032
       -91.970
  -9243832.133 9  -7345532.001 8  19929244.624    19929247.715       -1532.145
     -1206.506
 -40778613.022 9  19954404.113 8  19814347.794    19814350.752        1263.840
       994.174
 88  3 23  5 58  5.0800000  0  4G 6G 9G11G13
   4999766.999 9  -5702551.620 8  20420551.050    20420553.403       -2889.723
     -2246.650
 -22174836.573 8 -17055640.694 7  18834575.606    18834577.103        -121.848
      -108.170
  -9197518.513 9  -7309443.471 8  19938058.252    19938060.948       -1555.590
     -1189.374
 -40816628.800 9  19924781.444 7  19807114.116    19807116.976        1265.203
       986.121
 88  3 23  5 58 35.0800000  0  4G 6G 9G11G13
   5086627.579 9  -5634868.058 8  20437079.466    20437082.314       -2916.980
     -2259.624
 -22170693.016 8 -17052411.951 8  18835365.396    18835366.602        -148.395
      -111.450
  -9150928.848 9  -7273139.837 9  19946923.878    19946927.201       -1554.354
     -1206.816
 -40854210.627 9  19895496.930 8  19799962.269    19799964.861        1259.621
       966.455
 88  3 23  5 59  5.0800000  0  4G 6G 9G11G13
   5173949.440 9  -5566825.073 9  20453696.518    20453698.884       -2912.315
     -2273.773
 -22165898.678 8 -17048676.123 7  18836276.488    18836278.475        -172.597
      -126.451
  -9104065.272 9  -7236622.759 9  19955841.676    19955845.214       -1566.810
     -1215.646
 -40891359.042 9  19866550.117 7  19792893.035    19792896.147        1238.840
       950.187
 88  3 23  5 59 35.0800000  0  4G 6G 9G11G13
   5261730.429 9  -5498424.324 8  20470400.789    20470403.027       -2930.241
     -2289.991
 -22160452.706 8 -17044432.512 7  18837313.591    18837314.526        -191.967
      -142.656
  -9056930.021 9  -7199894.007 8  19964811.732    19964813.908       -1551.108
     -1221.785
 -40928074.105 9  19837940.982 7  19785905.945    19785909.043        1211.831
       950.224
 88  3 23  6  0  5.0800000  0  4G 6G 9G11G13
   5349968.598 8  -5429667.346 8  20487192.838    20487195.035       -2946.102
     -2290.357
 -22154354.514 7 -17039680.686 8  18838473.670    18838476.029        -218.912
      -160.620
  -9009525.214 9  -7162955.196 9  19973832.724    19973835.287       -1580.988
     -1237.997
 -40964356.283 9  19809669.183 9  19779002.186    19779004.492        1201.058
       939.139
 88  3 23  6  0 35.0800000  0  4G 6G 9G11G13
   5438661.438 8  -5360556.054 9  20504069.830    20504071.123       -2961.205
     -2311.714
 -22147603.555 8 -17034420.203 7  18839758.756    18839760.249        -230.658
      -177.379
  -8961853.189 9  -7125808.168 8  19982905.374    19982906.749       -1571.554
     -1233.672
 -41000206.438 9  19781734.009 8  19772179.687    19772182.728        1180.619
       927.998
 88  3 23  6  1  5.0800000  0  4G 6G 9G11G13
   5527807.073 9  -5291091.952 8  20521033.670    20521036.036       -2981.428
     -2300.952
 -22140199.118 7 -17028650.519 7  18841166.835    18841168.728        -249.781
      -186.612
  -8913915.983 9  -7088454.501 9  19992026.815    19992029.236       -1598.236
     -1244.379
 -41035624.589 9  19754135.453 8  19765440.229    19765442.372        1179.168
       925.817
 88  3 23  6  1 35.0800000  0  4G 6G 9G11G13
   5617403.123 9  -5221276.875 8  20538083.307    20538085.831       -2987.832
     -2346.841
 -22132140.661 7 -17022371.207 7  18842699.961    18842702.622        -279.796
      -199.941
  -8865716.062 9  -7050896.131 9  20001198.592    20001202.002       -1611.745
     -1245.951
 -41070612.243 9  19726872.355 8  19758782.390    19758785.371        1152.837
       901.757
 88  3 23  6  2  5.0800000  0  4G 6G 9G11G13
   5707447.656 9  -5151112.320 8  20555219.060    20555220.144       -3001.356
     -2351.793
 -22123427.395 8 -17015581.659 7  18844359.378    18844360.048        -290.027
      -219.732
  -8817255.110 9  -7013134.350 8  20010420.201    20010423.951       -1616.577
     -1264.660
 -41105169.449 9  19699944.680 8  19752206.027    19752209.320        1151.577
       899.514
 88  3 23  6  2 35.0800000  0  4G 6G 9G11G13
   5797938.425 9  -5080600.045 9  20572438.959    20572441.620       -3024.825
     -2344.007
 -22114058.902 8 -17008281.530 8  18846141.908    18846143.636        -329.213
      -250.900
  -8768535.501 9  -6975171.018 8  20019691.713    20019693.832       -1623.045
     -1271.117
 -41139296.272 9  19673352.357 8  19745712.323    19745715.710        1134.839
       879.101
 88  3 23  6  3  5.0800000  0  4G 6G 9G11G13
   5888873.170 9  -5009741.808 8  20589741.984    20589745.461       -3050.120
     -2365.103
 -22104034.836 9 -17000470.588 8  18848049.370    18848049.853        -344.109
      -256.263
  -8719559.609 9  -6937007.986 9  20029010.818    20029014.583       -1632.829
     -1273.701
 -41172994.057 9  19647094.368 9  19739299.041    19739301.740        1126.793
       873.472
 88  3 23  6  3 35.0800000  0  4G 6G 9G11G13
   5980249.620 9  -4938539.428 8  20607130.553    20607133.942       -3043.931
     -2382.048
 -22093354.619 9 -16992148.347 8  18850081.354    18850084.107        -381.270
      -283.106
  -8670329.224 9  -6898646.652 9  20038379.064    20038382.840       -1625.469
     -1286.446
 -41206263.160 9  19621170.397 8  19732968.332    19732972.098        1104.233
       861.634
 88  3 23  6  4  5.0800000  0  4G 6G 9G11G13
   6072065.849 9  -4866994.343 7  20624602.570    20624605.773       -3075.733
     -2382.359
 -22082017.572 8 -16983314.303 7  18852240.181    18852240.820        -374.229
      -309.937
  -8620846.330 9  -6860088.561 9  20047795.291    20047799.057       -1656.266
     -1290.597
 -41239103.820 9  19595580.287 8  19726719.862    19726722.467        1096.753
       845.485
 88  3 23  6  4 35.0800000  0  4G 6G 9G11G13
   6164319.668 9  -4795108.273 8  20642157.880    20642159.532       -3087.862
     -2400.528
 -22070023.199 8 -16973968.034 7  18854521.271    18854524.010        -412.545
      -311.360
  -8571113.252 9  -6821335.519 8  20057259.286    20057262.638       -1668.913
     -1287.776
 -41271516.590 9  19570323.611 8  19720551.876    19720554.285        1074.600
       830.901
 88  3 23  6  5  5.0800000  0  4G 6G 9G11G13
   6257008.692 9  -4722883.092 8  20659796.346    20659798.102       -3101.466
     -2412.694
 -22057371.163 8 -16964109.316 8  18856928.550    18856931.789        -443.207
      -341.864
  -8521132.305 9  -6782389.331 9  20066769.900    20066773.439       -1669.097
     -1290.305
 -41303502.424 9  19545399.588 8  19714464.714    19714466.690        1058.373
       836.587
 88  3 23  6  5 35.0800000  0  4G 6G 9G11G13
   6350130.361 9  -4650320.755 8  20677516.459    20677518.902       -3101.977
     -2430.037
 -22044061.274 8 -16953737.975 8  18859461.707    18859463.773        -473.788
      -349.339
  -8470905.543 9  -6743251.597 9  20076328.681    20076332.003       -1664.974
     -1299.234
 -41335062.162 9  19520807.598 8  19708458.771    19708462.197        1055.613
       814.695
 88  3 23  6  6  5.0800000  0  4G 6G 9G11G13
   6443682.715 9  -4577422.837 8  20695319.403    20695321.197       -3124.177
     -2438.376
 -22030093.025 8 -16942853.633 7  18862119.765    18862122.086        -473.605
      -363.861
  -8420434.920 9  -6703923.849 9  20085932.873    20085935.523       -1689.918
     -1312.606
 -41366196.263 9  19496547.279 8  19702533.808    19702537.349        1037.544
       811.607
 88  3 23  6  6 35.0800000  0  4G 6G 9G11G13
   6537663.370 9  -4504191.169 8  20713203.282    20713205.563       -3140.174
     -2442.980
 -22015466.189 8 -16931456.111 8  18864903.485    18864905.331        -483.948
      -396.707
  -8369722.744 9  -6664407.868 9  20095582.827    20095585.334       -1687.661
     -1314.253
 -41396905.159 9  19472618.274 8  19696690.206    19696693.177        1022.919
       795.948
 88  3 23  6  7  5.0800000  0  4G 6G 9G11G13
   6632070.054 9  -4430627.539 8  20731167.844    20731170.435       -3145.612
     -2452.456
 -22000180.330 8 -16919545.065 7  18867812.518    18867814.474        -524.465
      -414.901
  -8318770.917 9  -6624705.147 9  20105279.546    20105281.423       -1703.506
     -1326.115
 -41427189.479 9  19449020.118 8  19690927.634    19690930.307        1011.109
       773.977
 88  3 23  6  7 35.0800000  0  4G 6G 9G11G13
   6726900.328 9  -4356733.847 8  20749213.864    20749215.975       -3164.041
     -2458.297
 -21984235.443 8 -16907120.484 7  18870846.031    18870847.885        -529.489
      -439.476
  -8267581.899 9  -6584817.609 8  20115020.044    20115022.950       -1708.610
     -1336.343
 -41457050.403 9  19425751.886 8  19685245.267    19685247.572        1012.815
       771.112
 88  3 23  6  8  5.0800000  0  4G 6G 9G11G13
   6822151.959 9  -4282511.828 9  20767340.144    20767341.972       -3189.152
     -2472.577
 -21967631.076 8 -16894182.032 8  18874005.752    18874007.795        -558.325
      -435.773
  -8216157.690 9  -6544746.784 9  20124805.936    20124808.113       -1711.480
     -1335.032
 -41486488.916 9  19402812.788 8  19679643.426    19679645.284         970.080
       756.218
 88  3 23  6  8 35.0800000  0  4G 6G 9G11G13
   6917822.345 9  -4207963.502 9  20785544.369    20785547.592       -3210.197
     -2493.063
 -21950367.322 8 -16880729.760 8  18877289.794    18877292.143        -609.584
      -448.169
  -8164500.320 9  -6504494.296 9  20134635.744    20134638.939       -1720.651
     -1337.685
 -41515505.073 9  19380202.809 8  19674122.106    19674124.240         968.948
       758.740
 88  3 23  6  9  5.0800000  0  4G 6G 9G11G13
   7013909.211 9  -4133090.652 8  20803828.742    20803831.775       -3207.757
     -2495.791
 -21932443.940 8 -16866763.504 7  18880701.672    18880703.051        -612.454
      -465.835
  -8112612.191 9  -6464061.976 9  20144509.552    20144512.014       -1734.351
     -1359.228
 -41544100.015 9  19357921.053 8  19668680.373    19668682.776         927.952
       754.192
 88  3 23  6  9 35.0800000  0  4G 6G 9G11G13
   7110410.144 9  -4057895.127 8  20822192.823    20822196.426       -3212.717
     -2509.393
 -21913860.786 8 -16852283.125 8  18884238.195    18884239.873        -631.936
      -489.988
  -8060495.536 9  -6423451.595 9  20154427.223    20154430.058       -1733.968
     -1358.203
 -41572274.412 9  19335966.984 9  19663318.173    19663320.932         944.427
       731.263
 88  3 23  6 10  5.0800000  0  4G 6G 9G11G13
   7207322.600 9  -3982378.933 9  20840635.654    20840638.315       -3245.954
     -2524.002
 -21894617.820 8 -16837288.627 7  18887899.496    18887901.617        -643.594
      -509.835
  -8008152.023 9  -6382664.444 8  20164387.138    20164390.588       -1735.930
     -1355.251
 -41600029.096 8  19314339.967 8  19658037.565    19658041.096         924.547
       727.553
 88  3 23  6 10 35.0800000  0  4G 6G 9G11G13
   7304644.181 9  -3906543.961 9  20859154.792    20859157.527       -3242.684
     -2530.638
 -21874715.089 8 -16821780.023 8  18891687.336    18891688.955        -676.975
      -537.561
  -7955583.847 9  -6341702.229 8  20174391.410    20174393.898       -1742.867
     -1374.968
 -41627365.085 9  19293039.218 8  19652835.324    19652839.493         897.027
       699.734
 88  3 23  6 11  5.0800000  0  4G 6G 9G11G13
   7402372.545 9  -3830391.986 9  20877751.803    20877753.809       -3260.276
     -2544.222
 -21854152.504 8 -16805757.233 7  18895600.755    18895602.533        -711.943
      -551.169
  -7902793.281 9  -6300566.720 9  20184436.829    20184439.608       -1769.677
     -1369.499
 -41654283.099 9  19272064.148 8  19647712.586    19647716.362         892.554
       715.070
 88  3 23  6 11 35.0800000  0  4G 6G 9G11G13
   7500505.149 9  -3753925.043 8  20896426.005    20896427.316       -3281.216
     -2552.045
 -21832929.782 8 -16789220.053 7  18899638.128    18899640.753        -704.925
      -572.370
  -7849782.229 9  -6259259.422 8  20194524.489    20194527.126       -1762.078
     -1364.740
 -41680783.830 9  19251414.245 9  19642669.769    19642672.721         875.927
       670.293
 88  3 23  6 12  5.0800000  0  4G 6G 9G11G13
   7599040.029 9  -3677144.654 9  20915175.762    20915179.870       -3289.135
     -2565.852
 -21811046.947 9 -16772168.505 9  18903803.037    18903804.807        -735.276
      -571.426
  -7796552.826 9  -6217781.966 8  20204653.643    20204656.264       -1787.468
     -1389.123
 -41706868.331 9  19231088.675 8  19637706.642    19637709.598         865.305
       686.778
 88  3 23  6 12 35.0800000  0  4G 6G 9G11G13
   7697974.231 9  -3600053.101 8  20934002.654    20934005.182       -3306.766
     -2565.709
 -21788504.197 8 -16754602.737 8  18908091.679    18908095.081        -774.095
      -589.483
  -7743107.253 9  -6176136.069 8  20214823.008    20214826.246       -1776.623
     -1380.603
 -41732537.166 9  19211087.003 8  19632822.191    19632824.572         854.484
       667.385
 88  3 23  6 13  5.0800000  0  4G 6G 9G11G13
   7797305.312 9  -3522652.273 9  20952905.917    20952907.860       -3322.691
     -2574.762
 -21765301.739 8 -16736522.917 8  18912508.193    18912510.334        -773.903
      -614.239
  -7689447.876 9  -6134323.578 8  20225035.247    20225039.083       -1778.680
     -1400.096
 -41757791.956 8  19191407.951 8  19628015.842    19628019.648         841.191
       661.538
 88  3 23  6 13 35.0800000  0  4G 6G 9G11G13
   7897030.587 9  -3444944.291 8  20971882.463    20971885.026       -3337.324
     -2581.740
 -21741439.845 9 -16717929.237 7  18917048.802    18917050.094        -815.402
      -624.144
  -7635576.738 9  -6092346.075 9  20235285.458    20235289.035       -1784.190
     -1404.079
 -41782632.936 8  19172051.360 8  19623288.570    19623291.211         821.630
       636.615
 88  3 23  6 14  5.0800000  0  4G 6G 9G11G13
   7997147.473 9  -3366931.150 9  20990935.243    20990938.466       -3334.589
     -2608.752
 -21716918.696 9 -16698821.865 7  18921715.391    18921717.716        -847.116
      -633.278
  -7581495.774 9  -6050205.067 8  20245577.533    20245579.828       -1812.787
     -1394.355
 -41807061.330 9  19153016.266 8  19618640.534    19618641.955         806.144
       644.519
 88  3 23  6 14 35.0800000  0  4G 6G 9G11G13
   8097653.848 9  -3288614.519 9  21010059.200    21010062.850       -3349.517
     -2612.430
 -21691738.199 9 -16679200.716 8  18926507.023    18926508.306        -836.741
      -658.947
  -7527207.076 9  -6007902.175 9  20255908.247    20255910.837       -1812.906
     -1418.812
 -41831077.834 9  19134302.116 8  19614070.408    19614072.167         784.772
       617.284
 88  3 23  6 15  5.0800000  0  4G 6G 9G11G13
   8198546.959 9  -3209996.537 9  21029258.128    21029261.356       -3369.221
     -2614.201
 -21665898.463 8 -16659065.857 7  18931422.956    18931426.073        -879.109
      -672.996
  -7472712.206 9  -5965438.649 8  20266278.450    20266280.770       -1814.940
     -1417.470
 -41854683.001 9  19115908.489 8  19609578.555    19609581.418         786.598
       604.595
 88  3 23  6 15 35.0800000  0  4G 6G 9G11G13
   8299824.607 9  -3131078.906 8  21048531.378    21048534.043       -3393.735
     -2635.359
 -21639399.761 8 -16638417.540 7  18936466.762    18936468.504        -877.036
      -684.181
  -7418013.724 9  -5922816.457 9  20276686.342    20276690.638       -1826.383
     -1417.793
 -41877878.095 9  19097834.394 9  19605163.896    19605166.704         778.074
       606.894
 88  3 23  6 16  5.0800000  0  4G 6G 9G11G13
   8401483.796 8  -3051863.988 9  21067876.079    21067878.721       -3392.698
     -2652.739
 -21612242.680 8 -16617256.186 8  18941634.300    18941636.959        -916.285
      -702.332
  -7363113.720 9  -5880037.246 8  20287134.210    20287137.320       -1841.064
     -1420.564
 -41900664.510 9  19080078.762 8  19600827.948    19600829.872         757.277
       591.471
 88  3 23  6 16 35.0800000  0  4G 6G 9G11G13
   8503521.985 9  -2972353.744 9  21087293.548    21087296.767       -3406.884
     -2650.807
 -21584427.287 8 -16595581.871 8  18946927.653    18946929.573        -926.915
      -725.466
  -7308014.172 9  -5837102.542 9  20297619.030    20297622.123       -1836.072
     -1429.195
 -41923042.971 9  19062641.018 9  19596569.365    19596571.734         727.915
       578.143
 88  3 23  6 17  5.0800000  0  4G 6G 9G11G13
   8605936.672 9  -2892550.125 9  21106782.547    21106784.969       -3425.560
     -2660.245
 -21555954.107 9 -16573394.993 6  18952346.141    18952347.967        -948.542
      -757.404
  -7252717.289 8  -5794014.065 9  20308142.139    20308144.730       -1845.162
     -1443.350
 -41945014.324 9  19045520.488 9  19592388.974    19592390.797         724.215
       564.653
 88  3 23  6 17 35.0800000  0  4G 6G 9G11G13
   8708725.151 9  -2812455.210 9  21126343.314    21126345.675       -3429.284
     -2666.969
 -21526823.493 9 -16550695.821 7  18957889.904    18957891.477        -992.114
      -749.792
  -7197225.079 9  -5750773.386 8  20318702.161    20318704.438       -1847.579
     -1441.604
 -41966579.512 9  19028716.463 9  19588285.111    19588288.545         711.400
       562.453
 88  3 23  6 18  5.0800000  0  4G 6G 9G11G13
   8811884.948 9  -2732070.962 9  21145972.891    21145975.609       -3448.582
     -2682.205
 -21497035.639 8 -16527484.521 7  18963557.608    18963560.300       -1012.169
      -797.434
  -7141539.256 9  -5707381.848 9  20329298.989    20329302.226       -1854.668
     -1441.101
 -41987739.837 9  19012227.908 8  19584258.593    19584261.613         715.906
       548.963
 88  3 23  6 18 35.0800000  0  4G 6G 9G11G13
   8915413.308 9  -2651399.562 9  21165673.368    21165677.027       -3454.547
     -2688.071
 -21466591.057 9 -16503761.486 8  18969351.579    18969353.567        -996.196
      -806.680
  -7085662.052 9  -5663841.178 9  20339931.327    20339934.836       -1858.687
     -1442.064
 -42008495.667 9  18996054.546 8  19580308.000    19580310.618         684.622
       540.264
 88  3 23  6 19  5.0800000  0  4G 6G 9G11G13
   9019307.744 9  -2570442.885 9  21185445.213    21185446.806       -3463.598
     -2699.846
 -21435490.261 9 -16479527.100 7  18975268.902    18975271.695       -1040.430
      -818.492
  -7029595.538 9  -5620152.981 8  20350600.729    20350603.337       -1872.060
     -1446.097
 -42028848.843 9  18980194.939 8  19576435.650    19576437.310         680.659
       536.442
 88  3 23  6 19 35.0800000  0  4G 6G 9G11G13
   9123565.525 9  -2489203.079 9  21205285.378    21205286.473       -3485.942
     -2704.537
 -21403733.726 9 -16454781.750 7  18981312.516    18981314.702       -1067.671
      -824.613
  -6973341.639 9  -5576318.778 9  20361305.817    20361308.308       -1872.419
     -1463.595
 -42048799.914 9  18964648.673 9  19572638.874    19572641.902         659.639
       511.773
 88  3 23  6 20  5.0800000  0  4G 6G 9G11G13
   9228184.030 9  -2407682.187 9  21225192.649    21225195.584       -3491.261
     -2723.775
 -21371321.824 9 -16429525.752 7  18987480.697    18987482.528       -1092.846
      -833.859
  -6916902.397 9  -5532340.147 8  20372044.962    20372048.037       -1867.467
     -1473.270
 -42068349.609 9  18949415.150 9  19568918.626    19568921.432         630.835
       481.668
 88  3 23  6 20 35.0800000  0  4G 6G 9G11G13
   9333160.724 8  -2325882.200 9  21245169.439    21245171.655       -3507.991
     -2739.602
 -21338255.229 8 -16403759.588 7  18993772.242    18993774.627       -1109.329
      -870.818
  -6860279.990 9  -5488218.798 9  20382821.182    20382823.347       -1889.803
     -1466.683
 -42087500.140 9  18934492.662 8  19565274.492    19565276.382         643.929
       493.126
 88  3 23  6 21  5.0800000  0  4G 6G 9G11G13
   9438492.777 9  -2243805.303 8  21265212.958    21265215.887       -3517.680
     -2737.209
 -21304534.555 8 -16377483.743 8  19000189.250    19000192.384       -1112.798
      -881.376
  -6803476.410 9  -5443956.256 9  20393629.357    20393632.823       -1896.900
     -1469.013
 -42106251.727 9  18919881.059 8  19561706.827    19561708.886         627.797
       480.810
 88  3 23  6 21 35.0800000  0  4G 6G 9G11G13
   9544177.481 9  -2161453.614 9  21285323.954    21285327.951       -3519.809
     -2754.906
 -21270160.461 9 -16350698.743 8  19006730.768    19006732.875       -1158.538
      -901.893
  -6746493.548 9  -5399554.040 9  20404473.291    20404476.703       -1929.707
     -1476.016
 -42124606.191 9  18905578.893 7  19558213.117    19558215.390         603.308
       489.497
 88  3 23  6 22  5.0800000  0  4G 6G 9G11G13
   9650212.335 9  -2078829.075 9  21305502.254    21305504.118       -3535.048
     -2746.729
 -21235133.266 9 -16323404.833 7  19013395.883    19013398.777       -1185.181
      -922.523
  -6689332.963 9  -5355013.340 9  20415350.054    20415353.604       -1893.288
     -1493.017
 -42142563.515 9  18891586.187 8  19554796.752    19554799.644         595.437
       467.482
 88  3 23  6 22 35.0800000  0  4G 6G 9G11G13
   9756594.449 9  -1995933.949 8  21325745.699    21325748.794       -3541.093
     -2770.235
 -21199454.009 9 -16295602.825 8  19020186.037    19020187.742       -1196.911
      -929.706
  -6631997.075 9  -5310336.021 9  20426261.190    20426264.269       -1915.137
     -1489.363
 -42160125.381 9  18877901.614 8  19551454.436    19551456.760         558.604
       462.697
 88  3 23  6 23  5.0800000  0  4G 6G 9G11G13
   9863321.357 9  -1912770.142 9  21346054.442    21346058.674       -3575.606
     -2773.106
 -21163123.076 9 -16267293.034 8  19027099.882    19027102.306       -1230.148
      -937.604
  -6574487.553 9  -5265523.426 9  20437205.032    20437207.353       -1917.187
     -1492.278
 -42177293.088 9  18864524.193 7  19548187.174    19548189.584         576.929
       450.922
 88  3 23  6 23 35.0800000  0  4G 6G 9G11G13
   9970390.057 9  -1829339.997 9  21366429.588    21366432.582       -3576.435
     -2777.363
 -21126141.523 9 -16238476.244 8  19034136.170    19034139.060       -1258.912
      -961.950
  -6516806.677 9  -5220577.284 8  20448181.470    20448184.321       -1925.305
     -1495.279
 -42194067.447 9  18851453.270 9  19544995.159    19544998.019         548.062
       445.702
 88  3 23  6 24  5.0800000  0  4G 6G 9G11G13
  10077797.772 9  -1745645.676 9  21386868.283    21386870.796       -3587.097
     -2794.656
 -21088509.922 8 -16209152.936 7  19041297.655    19041299.232       -1246.926
      -980.821
  -6458956.384 9  -5175499.152 9  20459189.304    20459192.997       -1924.172
     -1503.574
 -42210450.095 9  18838687.582 8  19541877.332    19541879.888         544.904
       419.517
 88  3 23  6 24 35.0800000  0  4G 6G 9G11G13
  10185542.043 9  -1661689.128 9  21407372.404    21407374.237       -3591.507
     -2802.535
 -21050228.888 8 -16179323.589 7  19048582.307    19048584.156       -1274.852
      -996.355
  -6400938.607 9  -5130290.495 8  20470230.531    20470232.837       -1937.769
     -1514.448
 -42226441.392 9  18826226.854 8  19538835.179    19538837.072         529.824
       400.112
 88  3 23  6 25  5.0800000  0  4G 6G 9G11G13
  10293619.705 9  -1577472.818 9  21427939.761    21427941.245       -3602.176
     -2804.299
 -21011299.548 8 -16148989.050 7  19055989.059    19055992.071       -1318.711
     -1006.565
  -6342755.402 9  -5084952.946 9  20481301.922    20481304.844       -1944.802
     -1509.900
 -42242042.756 9  18814069.949 8  19535866.403    19535868.409         511.531
       402.386
 88  3 23  6 25 35.0800000  0  4G 6G 9G11G13
  10402028.322 9  -1492998.589 9  21448567.135    21448571.205       -3612.152
     -2813.030
 -20971722.865 8 -16118150.096 8  19063520.761    19063523.092       -1311.614
     -1008.292
  -6284408.753 9  -5039488.033 9  20492404.989    20492407.270       -1957.736
     -1502.220
 -42257255.999 9  18802215.481 8  19532971.167    19532973.177         507.608
       383.440
 88  3 23  6 26  5.0800000  0  4G 6G 9G11G13
  10510765.100 9  -1408268.664 8  21469259.264    21469262.912       -3624.544
     -2818.566
 -20931499.286 9 -16086807.065 7  19071175.420    19071177.779       -1353.862
     -1044.972
  -6225900.348 9  -4993897.066 9  20503538.431    20503542.048       -1932.059
     -1535.320
 -42272081.868 9  18790662.869 8  19530150.091    19530152.115         489.968
       383.459
 88  3 23  6 26 35.0800000  0  4G 6G 9G11G13
  10619827.406 9  -1323285.063 9  21490013.443    21490015.996       -3635.278
     -2830.565
 -20890630.035 9 -16054960.883 6  19078951.947    19078955.979       -1367.538
     -1064.887
  -6167231.889 8  -4948181.399 9  20514702.307    20514705.888       -1961.747
     -1522.408
 -42286521.865 9  18779410.927 8  19527401.993    19527404.806         475.838
       368.863
 88  3 23  6 27  5.0800000  0  4G 6G 9G11G13
  10729212.359 9  -1238050.067 9  21510828.465    21510831.848       -3643.204
     -2837.388
 -20849115.765 9 -16022612.121 7  19086853.305    19086854.876       -1398.646
     -1084.075
  -6108405.244 9  -4902342.462 9  20525897.362    20525900.139       -1961.078
     -1528.001
 -42300577.007 9  18768458.881 8  19524727.119    19524729.212         466.285
       351.843
 88  3 23  6 27 35.0800000  0  4G 6G 9G11G13
  10838917.247 9  -1152565.768 9  21531704.614    21531709.354       -3647.758
     -2856.346
 -20806957.364 8 -15989761.433 7  19094876.071    19094877.491       -1426.565
     -1103.922
  -6049422.639 9  -4856381.995 9  20537121.450    20537124.829       -1968.829
     -1539.707
 -42314248.353 9  18757805.895 7  19522125.400    19522127.520         452.465
       356.789
 88  3 23  6 28  5.0800000  0  4G 6G 9G11G13
  10948939.312 9  -1066834.291 9  21552642.113    21552644.543       -3658.930
     -2870.122
 -20764155.905 7 -15956409.673 7  19103019.789    19103022.131       -1430.217
     -1121.184
  -5990285.723 9  -4810301.289 8  20548375.197    20548378.072       -1956.149
     -1543.846
 -42327537.030 9  18747451.087 8  19519596.283    19519600.390         436.915
       333.053
 88  3 23  6 28 35.0800000  0  4G 6G 9G11G13
  11059275.464 9   -980858.067 8  21573637.498    21573640.799       -3681.441
     -2866.854
 -20720712.704 9 -15922557.831 7  19111286.233    19111289.098       -1452.074
     -1134.413
  -5930996.805 9  -4764102.146 9  20559657.093    20559660.003       -1979.594
     -1525.366
 -42340444.669 9  18737393.193 8  19517140.404    19517143.954         423.829
       348.040
 88  3 23  6 29  5.0800000  0  4G 6G 9G11G13
  11169922.919 9   -894639.299 8  21594694.296    21594695.107       -3677.981
     -2882.916
 -20676628.594 9 -15888206.598 7  19119676.410    19119677.731       -1470.711
     -1144.094
  -5871557.489 9  -4717785.795 9  20570967.957    20570971.794       -1989.658
     -1545.151
 -42352972.151 9  18727631.527 8  19514757.612    19514759.425         407.155
       301.132
 88  3 23  6 29 35.0800000  0  4G 6G 9G11G13
  11280878.952 9   -808180.072 9  21615807.312    21615810.478       -3711.226
     -2885.253
 -20631904.845 9 -15853356.931 7  19128186.827    19128188.399       -1508.485
     -1165.209
  -5811969.830 9  -4671353.860 9  20582307.979    20582310.056       -1988.055
     -1547.176
 -42365120.900 9  18718164.998 9  19512444.534    19512446.573         397.243
       294.919
 88  3 23  6 30  5.0800000  0  4G 6G 9G11G13
  11392140.753 8   -721482.595 9  21636978.806    21636983.518       -3736.496
     -2902.912
 -20586542.348 9 -15818009.552 8  19136818.018    19136820.744       -1525.048
     -1173.865
  -5752235.388 9  -4624807.547 9  20593674.955    20593677.778       -2005.598
     -1553.309
 -42376892.317 9  18708992.451 7  19510205.172    19510207.556         383.782
       297.789
 88  3 23  6 30 35.0800000  0  4G 6G 9G11G13
  11503705.700 9   -634548.885 9  21658208.899    21658213.372       -3717.302
     -2904.683
 -20540542.041 8 -15782165.159 7  19145572.139    19145574.096       -1544.154
     -1202.622
  -5692356.128 9  -4578148.398 9  20605069.065    20605072.175       -2001.827
     -1547.934
 -42388286.867 9  18700113.594 8  19508036.613    19508038.724         374.659
       302.779
 88  3 23  6 31  5.0800000  0  4G 6G 9G11G13
  11615570.526 9   -547381.537 9  21679497.057    21679499.900       -3726.122
     -2900.961
 -20493905.553 9 -15745825.045 7  19154447.247    19154448.103       -1567.886
     -1210.072
  -5632334.165 9  -4531378.037 9  20616491.251    20616494.359       -1989.929
     -1549.680
 -42399306.646 9  18691526.763 8  19505938.965    19505941.631         367.714
       299.852
 88  3 23  6 31 35.0800000  0  4G 6G 9G11G13
  11727732.298 9   -459982.761 9  21700842.616    21700845.309       -3740.117
     -2905.982
 -20446634.095 8 -15708990.163 6  19163442.947    19163444.098       -1595.007
     -1222.537
  -5572171.645 9  -4484498.152 9  20627939.248    20627942.428       -2002.201
     -1556.193
 -42409953.434 9  18683230.578 9  19503913.502    19503915.857         346.111
       283.498
 88  3 23  6 32  5.0800000  0  4G 6G 9G11G13
  11840188.246 9   -372354.771 9  21722241.967    21722245.160       -3758.673
     -2911.152
 -20398728.999 9 -15671661.538 7  19172558.759    19172559.560       -1610.094
     -1239.004
  -5511870.091 9  -4437509.932 9  20639414.635    20639417.283       -2011.284
     -1571.336
 -42420228.338 9  18675224.173 8  19501958.011    19501960.779         333.823
       259.680
 88  3 23  6 32 35.0800000  0  4G 6G 9G11G13
  11952935.765 9   -284499.573 9  21743696.430    21743697.637       -3763.442
     -2930.526
 -20350191.034 8 -15633839.754 7  19181795.206    19181796.462       -1624.568
     -1259.789
  -5451431.019 9  -4390414.560 9  20650915.229    20650919.083       -2022.384
     -1558.684
 -42430132.153 9  18667506.917 9  19500073.884    19500077.313         330.561
       253.957
 88  3 23  6 33  5.0800000  0  4G 6G 9G11G13
  12065972.098 9   -196419.371 8  21765207.183    21765209.420       -3786.440
     -2931.465
 -20301021.636 8 -15595525.942 7  19191151.197    19191154.324       -1645.540
     -1255.905
  -5390856.301 9  -4343213.483 9  20662443.328    20662445.091       -2028.517
     -1572.498
 -42439665.667 9  18660078.220 8  19498259.473    19498262.689         317.220
       230.289
 88  3 23  6 33 35.0800000  0  4G 6G 9G11G13
  12179293.990 9   -108116.640 9  21786772.574    21786773.541       -3780.260
     -2955.947
 -20251222.214 9 -15556721.213 7  19200628.707    19200629.785       -1681.832
     -1303.136
  -5330148.039 9  -4295908.353 9  20673995.115    20673998.123       -2019.538
     -1574.703
 -42448831.167 9  18652936.271 8  19496515.664    19496518.415         302.021
       238.410
 88  3 23  6 34  5.0800000  0  4G 6G 9G11G13
  12292898.695 9    -19593.476 9  21808388.086    21808391.912       -3812.675
     -2952.989
 -20200794.046 9 -15517426.543 8  19210224.051    19210225.747       -1683.275
     -1327.165
  -5269307.717 9  -4248500.307 9  20685572.379    20685575.601       -2027.584
     -1576.679
 -42457629.999 9  18646080.054 8  19494841.342    19494843.612         294.015
       225.902
 88  3 23  6 34 35.0800000  0  4G 6G 9G11G13
  12406783.180 8     69147.674 8  21830058.697    21830064.018       -3794.637
     -2952.616
 -20149738.676 8 -15477643.159 7  19219939.895    19219942.690       -1708.737
     -1329.160
  -5208337.358 9  -4200990.947 9  20697175.170    20697178.178       -2035.032
     -1579.780
 -42466063.422 9  18639508.567 9  19493236.006    19493238.784         264.414
       209.349
 88  3 23  6 35  5.0800000  0  4G 6G 9G11G13
  12520944.674 8    158104.663 9  21851782.767    21851788.323       -3812.508
     -2963.658
 -20098057.299 9 -15437371.955 8  19229774.905    19229776.490       -1732.788
     -1348.136
  -5147238.792 8  -4153381.694 9  20708801.333    20708803.753       -2035.574
     -1590.611
 -42474132.592 9  18633220.905 9  19491700.705    19491703.065         258.656
       205.981
 88  3 23  6 35 35.0800000  0  4G 6G 9G11G13
  12635380.482 9    247275.422 8  21873560.615    21873563.861       -3811.431
     -2974.296
 -20045751.408 9 -15396614.135 8  19239727.759    19239729.517       -1750.068
     -1358.277
  -5086013.588 9  -4105673.742 9  20720452.115    20720455.065       -2047.783
     -1592.587
 -42481838.920 9  18627215.984 8  19490233.887    19490235.649         255.602
       200.755
 88  3 23  6 36  5.0800000  0  4G 6G 9G11G13
  12750087.399 8    336657.407 8  21895389.318    21895391.596       -3808.106
     -2977.428
 -19992822.415 9 -15355370.778 7  19249799.731    19249801.833       -1777.955
     -1371.805
  -5024663.834 9  -4057868.747 9  20732127.391    20732129.854       -2054.091
     -1599.459
 -42489183.835 9  18621492.680 8  19488836.323    19488838.965         244.382
       185.649
 88  3 23  6 36 35.0800000  0  4G 6G 9G11G13
  12865062.575 9    426248.425 9  21917267.752    21917272.053       -3830.187
     -2992.005
 -19939271.946 9 -15313643.159 7  19259990.363    19259991.239       -1792.276
     -1403.464
  -4963191.212 9  -4009968.005 9  20743824.701    20743827.594       -2058.102
     -1598.055
 -42496168.421 9  18616050.155 8  19487507.449    19487508.592         228.354
       172.532
 88  3 23  6 37  5.0800000  0  4G 6G 9G11G13
  12980303.070 9    516046.201 9  21939198.167    21939201.651       -3841.909
     -2992.291
 -19885101.387 9 -15271432.342 7  19270298.584    19270301.490       -1801.814
     -1419.800
  -4901597.480 9  -3961972.894 9  20755544.480    20755547.616       -2049.776
     -1595.215
 -42502794.256 9  18610887.169 9  19486245.735    19486248.985         226.464
       168.288
 88  3 23  6 37 35.0800000  0  4G 6G 9G11G13
  13095805.880 9    606048.376 9  21961177.798    21961180.791       -3835.618
     -2992.919
 -19830312.310 9 -15228739.580 7  19280724.985    19280725.995       -1826.239
     -1439.112
  -4839884.175 9  -3913884.620 9  20767288.317    20767291.638       -2054.011
     -1610.470
 -42509062.842 9  18606002.571 9  19485053.633    19485056.968         214.024
       157.215
 88  3 23  6 38  5.0800000  0  4G 6G 9G11G13
  13211568.120 9    696252.710 9  21983206.157    21983208.566       -3866.893
     -3012.759
 -19774906.432 9 -15185566.180 7  19291267.640    19291270.254       -1849.357
     -1444.407
  -4778053.534 9  -3865704.907 8  20779054.911    20779057.003       -2066.228
     -1602.715
 -42514975.883 9  18601395.011 9  19483928.088    19483931.300         199.383
       141.656
 88  3 23  6 38 35.0800000  0  4G 6G 9G11G13
  13327586.731 8    786656.764 9  22005283.255    22005287.642       -3858.576
     -3014.680
 -19718885.360 9 -15141913.403 9  19301928.614    19301930.850       -1882.610
     -1468.528
  -4716107.228 9  -3817435.061 9  20790843.226    20790846.464       -2074.066
     -1604.082
 -42520534.660 9  18597063.506 8  19482869.637    19482872.605         173.586
       135.852
 88  3 23  6 39  5.0800000  0  4G 6G 9G11G13
  13443859.090 9    877258.588 9  22027409.016    22027412.836       -3873.576
     -3014.182
 -19662250.433 9 -15097782.319 7  19312705.928    19312707.994       -1900.768
     -1465.813
  -4654046.325 9  -3769075.924 9  20802653.171    20802655.293       -2089.218
     -1616.367
 -42525740.121 9  18593007.313 8  19481879.484    19481882.977         164.918
       119.932
 88  3 23  6 39 35.0800000  0  4G 6G 9G11G13
  13560382.113 8    968055.731 9  22049582.821    22049586.386       -3890.090
     -3032.644
 -19605003.375 9 -15053174.219 8  19323600.466    19323601.052       -1937.234
     -1493.589
  -4591872.572 9  -3720628.860 9  20814484.643    20814487.277       -2082.455
     -1628.130
 -42530594.143 9  18589224.973 8  19480956.289    19480959.226         169.327
       121.132
 88  3 23  6 40  5.0800000  0  4G 6G 9G11G13
  13677152.793 8   1059045.874 9  22071805.680    22071807.817       -3875.513
     -3031.469
 -19547145.712 9 -15008090.361 8  19334609.934    19334611.984       -1930.233
     -1506.725
  -4529587.955 8  -3672095.408 9  20826336.518    20826338.938       -2078.699
     -1618.324
 -42535097.933 8  18585715.540 8  19480099.598    19480102.116         141.050
       116.179
 88  3 23  6 40 35.0800000  0  4G 6G 9G11G13
  13794168.352 9   1150226.773 8  22094072.299    22094071.889       -3908.846
     -3035.545
 -19488679.219 8 -14962532.067 8  19345735.107    19345737.531       -1965.966
     -1515.759
  -4467194.333 9  -3623477.015 9  20838210.343    20838212.632       -2065.478
     -1622.978
 -42539252.980 9  18582477.841 8  19479307.731    19479311.972         142.023
       109.816
 88  3 23  6 41  5.0800000  0  4G 6G 9G11G13
  13911425.864 8   1241596.185 8  22116384.810    22116387.914       -3905.832
     -3037.770
 -19429605.340 9 -14916500.486 8  19356977.023    19356979.947       -1974.809
     -1523.986
  -4404693.108 9  -3574774.783 9  20850104.018    20850106.341       -2090.709
     -1616.491
 -42543060.985 9  18579510.593 9  19478584.067    19478586.708         109.847
        93.760
 88  3 23  6 41 35.0800000  0  4G 6G 9G11G13
  14028922.105 7   1333151.739 8  22138740.030    22138745.567       -3910.983
     -3043.176
 -19369926.425 9 -14869997.450 8  19368333.160    19368335.774       -1991.189
     -1557.031
  -4342085.829 9  -3525989.883 9  20862017.649    20862019.441       -2088.572
     -1623.538
 -42546523.145 9  18576812.801 9  19477923.941    19477927.241         120.604
        92.790
 88  3 23  6 42  5.0800000  0  4G 6G 9G11G13
  14146654.078 9   1424890.918 8  22161145.465    22161148.767       -3925.672
     -3046.221
 -19309643.966 8 -14823024.133 8  19379805.737    19379806.940       -2003.884
     -1574.511
  -4279374.577 9  -3477123.981 9  20873951.110    20873953.173       -2084.393
     -1620.232
 -42549641.019 9  18574383.301 8  19477331.851    19477334.676          90.405
        71.906
 88  3 23  6 42 35.0800000  0  4G 6G 9G11G13
  14264618.619 9   1516811.367 8  22183595.363    22183598.476       -3922.307
     -3064.595
 -19248760.013 9 -14775582.099 7  19391391.156    19391392.897       -2043.501
     -1593.662
  -4216561.286 9  -3428178.569 9  20885903.888    20885906.565       -2092.399
     -1637.264
 -42552416.264 9  18572220.781 9  19476803.426    19476805.495          76.538
        72.745
 88  3 23  6 43  5.0800000  0  4G 6G 9G11G13
  14382813.019 9   1608910.903 9  22206087.205    22206087.726       -3930.792
     -3082.149
 -19187276.144 9 -14727672.620 8  19403089.983    19403093.691       -2053.971
     -1610.315
  -4153647.366 9  -3379154.740 9  20897875.750    20897879.074       -2110.094
     -1633.287
 -42554850.310 9  18570324.132 9  19476340.425    19476342.559          66.865
        52.960
 88  3 23  6 43 35.0800000  0  4G 6G 9G11G13
  14501234.346 9   1701187.217 9  22228619.245    22228625.328       -3942.346
     -3075.575
 -19125194.273 9 -14679297.140 8  19414904.634    19414905.246       -2076.403
     -1606.151
  -4090633.908 9  -3330053.360 9  20909866.930    20909870.009       -2112.176
     -1641.657
 -42556944.712 9  18568692.139 9  19475941.743    19475944.866          61.897
        50.916
 88  3 23  6 44  5.0800000  0  4G 6G 9G11G13
  14619879.555 9   1793638.085 9  22251199.066    22251202.390       -3964.268
     -3080.943
 -19062516.224 8 -14630457.128 7  19426832.092    19426832.481       -2091.985
     -1639.091
  -4027522.720 8  -3280875.805 9  20921876.543    20921879.693       -2105.342
     -1637.991
 -42558700.850 9  18567323.725 8  19475607.636    19475610.226          48.301
        42.173
 88  3 23  6 44 35.0800000  0  4G 6G 9G11G13
  14738745.670 9   1886260.940 8  22273819.974    22273820.936       -3973.151
     -3065.825
 -18999243.726 9 -14581153.909 8  19438872.300    19438875.492       -2111.179
     -1660.938
  -3964315.723 9  -3231623.618 8  20933904.584    20933907.531       -2096.873
     -1650.878
 -42560120.032 9  18566217.892 8  19475337.892    19475340.856          34.330
        31.665
 88  3 23  6 45  5.0800000  0  4G 6G 9G11G13
  14857829.608 9   1979053.603 9  22296478.555    22296483.214       -3962.482
     -3096.074
 -18935378.982 9 -14531389.186 7  19451025.055    19451027.369       -2130.939
     -1665.182
  -3901014.683 8  -3182298.138 9  20945950.309    20945952.560       -2121.633
     -1641.700
 -42561203.862 9  18565373.349 8  19475131.257    19475133.128          38.604
        12.894
 88  3 23  6 45 35.0800000  0  4G 6G 9G11G13
  14977128.617 8   2072013.851 9  22319180.078    22319184.760       -3973.678
     -3105.469
 -18870923.677 8 -14481164.282 7  19463290.813    19463292.164       -2157.949
     -1665.623
  -3837620.682 9  -3132900.229 9  20958013.118    20958016.969       -2112.774
     -1646.988
 -42561953.469 9  18564789.252 9  19474988.641    19474991.065          16.180
        13.471
 88  3 23  6 46  5.0800000  0  4G 6G 9G11G13
  15096639.508 9   2165139.200 9  22341923.764    22341927.811       -3987.146
     -3091.811
 -18805880.010 8 -14430480.942 8  19475667.521    19475671.197       -2181.624
     -1688.335
  -3774135.674 9  -3083431.405 9  20970095.048    20970097.811       -2111.059
     -1647.709
 -42562370.258 9  18564464.484 8  19474909.255    19474911.763           5.462
         7.985
 88  3 23  6 46 35.0800000  0  4G 6G 9G11G13
  15216359.326 9   2258427.265 9  22364705.927    22364708.392       -3993.151
     -3103.885
 -18740249.949 9 -14379340.640 8  19488156.713    19488159.099       -2187.366
     -1709.437
  -3710561.186 9  -3033892.857 9  20982192.253    20982195.332       -2122.598
     -1648.281
 -42562456.763 9  18564397.085 8  19474892.673    19474894.783          -7.958
         5.238
 88  3 23  6 47  5.0800000  0  4G 6G 9G11G13
  15336285.374 8   2351876.169 8  22387526.260    22387530.507       -4011.444
     -3110.459
 -18674035.049 8 -14327744.636 8  19500757.688    19500759.384       -2220.101
     -1710.133
  -3646898.198 9  -2984285.351 9  20994306.488    20994310.525       -2120.748
     -1655.924
 -42562213.398 9  18564586.726 9  19474938.352    19474942.541         -24.138
       -10.110
 88  3 23  6 47 35.0800000  0  4G 6G 9G11G13
  15456414.273 9   2445483.104 8  22410386.652    22410387.970       -3999.347
     -3119.842
 -18607237.840 9 -14275694.871 8  19513468.079    19513471.080       -2225.842
     -1742.519
  -3583148.989 9  -2934610.662 9  21006436.833    21006441.200       -2111.713
     -1641.247
 -42561642.455 9  18565031.624 8  19475048.334    19475051.738          -5.630
        -9.687
 88  3 23  6 48  5.0800000  0  4G 6G 9G11G13
  15576743.395 9   2539246.018 9  22433284.107    22433287.876       -4012.497
     -3127.385
 -18539860.054 9 -14223192.701 7  19526290.035    19526292.856       -2255.331
     -1758.992
  -3519314.651 9  -2884869.631 9  21018585.495    21018588.015       -2112.806
     -1651.350
 -42560745.084 9  18565730.873 8  19475219.090    19475221.497         -36.786
       -24.408
 88  3 23  6 48 35.0800000  0  4G 6G 9G11G13
  15697269.295 9   2633162.324 7  22456218.657    22456221.431       -4016.731
     -3137.352
 -18471904.040 9 -14170239.991 8  19539222.053    19539224.202       -2270.275
     -1776.863
  -3455396.718 9  -2835063.457 9  21030747.662    21030751.687       -2139.001
     -1653.625
 -42559523.093 9  18566683.104 8  19475450.311    19475453.041         -51.036
       -18.877
 88  3 23  6 49  5.0800000  0  4G 6G 9G11G13
  15817988.982 9   2727229.622 9  22479191.844    22479195.273       -4023.214
     -3132.536
 -18403372.123 9 -14116838.502 8  19552263.631    19552265.970       -2302.268
     -1780.989
  -3391397.203 9  -2785193.698 9  21042926.946    21042930.050       -2120.565
     -1670.557
 -42557978.386 9  18567886.770 9  19475744.875    19475747.468         -63.380
       -46.373
 88  3 23  6 49 35.0800000  0  4G 6G 9G11G13
  15938899.551 9   2821445.649 9  22502200.797    22502202.710       -4030.591
     -3138.508
 -18334266.048 9 -14062989.634 7  19565412.590    19565415.133       -2305.602
     -1797.076
  -3327317.388 9  -2735261.389 9  21055120.878    21055124.856       -2111.259
     -1662.678
 -42556111.982 9  18569341.111 8  19476099.436    19476103.043         -73.707
       -54.228
 88  3 23  6 50  5.0800000  0  3G 3G 9G11
 -79697166.690 9 101005253.254 7  22166351.477    22166357.442        2277.373
      1839.261
 -18264587.934 8 -14008695.013 8  19578672.087    19578675.682       -2332.475
     -1815.599
  -3263158.389 8  -2685267.370 9  21067330.503    21067333.683       -2157.765
     -1671.651
 88  3 23  6 50 35.0800000  0  3G 3G 9G11
 -79764803.121 9 100952550.080 8  22153480.621    22153483.588        2255.754
      1758.874
 -18194340.065 9 -13953956.452 8  19592039.336    19592042.131       -2350.609
     -1823.329
  -3198921.821 9  -2635212.916 9  21079553.334    21079557.086       -2149.097
     -1665.791
 88  3 23  6 51  5.0800000  0  4G 3G 9G11G13
 -79832212.577 8 100900023.261 8  22140652.410    22140656.527        2243.904
      1744.458
 -18123524.473 9 -13898775.496 8  19605516.496    19605518.560       -2364.676
     -1844.301
  -3134609.524 9  -2585099.454 9  21091791.478    21091795.043       -2147.255
     -1675.957
 -80020374.427 9 101457635.143 8  19477529.970    19477533.722        -108.714
       -56.316
 88  3 23  6 51 35.0800000  0  4G 3G 9G11G13
 -79899395.084 8 100847673.267 9  22127868.465    22127871.800        2241.855
      1739.568
 -18052143.763 9 -13843154.183 7  19619099.622    19619101.736       -2383.918
     -1865.397
  -3070222.855 9  -2534928.024 9  21104045.155    21104047.582       -2140.166
     -1676.056
 -80017236.256 9 101460080.972 9  19478127.495    19478129.997        -103.826
       -88.099
 88  3 23  6 52  5.0800000  0  4G 3G 9G11G13
 -79966350.681 8 100795500.092 9  22115128.275    22115130.169        2202.812
      1731.024
 -17980199.852 9 -13787094.005 8  19632790.567    19632792.616       -2396.286
     -1871.405
  -3005763.485 8  -2484699.943 9  21116310.911    21116314.141       -2154.009
     -1673.670
 -80013783.766 9 101462771.230 9  19478783.571    19478786.545        -101.019
       -98.774
 88  3 23  6 52 35.0800000  0  4G 3G 9G11G13
 -80033079.541 9 100743503.577 8  22102430.395    22102432.527        2217.047
      1727.221
 -17907695.088 9 -13730596.797 7  19646586.789    19646589.211       -2424.420
     -1886.256
  -2941232.537 9  -2434416.101 9  21128590.313    21128594.563       -2166.035
     -1676.585
 -80010019.332 9 101465704.553 8  19479500.118    19479503.366        -118.587
       -96.985
 88  3 23  6 53  5.0800000  0  4G 3G 9G11G13
 -80099581.742 8 100691683.699 9  22089773.612    22089776.968        2202.158
      1710.276
 -17834631.542 8 -13673664.185 8  19660490.903    19660492.609       -2447.832
     -1910.602
  -2876631.573 9  -2384077.700 9  21140884.223    21140887.461       -2152.709
     -1684.538
 -80005944.057 9 101468880.100 8  19480276.316    19480279.165        -140.771
      -102.683
 88  3 23  6 53 35.0800000  0  4G 3G 9G11G13
 -80165857.432 8 100640040.339 8  22077162.348    22077164.686        2203.578
      1713.047
 -17761011.763 9 -13616298.154 8  19674500.088    19674501.374       -2452.593
     -1905.239
  -2811962.178 9  -2333685.975 9  21153191.162    21153192.690       -2164.551
     -1686.185
 -80001559.462 9 101472296.677 9  19481110.415    19481113.205        -148.235
      -117.310
 88  3 23  6 54  5.0800000  0  4G 3G 9G11G13
 -80231907.052 9 100588573.118 8  22064592.673    22064596.832        2202.414
      1705.100
 -17686838.199 8 -13558500.577 8  19688614.819    19688617.296       -2484.514
     -1942.081
  -2747225.909 9  -2283242.137 8  21165509.269    21165512.050       -2159.472
     -1688.354
 -79996867.646 9 101475952.625 9  19482003.358    19482005.934        -158.801
      -121.013
 88  3 23  6 54 35.0800000  0  4G 3G 9G11G13
 -80297730.268 8 100537282.321 8  22052067.646    22052070.809        2211.433
      1711.755
 -17612112.983 9 -13500273.161 9  19702834.329    19702836.568       -2503.661
     -1933.407
  -2682423.507 9  -2232746.778 9  21177840.926    21177843.428       -2152.558
     -1689.031
 -79991869.384 9 101479847.402 9  19482954.216    19482956.792        -174.551
      -135.237
 88  3 23  6 55  5.0800000  0  4G 3G 9G11G13
 -80363326.840 9 100486168.117 7  22039584.775    22039587.481        2173.076
      1718.360
 -17536838.540 9 -13441617.766 8  19717159.350    19717160.522       -2514.107
     -1973.175
  -2617556.759 9  -2182201.269 9  21190184.592    21190186.170       -2173.826
     -1680.773
 -79986566.564 9 101483979.472 8  19483964.401    19483966.490        -182.613
      -143.016
 88  3 23  6 55 35.0800000  0  4G 3G 9G11G13
 -80428696.877 9 100435230.448 7  22027145.280    22027147.859        2161.019
      1690.298
 -17461017.140 9 -13382536.171 8  19731587.296    19731588.668       -2540.112
     -1965.961
  -2552626.719 9  -2131606.436 9  21202540.203    21202542.871       -2156.457
     -1693.884
 -79980960.665 9 101488347.709 8  19485030.355    19485032.471        -181.441
      -157.619
 88  3 23  6 56  5.0800000  0  4G 3G 9G11G13
 -80493841.290 8 100384468.582 7  22014748.494    22014751.834        2165.740
      1699.513
 -17384651.213 9 -13323030.271 8  19746119.132    19746121.426       -2548.118
     -1979.525
  -2487635.207 9  -2080963.712 9  21214908.391    21214910.707       -2173.395
     -1696.146
 -79975053.353 9 101492950.811 8  19486154.681    19486156.556        -199.957
      -154.816
 88  3 23  6 56 35.0800000  0  4G 3G 9G11G13
 -80558759.642 9 100333882.873 8  22002395.797    22002398.099        2167.079
      1699.122
 -17307743.465 9 -13263102.161 7  19760754.245    19760756.013       -2578.141
     -2004.275
  -2422583.436 9  -2030274.032 8  21227286.063    21227289.710       -2183.084
     -1680.481
 -79968846.122 9 101497787.627 8  19487335.669    19487339.390        -214.247
      -163.609
 88  3 23  6 57  5.0800000  0  4G 3G 9G11G13
 -80623452.321 9 100283473.017 7  21990084.061    21990088.094        2150.118
      1683.917
 -17230295.978 9 -13202753.496 8  19775491.764    19775494.664       -2591.801
     -2006.785
  -2357472.619 9  -1979538.341 9  21239676.437    21239679.479       -2146.936
     -1697.351
 -79962340.650 9 101502856.836 9  19488573.993    19488575.396        -221.041
      -167.903
 88  3 23  6 57 35.0800000  0  4G 3G 9G11G13
 -80687919.128 9 100233239.176 9  21977817.308    21977821.108        2149.894
      1659.236
 -17152311.334 9 -13141986.254 8  19790332.569    19790333.667       -2598.476
     -2026.775
  -2292304.156 9  -1928757.731 9  21252078.602    21252080.175       -2157.247
     -1701.632
 -79955538.639 9 101508157.115 8  19489868.338    19489870.674        -224.526
      -153.052
 88  3 23  6 58  5.0800000  0  4G 3G 9G11G13
 -80752160.823 9 100183180.714 9  21965592.903    21965595.899        2128.045
      1660.031
 -17073792.209 9 -13080802.523 8  19805274.365    19805274.718       -2616.649
     -2023.600
  -2227079.631 9  -1877933.438 8  21264489.744    21264492.365       -2175.827
     -1691.001
 -79948441.416 9 101513687.417 8  19491218.871    19491221.088        -237.333
      -194.715
 88  3 23  6 58 35.0800000  0  4G 3G 9G11G13
 -80816176.766 9 100133298.189 8  21953410.692    21953413.238        2145.891
      1685.508
 -16994740.921 9 -13019204.138 8  19820316.979    19820319.110       -2656.816
     -2058.403
  -2161800.188 9  -1827066.334 9  21276911.427    21276915.118       -2182.486
     -1699.799
 -79941050.916 9 101519446.245 7  19492624.268    19492626.972        -245.602
      -193.690
 88  3 23  6 59  5.0800000  0  4G 3G 9G11G13
 -80879967.648 9 100083591.036 9  21941272.203    21941274.962        2115.262
      1656.471
 -16915160.111 9 -12957193.131 8  19835460.942    19835463.069       -2649.982
     -2075.075
  -2096467.266 8  -1776157.567 9  21289343.354    21289345.990       -2192.182
     -1707.001
 -79933369.057 9 101525432.120 8  19494086.214    19494088.831        -253.002
      -209.405
 88  3 23  6 59 35.0800000  0  4G 3G 9G11G13
 -80943533.554 9 100034059.181 9  21929175.383    21929178.463        2116.211
      1649.399
 -16835052.174 9 -12894771.390 8  19850704.793    19850707.073       -2680.269
     -2096.301
  -2031081.711 9  -1725207.800 9  21301786.097    21301789.501       -2181.497
     -1699.855
 -79925396.510 9 101531644.501 8  19495603.438    19495606.357        -266.798
      -205.968
 88  3 23  7  0  5.0800000  0  4G 3G 9G11G13
 -81006874.840 9  99984702.358 8  21917121.242    21917125.382        2105.932
      1640.843
 -16754419.763 9 -12831940.946 8  19866049.095    19866049.900       -2719.543
     -2099.520
  -1965645.051 8  -1674218.218 9  21314239.236    21314241.663       -2186.186
     -1705.112
 -79917135.375 9 101538081.747 8  19497175.646    19497177.448        -272.348
      -217.917
 88  3 23  7  0 35.0800000  0  4G 3G 9G11G13
 -81069991.956 9  99935520.214 8  21905111.746    21905114.554        2101.865
      1640.445
 -16673265.863 9 -12768704.160 8  19881492.317    19881493.618       -2708.195
     -2114.768
  -1900159.272 8  -1623190.347 9  21326700.179    21326703.345       -2175.891
     -1699.240
 -79908587.061 9 101544742.777 9  19498802.184    19498804.088        -291.838
      -223.243
 88  3 23  7  1  5.0800000  0  4G 3G 9G11G13
 -81132884.855 9  99886512.773 8  21893143.939    21893146.508        2085.733
      1646.914
 -16591592.731 9 -12705062.785 8  19897033.056    19897033.612       -2744.702
     -2129.153
  -1834625.365 8  -1572124.985 8  21339170.383    21339174.458       -2167.924
     -1701.651
 -79899753.584 9 101551626.016 8  19500483.272    19500485.133        -295.785
      -226.207
 88  3 23  7  1 35.0800000  0  4G 3G 9G11G13
 -81195553.630 9  99837679.994 8  21881217.786    21881221.115        2076.148
      1604.896
 -16509402.868 9 -12641018.756 7  19912673.483    19912674.575       -2742.947
     -2131.173
  -1769044.242 8  -1521022.835 9  21351651.410    21351653.924       -2178.682
     -1699.787
 -79890636.124 9 101558730.532 9  19502218.835    19502220.554        -317.619
      -232.837
 88  3 23  7  2  5.0800000  0  4G 3G 9G11G13
 -81257998.204 9  99789021.895 9  21869335.496    21869338.257        2071.666
      1630.149
 -16426698.779 9 -12576574.020 8  19928411.352    19928413.857       -2756.918
     -2139.953
  -1703416.895 8  -1469884.666 9  21364138.400    21364142.296       -2186.816
     -1699.352
 -79881236.424 9 101566054.969 8  19504006.981    19504008.971        -320.665
      -241.673
 88  3 23  7  2 35.0800000  0  4G 3G 9G11G13
 -81320219.452 9  99740537.833 8  21857493.854    21857497.507        2064.497
      1616.193
 -16343483.750 9 -12511731.157 8  19944246.897    19944248.476       -2779.693
     -2161.452
  -1637745.073 9  -1418711.822 9  21376636.676    21376639.785       -2181.425
     -1699.128
 -79871556.120 9 101573598.080 8  19505849.733    19505851.850        -326.406
      -254.144
 88  3 23  7  3  5.0800000  0  4G 3G 9G11G13
 -81382217.803 9  99692227.454 9  21845696.798    21845700.419        2073.795
      1599.117
 -16259760.267 9 -12446492.101 8  19960179.167    19960181.391       -2799.948
     -2189.023
  -1572030.236 9  -1367505.457 9  21389141.662    21389144.738       -2193.028
     -1710.499
 -79861596.817 9 101581358.578 7  19507744.755    19507746.644        -326.167
      -251.385
 88  3 23  7  3 35.0800000  0  4G 3G 9G11G13
 -81443993.092 9  99644090.880 7  21833941.095    21833943.996        2060.645
      1604.256
 -16175530.911 9 -12380858.851 7  19976207.349    19976209.153       -2830.729
     -2195.373
  -1506273.453 9  -1316266.419 9  21401654.729    21401658.137       -2194.607
     -1707.107
 -79851360.130 9 101589335.213 9  19509692.714    19509693.803        -347.499
      -263.179
 88  3 23  7  4  5.0800000  0  4G 3G 9G11G13
 -81505545.491 9  99596128.007 8  21822227.742    21822231.365        2056.794
      1597.750
 -16090798.295 9 -12314833.450 8  19992330.858    19992333.329       -2824.453
     -2202.153
  -1440475.778 9  -1264995.505 9  21414175.915    21414178.483       -2202.055
     -1708.610
 -79840847.795 9 101597526.650 8  19511693.347    19511695.165        -366.812
      -282.454
 88  3 23  7  4 35.0800000  0  4G 3G 9G11G13
 -81566875.269 9  99548338.587 8  21810557.949    21810561.034        2037.663
      1571.000
 -16005564.918 9 -12248417.869 8  20008551.657    20008553.162       -2853.496
     -2202.047
  -1374638.343 9  -1213693.627 9  21426704.077    21426707.250       -2211.488
     -1714.383
 -79830061.187 9 101605931.804 8  19513745.469    19513747.932        -363.296
      -267.360
 88  3 23  7  5  5.0800000  0  4G 3G 9G11G13
 -81627983.049 9  99500722.151 9  21798929.176    21798932.053        2038.612
      1576.853
 -15919834.325 9 -12181614.815 7  20024865.089    20024867.608       -2871.319
     -2253.385
  -1308762.700 9  -1162361.964 9  21439239.551    21439242.105       -2187.669
     -1718.497
 -79819002.517 9 101614548.941 7  19515849.756    19515851.631        -367.219
      -284.908
 88  3 23  7  5 35.0800000  0  4G 3G 9G11G13
 -81688868.730 9  99453278.775 8  21787341.318    21787345.608        2028.477
      1577.736
 -15833608.509 9 -12114425.883 7  20041273.159    20041274.361       -2885.353
     -2250.614
  -1242849.934 9  -1111001.366 9  21451782.507    21451785.376       -2197.342
     -1705.690
 -79807672.894 9 101623377.229 8  19518005.790    19518008.881        -379.731
      -289.743
 88  3 23  7  6  5.0800000  0  4G 3G 9G11G13
 -81749532.803 9  99406008.086 8  21775799.045    21775802.537        2024.745
      1561.331
 -15746890.767 9 -12046853.637 8  20057774.573    20057777.230       -2889.117
     -2252.056
  -1176900.977 9  -1059612.572 8  21464332.798    21464334.986       -2200.221
     -1714.153
 -79796073.752 9 101632415.516 8  19520212.544    19520215.519        -378.694
      -306.110
 88  3 23  7  6 35.0800000  0  4G 3G 9G11G13
 -81809975.479 9  99358909.922 9  21764296.845    21764300.274        2013.980
      1555.434
 -15659683.716 9 -11978900.116 8  20074369.114    20074372.498       -2906.741
     -2274.686
  -1110917.270 9  -1008196.695 9  21476887.436    21476891.951       -2210.205
     -1714.949
 -79784206.918 9 101641662.401 8  19522471.505    19522473.527        -403.072
      -300.132
 88  3 23  7  7  5.0800000  0  4G 3G 9G11G13
 -81870196.785 8  99311984.257 9  21752836.797    21752840.471        1996.404
      1561.574
 -15571989.913 9 -11910567.294 8  20091057.364    20091060.488       -2930.249
     -2278.042
  -1044899.737 9   -956754.471 9  21489451.735    21489454.068       -2202.756
     -1722.958
 -79772074.185 9 101651116.483 8  19524779.890    19524781.622        -404.778
      -311.553
 88  3 23  7  7 35.0800000  0  4G 3G 9G11G13
 -81930197.127 8  99265230.758 8  21741419.854    21741422.312        1994.929
      1556.056
 -15483812.357 9 -11841857.530 8  20107837.813    20107839.976       -2943.989
     -2300.629
   -978849.463 8   -905286.743 9  21502019.953    21502023.360       -2190.396
     -1715.265
 -79759676.722 9 101660776.856 8  19527139.680    19527141.997        -431.421
      -337.638
 88  3 23  7  8  5.0800000  0  4G 3G 9G11G13
 -81989977.319 9  99218648.815 8  21730043.850    21730047.961        1991.667
      1557.435
 -15395153.870 9 -11772772.998 8  20124708.545    20124709.964       -2961.995
     -2298.988
   -912767.923 9   -853794.646 9  21514595.051    21514598.206       -2197.645
     -1707.324
 -79747016.560 9 101670641.915 8  19529548.396    19529550.687        -429.658
      -321.315
 88  3 23  7  8 35.0800000  0  4G 3G 9G11G13
 -82049537.212 9  99172238.528 9  21718709.568    21718713.261        1990.423
      1539.260
 -15306017.318 9 -11703315.967 7  20141671.240    20141672.693       -2982.649
     -2322.781
   -846655.655 9   -802278.588 9  21527175.916    21527179.630       -2190.548
     -1722.057
 -79734095.029 9 101680710.646 8  19532007.286    19532008.846        -425.400
      -337.023
 88  3 23  7  9  5.0800000  0  4G 3G 9G11G13
 -82108877.182 9  99125999.609 8  21707417.346    21707419.834        1975.639
      1548.139
 -15216405.384 9 -11633488.499 8  20158723.381    20158725.174       -2994.323
     -2329.069
   -780513.997 9   -750739.622 9  21539761.291    21539763.983       -2190.755
     -1716.421
 -79720913.990 9 101690981.574 8  19534515.915    19534516.747        -453.366
      -342.703
 88  3 23  7  9 35.0800000  0  4G 3G 9G11G13
 -82167997.664 9  99079931.720 8  21696167.363    21696169.779        1964.020
      1538.887
 -15126321.101 9 -11563292.982 9  20175865.890    20175867.493       -2999.634
     -2338.551
   -714344.084 8   -699178.652 8  21552354.017    21552356.320       -2201.760
     -1716.651
 -79707474.941 9 101701453.574 8  19537072.900    19537074.132        -451.811
      -343.952
 88  3 23  7 10  5.0800000  0  4G 3G 9G11G13
 -82226899.032 9  99034034.568 8  21684958.794    21684960.667        1964.124
      1538.297
 -15035767.629 9 -11492731.854 8  20193097.287    20193098.823       -3032.488
     -2356.578
   -648147.393 8   -647596.830 9  21564949.782    21564952.391       -2203.091
     -1720.932
 -79693779.598 9 101712125.265 8  19539678.920    19539680.535        -464.004
      -372.361
 88  3 23  7 10 35.0800000  0  4G 3G 9G11G13
 -82285581.981 9  98988307.619 8  21673791.997    21673793.978        1942.657
      1531.996
 -14944747.864 9 -11421807.371 7  20210417.740    20210419.219       -3031.579
     -2357.752
   -581924.674 8   -595994.727 9  21577551.014    21577555.052       -2202.342
     -1711.059
 -79679829.593 9 101722995.399 9  19542333.084    19542334.587        -473.366
      -367.974
 88  3 23  7 11  5.0800000  0  4G 3G 9G11G13
 -82344046.085 9  98942751.194 8  21662666.360    21662669.674        1949.092
      1508.955
 -14853264.515 9 -11350521.655 8  20227826.276    20227828.504       -3061.084
     -2371.739
   -515676.695 9   -544372.952 9  21590157.956    21590161.809       -2187.892
     -1722.417
 -79665625.992 9 101734063.138 9  19545035.684    19545039.779        -490.830
      -375.617
 88  3 23  7 11 35.0800000  0  4G 3G 9G11G13
 -82402292.600 9  98897364.314 7  21651583.293    21651585.665        1927.681
      1503.003
 -14761321.186 9 -11278877.511 7  20245322.519    20245325.492       -3084.393
     -2390.468
   -449405.381 9   -492732.972 9  21602769.655    21602772.601       -2217.684
     -1707.256
 -79651171.229 9 101745326.609 7  19547787.061    19547789.653        -487.831
      -364.525
 88  3 23  7 12  5.0800000  0  4G 3G 9G11G13
 -82460321.518 9  98852146.998 8  21640538.986    21640543.118        1932.641
      1515.617
 -14668919.482 9 -11206876.209 8  20262906.753    20262908.359       -3093.309
     -2415.018
   -383111.546 9   -441075.449 9  21615384.474    21615388.574       -2195.699
     -1723.188
 -79636466.304 9 101756784.984 8  19550584.707    19550587.740        -483.278
      -383.707
 88  3 23  7 12 35.0800000  0  4G 3G 9G11G13
 -82518133.508 9  98807098.710 9  21629539.369    21629541.318        1925.727
      1495.534
 -14576063.757 8 -11134521.114 8  20280576.742    20280577.794       -3093.707
     -2417.206
   -316796.432 8   -389401.341 9  21628002.845    21628007.182       -2194.391
     -1719.702
 -79621513.836 9 101768436.255 8  19553430.851    19553432.872        -507.600
      -380.228
 88  3 23  7 13  5.0800000  0  4G 3G 9G11G13
 -82575728.042 9  98762219.870 9  21618578.748    21618581.742        1926.700
      1489.680
 -14482756.311 9 -11061814.029 8  20298331.694    20298334.302       -3114.098
     -2432.013
   -250460.014 9   -337710.653 9  21640628.198    21640630.928       -2223.968
     -1723.592
 -79606314.363 9 101780280.007 8  19556323.363    19556325.197        -513.700
      -391.959
 88  3 23  7 13 35.0800000  0  4G 3G 9G11G13
 -82633106.355 8  98717509.524 7  21607660.887    21607663.015        1899.619
      1483.640
 -14388999.998 9 -10988757.167 7  20316173.211    20316174.425       -3131.283
     -2428.167
   -184103.740 9   -286004.481 9  21653255.066    21653258.591       -2202.390
     -1721.709
 -79590869.158 9 101792315.232 9  19559262.342    19559264.773        -512.416
      -412.129
 88  3 23  7 14  5.0800000  0  4G 3G 9G11G13
 -82690268.657 9  98672967.482 9  21596782.494    21596785.092        1910.153
      1469.678
 -14294798.370 9 -10915353.316 8  20334098.769    20334101.181       -3137.271
     -2457.657
   -117729.025 9   -234283.951 9  21665886.502    21665888.891       -2209.614
     -1720.205
 -79575180.751 9 101804539.961 8  19562247.961    19562249.763        -527.256
      -419.791
 88  3 23  7 14 35.0800000  0  4G 3G 9G11G13
 -82747215.717 9  98628593.170 8  21585945.215    21585949.011        1899.045
      1485.399
 -14200154.284 9 -10841604.687 8  20352108.417    20352110.655       -3159.544
     -2445.385
    -51336.993 9   -182549.910 9  21678521.122    21678523.183       -2216.209
     -1714.340
 -79559250.293 9 101816953.306 8  19565279.776    19565281.261        -521.220
      -423.637
 88  3 23  7 15  5.0800000  0  4G 3G 9G11G13
 -82803947.756 9  98584386.419 8  21575149.902    21575152.253        1881.286
      1470.964
 -14105070.892 9 -10767513.756 8  20370203.272    20370203.939       -3160.947
     -2475.404
     15071.709 9   -130802.889 9  21691157.351    21691159.930       -2209.694
     -1717.297
 -79543079.744 9 101829553.736 8  19568356.265    19568359.055        -532.177
      -424.408
 88  3 23  7 15 35.0800000  0  4G 3G 9G11G13
 -82860465.342 9  98540346.771 8  21564393.904    21564399.037        1896.103
      1475.289
 -14009551.362 9 -10693082.967 8  20388379.649    20388381.436       -3187.470
     -2496.879
     81495.791 9    -79043.877 9  21703798.094    21703800.568       -2214.527
     -1726.227
 -79526671.114 9 101842339.671 8  19571478.606    19571481.355        -558.077
      -429.888
 88  3 23  7 16  5.0800000  0  4G 3G 9G11G13
 -82916768.575 9  98496474.156 9  21553681.003    21553683.965        1851.207
      1461.923
 -13913598.585 9 -10618314.577 8  20406639.756    20406641.042       -3202.821
     -2483.531
    147934.436 9    -27273.512 9  21716439.615    21716443.042       -2217.836
     -1721.454
 -79510025.014 9 101855310.657 8  19574647.074    19574648.303        -549.688
      -434.580
 88  3 23  7 16 35.0800000  0  4G 3G 9G11G13
 -82972857.687 9  98452768.364 8  21543007.088    21543010.962        1862.092
      1443.537
 -13817215.724 9 -10543211.062 8  20424980.089    20424982.053       -3228.267
     -2509.120
    214386.848 9     24507.567 9  21729085.204    21729088.302       -2214.303
     -1717.751
 -79493143.542 9 101868465.046 9  19577858.242    19577860.888        -563.683
      -446.460
 88  3 23  7 17  5.0800000  0  4G 3G 9G11G13
 -83028733.762 9  98409228.599 9  21532375.027    21532377.684        1854.086
      1443.008
 -13720405.812 9 -10467774.794 8  20443402.879    20443404.832       -3234.152
     -2517.397
    280851.546 9     76298.222 9  21741733.119    21741736.676       -2222.381
     -1714.712
 -79476028.462 9 101881801.471 8  19581116.391    19581116.662        -562.926
      -445.951
 88  3 23  7 17 35.0800000  0  4G 3G 9G11G13
 -83084397.473 9  98365854.293 9  21521782.415    21521784.876        1850.194
      1456.728
 -13623172.058 9 -10392008.257 9  20461905.520    20461907.410       -3249.670
     -2524.928
    347327.971 9    128098.033 9  21754382.986    21754386.690       -2208.873
     -1721.815
 -79458681.055 9 101895318.936 8  19584417.183    19584418.970        -567.822
      -457.620
 88  3 23  7 18  5.0800000  0  4G 3G 9G11G13
 -83139848.909 9  98322645.404 8  21511230.426    21511233.136        1843.033
      1448.595
 -13525517.195 9 -10315913.581 9  20480488.084    20480490.818       -3253.856
     -2527.544
    413815.106 9    179906.179 9  21767035.405    21767039.003       -2209.949
     -1716.614
 -79441102.758 9 101909016.304 8  19587761.485    19587763.915        -575.079
      -466.674
 88  3 23  7 18 35.0800000  0  4G 3G 9G11G13
 -83195087.866 9  98279602.085 8  21500717.930    21500721.298        1834.684
      1432.911
 -13427444.237 9 -10239493.110 8  20499151.197    20499153.374       -3287.923
     -2553.368
    480312.556 9    231722.359 9  21779689.243    21779693.457       -2219.431
     -1722.995
 -79423295.290 9 101922892.261 8  19591150.274    19591152.362        -596.498
      -472.192
 88  3 23  7 19  5.0800000  0  4G 3G 9G11G13
 -83250115.184 9  98236723.675 8  21490246.992    21490249.705        1839.923
      1418.358
 -13328956.795 9 -10162749.646 8  20517893.050    20517895.828       -3289.159
     -2569.201
    546819.039 9    283545.569 8  21792345.719    21792348.322       -2231.488
     -1717.036
 -79405260.185 9 101936945.600 8  19594582.215    19594584.163        -604.967
      -463.511
 88  3 23  7 19 35.0800000  0  4G 3G 9G11G13
 -83304930.632 9  98194010.356 9  21479817.128    21479818.362        1824.150
      1423.348
 -13230057.329 9 -10085685.154 8  20536713.107    20536714.311       -3295.299
     -2558.811
    613334.022 8    335375.407 9  21805003.087    21805006.091       -2231.640
     -1717.210
 -79386998.555 9 101951175.455 8  19598057.593    19598059.871        -614.751
      -460.522
 88  3 23  7 20  5.0800000  0  4G 3G 9G11G13
 -83359535.245 9  98151461.330 8  21469425.174    21469427.611        1814.557
      1418.085
 -13130749.239 9 -10008302.233 8  20555610.080    20555612.624       -3316.391
     -2586.668
    679856.542 9    387211.118 9  21817661.228    21817664.447       -2207.198
     -1721.821
 -79368512.358 9 101965580.265 8  19601575.088    19601577.523        -634.177
      -478.033
 88  3 23  7 20 35.0800000  0  4G 3G 9G11G13
 -83413929.631 9  98109076.116 8  21459074.870    21459078.399        1815.402
      1398.263
 -13031035.440 9  -9930603.186 8  20574584.593    20574587.563       -3315.219
     -2595.398
    746385.873 8    439052.127 8  21830321.431    21830324.959       -2239.088
     -1726.463
 -79349802.772 9 101980159.171 7  19605135.531    19605138.049        -625.317
      -491.983
 88  3 23  7 21  5.0800000  0  4G 3G 9G11G13
 -83468114.215 9  98066854.370 8  21448763.002    21448765.572        1808.983
      1395.672
 -12930919.474 9  -9852590.782 8  20593637.321    20593637.965       -3325.586
     -2607.714
    812920.927 9    490897.583 9  21842983.169    21842985.479       -2196.441
     -1727.258
 -79330871.469 9 101994910.832 9  19608737.981    19608740.641        -627.048
      -497.407
 88  3 23  7 21 35.0800000  0  4G 3G 9G11G13
 -83522089.087 9  98024796.053 8  21438492.245    21438495.005        1785.259
      1398.331
 -12830404.318 9  -9774267.300 8  20612764.314    20612767.164       -3340.203
     -2634.408
    879460.933 9    542746.926 8  21855643.782    21855647.632       -2212.693
     -1713.855
 -79311720.514 9 102009833.657 8  19612382.427    19612384.786        -628.172
      -501.869
 88  3 23  7 22  5.0800000  0  4G 3G 9G11G13
 -83575855.289 9  97982900.326 8  21428260.879    21428263.086        1802.938
      1406.179
 -12729493.243 8  -9695635.321 8  20631968.036    20631969.245       -3357.698
     -2625.666
    946005.381 8    594599.729 9  21868307.817    21868310.853       -2217.987
     -1723.996
 -79292350.914 9 102024926.863 7  19616068.009    19616070.830        -658.754
      -501.931
 88  3 23  7 22 35.0800000  0  4G 3G 9G11G13
 -83629413.422 9  97941166.730 8  21418068.553    21418071.579        1797.579
      1382.045
 -12628189.595 9  -9616697.429 9  20651244.521    20651246.438       -3387.834
     -2645.158
   1012552.780 9    646454.828 9  21880971.834    21880974.150       -2211.456
     -1722.797
 -79272764.491 9 102040189.018 9  19619794.780    19619798.199        -646.242
      -511.842
 88  3 23  7 23  5.0800000  0  4G 3G 9G11G13
 -83682763.600 9  97899595.171 8  21407917.179    21407920.197        1775.044
      1394.510
 -12526496.563 9  -9537456.112 8  20670595.790    20670598.799       -3395.361
     -2639.709
   1079102.475 9    698311.726 8  21893635.385    21893638.140       -2205.244
     -1712.165
 -79252963.032 9 102055618.725 7  19623563.959    19623565.776        -667.023
      -521.330
 88  3 23  7 23 35.0800000  0  4G 3G 9G11G13
 -83735906.153 9  97858185.409 9  21397803.958    21397806.329        1774.238
      1379.883
 -12424417.054 9  -9457913.640 8  20690020.919    20690023.837       -3404.317
     -2655.740
   1145653.903 9    750169.985 9  21906299.061    21906303.481       -2225.356
     -1733.267
 -79232947.436 9 102071215.298 8  19627371.898    19627375.361        -671.951
      -522.380
 88  3 23  7 24  5.0800000  0  4G 3G 9G11G13
 -83788841.728 8  97816936.928 8  21387730.118    21387733.162        1766.671
      1366.809
 -12321954.244 9  -9378072.512 8  20709519.222    20709521.632       -3412.004
     -2667.298
   1212206.260 9    802028.945 9  21918964.251    21918967.255       -2213.713
     -1724.828
 -79212719.030 9 102086977.698 8  19631221.175    19631224.665        -655.516
      -526.488
 88  3 23  7 24 35.0800000  0  4G 3G 9G11G13
 -83841570.741 8  97775849.401 8  21377697.602    21377699.426        1758.752
      1386.966
 -12219111.662 8  -9297935.471 9  20729089.086    20729091.798       -3434.188
     -2671.884
   1278758.631 9    853887.911 9  21931628.903    21931632.416       -2222.110
     -1725.903
 -79192280.116 9 102102904.132 8  19635111.205    19635113.326        -691.807
      -523.915
 88  3 23  7 25  5.0800000  0  4G 3G 9G11G13
 -83894094.780 9  97734921.603 9  21367701.738    21367704.716        1757.979
      1358.625
 -12115893.118 9  -9217505.471 8  20748731.514    20748734.997       -3445.727
     -2693.371
   1345309.772 9    905745.932 9  21944293.178    21944296.588       -2217.525
     -1733.397
 -79171632.883 9 102118992.887 8  19639039.947    19639042.764        -676.656
      -537.921
 88  3 23  7 25 35.0800000  0  4G 3G 9G11G13
 -83946413.001 9  97694154.185 8  21357744.955    21357748.128        1748.274
      1364.640
 -12012300.737 9  -9136784.156 8  20768444.284    20768447.007       -3458.159
     -2686.809
   1411860.110 9    957603.327 9  21956958.284    21956960.278       -2206.576
     -1724.971
 -79150777.146 9 102135244.116 9  19643008.364    19643010.637        -682.134
      -544.116
 88  3 23  7 26  5.0800000  0  4G 3G 9G11G13
 -83998526.526 9  97653546.264 8  21347828.652    21347831.781        1741.041
      1349.199
 -11908338.434 9  -9055774.584 9  20788227.792    20788229.870       -3462.872
     -2705.606
   1478408.209 9   1009458.984 9  21969621.843    21969624.408       -2221.297
     -1726.021
 -79129714.836 9 102151656.310 8  19647016.754    19647019.944        -703.785
      -556.475
 88  3 23  7 26 35.0800000  0  4G 3G 9G11G13
 -84050436.590 9  97613096.879 8  21337950.806    21337952.536        1722.469
      1353.157
 -11804009.880 9  -8974479.598 9  20808081.172    20808083.449       -3486.181
     -2709.409
   1544952.848 9   1061311.952 9  21982284.202    21982287.240       -2208.307
     -1727.438
 -79108448.414 9 102168227.551 8  19651064.122    19651065.965        -705.459
      -571.339
 88  3 23  7 27  5.0800000  0  4G 3G 9G11G13
 -84102142.291 9  97572806.746 8  21328112.279    21328113.871        1728.928
      1352.132
 -11699317.322 9  -8892900.995 8  20828004.530    20828005.943       -3485.631
     -2718.742
   1611494.385 9   1113162.486 9  21994946.311    21994949.472       -2216.608
     -1726.655
 -79086978.320 9 102184957.504 9  19655149.131    19655152.093        -719.486
      -558.719
 88  3 23  7 27 35.0800000  0  4G 3G 9G11G13
 -84153644.541 9  97532675.133 8  21318310.314    21318314.704        1715.866
      1334.590
 -11594264.433 9  -8811041.624 8  20847993.350    20847996.328       -3505.766
     -2723.570
   1678031.604 8   1165009.636 9  22007607.152    22007611.588       -2202.988
     -1734.534
 -79065306.461 9 102201844.670 9  19659273.169    19659275.871        -719.271
      -575.701
 88  3 23  7 28  5.0800000  0  4G 3G 9G11G13
 -84204944.490 9  97492701.170 9  21308548.965    21308551.617        1706.281
      1333.099
 -11488854.625 9  -8728904.140 9  20868053.148    20868056.565       -3527.496
     -2724.490
   1744563.319 9   1216852.513 9  22020268.323    22020271.736       -2228.402
     -1729.191
 -79043434.873 9 102218887.469 8  19663435.039    19663436.858        -736.759
      -565.367
 88  3 23  7 28 35.0800000  0  3G 3G 9G13
 -84256042.079 9  97452884.888 9  21298824.811    21298827.684        1699.957
      1334.062
 -11383090.871 9  -8646490.836 8  20888179.389    20888182.165       -3539.354
     -2759.883
 -79021364.367 9 102236085.263 9  19667634.972    19667637.647        -733.649
      -581.194
 88  3 23  7 29  5.0800000  0  3G 3G 9G13
 -84306938.441 9  97413225.397 8  21289139.876    21289143.053        1683.044
      1330.210
 -11276976.846 9  -8563804.595 8  20908371.723    20908374.046       -3537.704
     -2776.095
 -78999096.538 9 102253436.815 8  19671872.544    19671875.906        -735.579
      -571.469
 88  3 23  7 29 35.0800000  0  3G 3G 9G13
 -84357633.985 9  97373722.402 9  21279493.073    21279494.793        1692.063
      1312.743
 -11170515.840 9  -8480847.978 9  20928631.388    20928633.356       -3555.630
     -2772.417
 -78976633.259 9 102270940.678 9  19676148.194    19676150.127        -749.653
      -580.200
 88  3 23  7 30  5.0800000  0  3G 3G 9G13
 -84408129.151 9  97334375.546 8  21269884.135    21269886.706        1689.463
      1312.656
 -11063711.425 9  -8397623.761 8  20948954.703    20948958.219       -3561.954
     -2776.816
 -78953975.904 9 102288595.769 8  19680458.370    19680461.501        -749.877
      -596.784
 88  3 23  7 30 35.0800000  0  3G 3G 9G13
 -84458424.844 8  97295184.106 9  21260312.976    21260315.556        1662.996
      1303.124
 -10956566.587 8  -8314134.299 9  20969343.449    20969346.198       -3575.957
     -2784.185
 -78931125.995 9 102306400.885 8  19684807.372    19684810.676        -751.934
      -588.955
 88  3 23  7 31  5.0800000  0  3G 3G 9G13
 -84508521.526 9  97256147.735 9  21250780.077    21250783.226        1686.146
      1295.835
 -10849084.670 8  -8230382.193 8  20989795.619    20989799.258       -3594.266
     -2794.649
 -78908084.651 9 102324355.173 9  19689192.200    19689194.703        -763.704
      -608.628
 88  3 23  7 31 35.0800000  0  3G 3G 9G13
 -84558420.421 9  97217265.503 9  21241284.935    21241287.437        1658.467
      1308.089
 -10741269.414 8  -8146370.310 9  21010313.198    21010315.930       -3592.767
     -2808.966
 -78884854.021 9 102342456.987 9  19693612.707    19693613.767        -774.892
      -596.554
 88  3 23  7 32  5.0800000  0  3G 3G 9G13
 -84608121.212 9  97178537.630 8  21231826.984    21231829.859        1637.008
      1289.690
 -10633123.720 9  -8062100.945 9  21030892.616    21030895.256       -3605.549
     -2811.017
 -78861434.962 9 102360705.601 9  19698068.866    19698070.656        -780.466
      -605.067
 88  3 23  7 32 35.0800000  0  3G 3G 9G13
 -84657624.499 9  97139963.671 9  21222406.030    21222409.036        1651.864
      1274.845
 -10524650.942 9  -7977576.690 8  21051534.496    21051536.613       -3612.049
     -2823.736
 -78837829.137 9 102379099.760 9  19702560.591    19702563.925        -794.716
      -618.066
 88  3 23  7 33  5.0800000  0  3G 3G 9G13
 -84706930.924 9  97101543.085 9  21213023.594    21213026.698        1632.797
      1281.388
 -10415854.324 9  -7892800.104 8  21072238.312    21072240.217       -3628.213
     -2834.766
 -78814037.759 9 102397638.504 9  19707088.140    19707091.132        -801.957
      -612.381
 88  3 23  7 33 35.0800000  0  3G 3G 9G13
 -84756041.818 9  97063274.867 9  21203677.906    21203681.115        1634.440
      1279.884
 -10306738.073 9  -7807774.491 9  21093001.952    21093004.585       -3645.022
     -2837.667
 -78790063.038 9 102416320.105 9  19711651.190    19711652.708        -793.074
      -611.536
 88  3 23  7 34  5.0800000  0  3G 3G 9G13
 -84804957.790 9  97025158.558 8  21194369.538    21194372.867        1631.609
      1259.814
 -10197305.403 8  -7722502.314 9  21113826.161    21113828.475       -3652.702
     -2845.012
 -78765906.422 9 102435143.458 9  19716248.111    19716249.772        -813.057
      -618.800
 88  3 23  7 34 35.0800000  0  3G 3G 9G13
 -84853679.150 9  96987193.876 9  21185098.126    21185100.634        1617.574
      1262.616
 -10087559.554 8  -7636986.082 8  21134710.152    21134712.540       -3651.609
     -2855.016
 -78741569.121 9 102454107.579 8  19720878.815    19720881.320        -818.935
      -628.791
 88  3 23  7 35  5.0800000  0  3G 3G 9G13
 -84902205.962 9  96949380.800 8  21175864.073    21175866.909        1621.450
      1264.412
  -9977503.260 8  -7551227.960 8  21155652.342    21155655.738       -3678.674
     -2862.044
 -78717052.107 9 102473211.737 9  19725544.094    19725546.171        -834.189
      -643.294
 88  3 23  7 35 35.0800000  0  3G 3G 9G13
 -84950539.065 9  96911718.656 7  21166666.462    21166668.342        1613.180
      1249.517
  -9867140.191 9  -7465230.758 9  21176655.994    21176657.473       -3694.599
     -2865.163
 -78692356.599 9 102492454.999 8  19730243.670    19730246.318        -824.126
      -641.287
 88  3 23  7 36  5.0800000  0  3G 3G 9G13
 -84998678.496 9  96874207.429 9  21157506.361    21157508.813        1592.527
      1252.941
  -9756473.310 9  -7378996.826 8  21197714.206    21197716.334       -3675.915
     -2870.781
 -78667483.536 9 102511836.605 8  19734976.608    19734978.398        -834.269
      -647.010
 88  3 23  7 36 35.0800000  0  3G 3G 9G13
 -85046625.606 9  96836846.058 8  21148381.884    21148384.688        1593.540
      1256.968
  -9645506.234 9  -7292528.985 8  21218830.430    21218832.510       -3708.618
     -2887.173
 -78642435.198 9 102531354.797 9  19739742.391    19739745.568        -830.545
      -643.133
 88  3 23  7 37  5.0800000  0  3G 3G 9G13
 -85094380.604 9  96799634.387 9  21139294.354    21139297.624        1584.975
      1217.367
  -9534242.542 9  -7205829.998 9  21240003.607    21240005.556       -3724.766
     -2904.901
 -78617212.834 9 102551008.587 9  19744542.753    19744546.415        -836.661
      -661.780
 88  3 23  7 37 35.0800000  0  3G 3G 9G13
 -85141943.908 9  96762572.091 9  21130244.059    21130246.402        1591.865
      1235.996
  -9422684.914 9  -7118901.998 9  21261231.466    21261234.669       -3733.769
     -2899.383
 -78591817.262 9 102570797.349 9  19749375.413    19749378.377        -861.159
      -656.542
 88  3 23  7 38  5.0800000  0  3G 3G 9G13
 -85189316.638 9  96725658.285 9  21121228.184    21121231.891        1572.168
      1224.240
  -9310837.332 8  -7031748.082 9  21282515.340    21282518.619       -3723.913
     -2909.586
 -78566250.222 9 102590719.722 9  19754241.509    19754241.954        -853.926
      -660.010
 88  3 23  7 38 35.0800000  0  3G 3G 9G13
 -85236498.638 8  96688893.122 9  21112250.070    21112252.621        1562.615
      1236.903
  -9198702.933 8  -6944370.672 9  21303853.694    21303856.977       -3743.322
     -2909.101
 -78540513.082 9 102610774.638 8  19759138.388    19759140.819        -852.682
      -671.188
 88  3 23  7 39  5.0800000  0  3G 3G 9G13
 -85283491.345 9  96652275.436 8  21103308.513    21103310.070        1554.992
      1237.693
  -9086285.317 9  -6856772.542 9  21325245.980    21325249.389       -3748.290
     -2923.225
 -78514607.315 9 102630960.947 9  19764067.857    19764070.821        -868.615
      -670.045
 88  3 23  7 39 35.0800000  0  3G 3G 9G13
 -85330294.787 9  96615805.236 8  21094402.509    21094404.154        1566.387
      1215.913
  -8973587.420 9  -6768956.021 8  21346692.210    21346694.189       -3756.376
     -2924.959
 -78488534.047 9 102651277.782 9  19769029.175    19769032.678        -869.061
      -690.128
 88  3 23  7 40  5.0800000  0  3G 3G 9G13
 -85376910.375 9  96579481.427 9  21085531.655    21085533.719        1555.334
      1210.296
  -8860613.325 9  -6680924.250 9  21368190.275    21368192.921       -3798.130
     -2938.188
 -78462294.979 9 102671723.805 8  19774023.447    19774025.893        -862.570
      -681.130
 88  3 23  7 40 35.0800000  0  3G 3G 9G13
 -85423338.092 9  96543303.999 9  21076696.597    21076699.109        1543.971
      1204.679
  -8747366.006 8  -6592679.601 9  21389740.222    21389743.294       -3766.384
     -2941.170
 -78435891.045 9 102692298.293 9  19779047.974    19779049.648        -884.611
      -690.538
 88  3 23  7 41  5.0800000  0  3G 3G 9G13
 -85469579.251 9  96507271.948 9  21067896.703    21067898.307        1534.043
      1206.294
  -8633849.345 9  -6504225.079 9  21411342.054    21411345.412       -3780.012
     -2952.175
 -78409324.159 9 102712999.766 9  19784102.810    19784105.540        -883.646
      -705.221
 88  3 23  7 41 35.0800000  0  3G 3G 9G13
 -85515633.862 8  96471385.264 8  21059132.826    21059134.237        1532.217
      1177.220
  -8520066.172 8  -6415562.886 9  21432993.921    21432997.536       -3785.475
     -2961.831
 -78382594.721 9 102733827.898 9  19789188.462    19789191.339        -883.646
      -684.324
 88  3 23  7 42  5.0800000  0  3G 3G 9G13
 -85561502.383 9  96435643.575 9  21050404.293    21050406.178        1521.108
      1191.226
  -8406019.876 9  -6326695.655 8  21454697.147    21454700.272       -3800.570
     -2952.821
 -78355704.652 9 102754781.210 8  19794305.728    19794308.503        -889.994
      -691.370
 88  3 23  7 42 35.0800000  0  3G 3G 9G13
 -85607186.250 9  96400045.768 9  21041709.926    21041713.796        1526.635
      1181.228
  -8291714.529 9  -6237626.564 9  21476449.108    21476451.581       -3827.675
     -2972.146
 -78328655.590 9 102775858.391 9  19799453.045    19799456.766        -911.764
      -709.900
 88  3 23  7 43  5.0800000  0  3G 3G 9G13
 -85652685.895 9  96364591.510 8  21033052.433    21033054.821        1510.471
      1181.843
  -8177153.321 9  -6148358.123 9  21498249.261    21498251.756       -3828.178
     -2975.185
 -78301448.540 9 102797058.689 9  19804630.949    19804632.595        -909.252
      -703.494
 88  3 23  7 43 35.0800000  0  3G 3G 9G13
 -85698001.844 9  96329280.401 9  21024429.527    21024431.691        1496.420
      1187.765
  -8062339.814 9  -6058893.076 8  21520097.263    21520100.386       -3827.715
     -2986.544
 -78274085.378 9 102818380.631 8  19809837.575    19809840.536        -901.166
      -700.952
 88  3 23  7 44  5.0800000  0  3G 3G 9G13
 -85743133.939 9  96294112.553 9  21015840.602    21015843.483        1503.039
      1182.322
  -7947276.551 8  -5969233.395 8  21541993.651    21541995.218       -3822.715
     -2995.479
 -78246566.148 9 102839824.188 8  19815073.941    19815076.830        -917.936
      -727.932
 88  3 23  7 44 35.0800000  0  3G 3G 9G13
 -85788083.405 9  96259087.024 9  21007287.287    21007289.495        1502.137
      1150.308
  -7831967.340 9  -5879382.083 9  21563935.399    21563937.141       -3850.442
     -2996.212
 -78218892.445 9 102861388.126 8  19820340.662    19820343.468        -926.413
      -713.355
 88  3 23  7 45  5.0800000  0  3G 3G 9G13
 -85832850.965 9  96224203.234 9  20998768.177    20998770.384        1502.321
      1169.229
  -7716415.430 8  -5789341.662 9  21585923.711    21585927.184       -3850.155
     -3002.507
 -78191065.193 9 102883071.702 9  19825636.172    19825638.374        -925.615
      -726.833
 88  3 23  7 45 35.0800000  0  3G 3G 9G13
 -85877437.319 9  96189460.617 8  20990283.106    20990285.880        1482.194
      1161.853
  -7600624.504 8  -5699114.985 9  21607958.182    21607961.590       -3865.840
     -3014.767
 -78163086.299 9 102904873.439 8  19830959.876    19830962.755        -953.286
      -726.112
 88  3 23  7 46  5.0800000  0  3G 3G 9G13
 -85921843.044 9  96154858.774 9  20981832.643    20981836.923        1463.422
      1150.811
  -7484598.075 9  -5608704.803 9  21630038.073    21630040.639       -3869.006
     -3019.135
 -78134957.314 9 102926792.127 8  19836312.242    19836315.246        -927.338
      -720.793
 88  3 23  7 46 35.0800000  0  3G 3G 9G13
 -85966069.254 9  96120396.817 8  20973417.737    20973419.682        1471.612
      1142.970
  -7368339.807 9  -5518113.946 9  21652161.852    21652163.756       -3864.939
     -3023.864
 -78106679.707 9 102948826.620 9  19841694.031    19841695.890        -934.204
      -733.326
 88  3 23  7 47  5.0800000  0  3G 3G 9G13
 -86010116.413 9  96086074.369 8  20965035.673    20965038.579        1471.157
      1155.080
  -7251853.075 9  -5427345.092 9  21674328.684    21674330.660       -3880.872
     -3038.932
 -78078254.324 9 102970976.270 8  19847103.659    19847106.350        -964.690
      -745.082
 88  3 23  7 47 35.0800000  0  3G 3G 9G13
 -86053985.239 9  96051890.886 8  20956687.426    20956690.495        1475.710
      1140.099
  -7135141.142 9  -5336400.722 8  21696537.636    21696541.130       -3898.727
     -3038.833
 -78049682.736 9 102993239.848 8  19852539.527    19852542.343        -945.910
      -754.670
 88  3 23  7 48  5.0800000  0  3G 3G 9G13
 -86097676.164 9  96017846.029 9  20948373.608    20948376.276        1469.514
      1135.370
  -7018207.309 8  -5245283.473 9  21718788.744    21718791.502       -3897.219
     -3035.701
 -78020965.337 9 103015617.039 9  19858004.694    19858006.499        -963.964
      -732.512
 88  3 23  7 48 35.0800000  0  3G 3G 9G13
 -86141189.969 9  95983939.199 9  20940092.997    20940095.938        1439.044
      1123.378
  -6901055.024 9  -5153996.023 9  21741081.367    21741084.720       -3895.856
     -3038.702
 -77992103.525 9 103038106.761 8  19863496.993    19863499.009        -954.849
      -759.293
 88  3 23  7 49  5.0800000  0  3G 3G 9G13
 -86184527.290 9  95950169.884 9  20931846.587    20931848.503        1448.845
      1125.844
  -6783688.037 9  -5062541.261 9  21763416.368    21763419.354       -3918.974
     -3054.100
 -77963098.957 9 103060707.726 9  19869015.817    19869018.968        -979.307
      -752.924
 88  3 23  7 49 35.0800000  0  3G 3G 9G13
 -86227688.204 9  95916538.001 9  20923633.074    20923635.270        1449.770
      1119.283
  -6666109.490 9  -4970921.625 9  21785790.651    21785793.087       -3912.977
     -3051.067
 -77933952.792 9 103083419.020 9  19874562.565    19874566.286        -979.179
      -754.627
 88  3 23  7 50  5.0800000  0  3G 3G 9G13
 -86270673.876 9  95883042.691 9  20915452.960    20915455.654        1435.129
      1116.977
  -6548322.865 9  -4879139.830 8  21808205.994    21808207.365       -3911.462
     -3043.735
 -77904666.455 9 103106239.540 9  19880135.764    19880138.297        -974.737
      -757.243
 88  3 23  7 50 35.0800000  0  3G 3G 9G13
 -86313484.953 9  95849683.420 9  20907306.035    20907309.714        1419.978
      1114.200
  -6430331.398 9  -4787198.414 8  21830659.549    21830661.033       -3933.160
     -3072.126
 -77875240.571 9 103129168.790 9  19885735.671    19885737.871        -973.151
      -771.361
 88  3 23  7 51  5.0800000  0  3G 3G 9G13
 -86356122.162 9  95816459.645 9  20899192.470    20899194.986        1407.155
      1122.564
  -6312138.769 9  -4695100.280 9  21853149.852    21853153.026       -3943.064
     -3066.701
 -77845676.622 9 103152205.620 8  19891361.019    19891364.454        -993.437
      -766.476
 88  3 23  7 51 35.0800000  0  3G 3G 9G13
 -86398585.545 9  95783371.316 9  20891111.683    20891114.343        1402.594
      1112.410
  -6193747.922 9  -4602847.709 8  21875678.110    21875681.463       -3956.740
     -3073.331
 -77815975.404 9 103175349.431 9  19897012.215    19897015.449       -1010.207
      -783.204
 88  3 23  7 52  5.0800000  0  3G 3G 9G13
 -86440876.518 9  95750417.316 9  20883064.127    20883067.462        1417.936
      1094.875
  -6075162.906 8  -4510443.833 9  21898244.152    21898247.403       -3946.716
     -3088.213
 -77786138.657 9 103198598.861 9  19902691.289    19902693.867       -1003.732
      -769.117
 88  3 23  7 52 35.0800000  0  3G 3G 9G13
 -86482995.500 9  95717597.358 9  20875049.486    20875053.134        1400.329
      1088.866
  -5956386.453 8  -4417890.775 9  21920847.651    21920849.328       -3956.868
     -3079.875
 -77756167.070 9 103221953.340 8  19908394.371    19908395.917        -993.182
      -771.541
 88  3 23  7 53  5.0800000  0  3G 3G 9G13
 -86524943.443 9  95684910.660 8  20867066.586    20867069.840        1410.113
      1092.066
  -5837422.869 9  -4325191.904 9  21943484.164    21943487.873       -3970.448
     -3103.356
 -77726062.033 9 103245411.818 8  19914122.439    19914125.901        -992.752
      -777.574
 88  3 23  7 53 35.0800000  0  3G 3G 9G13
 -86566720.851 9  95652356.848 9  20859117.156    20859119.139        1397.984
      1069.554
  -5718274.992 9  -4232349.418 9  21966157.036    21966161.518       -3975.934
     -3100.430
 -77695825.041 9 103268973.100 9  19919876.729    19919878.947       -1013.309
      -785.310
 88  3 23  7 54  5.0800000  0  3G 3G 9G13
 -86608328.169 8  95619935.583 9  20851199.114    20851201.600        1384.564
      1084.243
  -5598946.125 9  -4139365.886 9  21988865.850    21988868.596       -3962.107
     -3118.058
 -77665456.170 9 103292637.165 9  19925655.422    19925658.355       -1006.547
      -783.801
 88  3 23  7 54 35.0800000  0  3G 3G 9G13
 -86649766.104 9  95587646.294 9  20843314.278    20843316.553        1377.163
      1071.785
  -5479439.692 9  -4046244.000 9  22011607.805    22011609.740       -3984.929
     -3105.867
 -77634956.762 9 103316402.939 8  19931460.229    19931462.117       -1009.171
      -790.362
 88  3 23  7 55  5.0800000  0  3G 3G 9G13
 -86691035.357 9  95555488.449 9  20835460.363    20835463.101        1390.776
      1074.009
  -5359759.083 8  -3952986.412 8  22034380.903    22034384.491       -4009.307
     -3123.520
 -77604328.286 9 103340269.288 9  19937289.457    19937291.030       -1022.727
      -796.216
 88  3 23  7 55 35.0800000  0  3G 3G 9G13
 -86732136.695 9  95523461.453 9  20827639.335    20827641.329        1364.963
      1056.579
  -5239908.119 9  -3859596.052 8  22057188.346    22057190.789       -3990.886
     -3116.884
 -77573571.994 9 103364235.228 9  19943141.132    19943143.437       -1019.904
      -792.338
 88  3 23  7 56  5.0800000  0  3G 3G 9G13
 -86773070.288 9  95491565.140 9  20819849.732    20819852.145        1363.535
      1077.824
  -5119889.368 9  -3766074.944 9  22080026.186    22080029.380       -3991.827
     -3112.199
 -77542688.445 9 103388300.321 8  19949017.265    19949020.856       -1020.439
      -802.771
 88  3 23  7 56 35.0800000  0  3G 3G 9G13
 -86813837.148 9  95459798.773 9  20812091.639    20812095.376        1357.379
      1067.099
  -4999706.873 9  -3672426.271 9  22102896.945    22102900.947       -4024.091
     -3140.931
 -77511678.727 9 103412463.728 9  19954919.286    19954921.289       -1025.183
      -800.043
 88  3 23  7 57  5.0800000  0  3G 3G 9G13
 -86854438.008 9  95428161.757 9  20804365.687    20804368.959        1356.167
      1051.608
  -4879363.771 9  -3578652.455 9  22125797.865    22125801.303       -4016.635
     -3133.232
 -77480544.641 9 103436724.045 8  19960843.850    19960846.899       -1035.199
      -807.251
 88  3 23  7 57 35.0800000  0  3G 3G 9G13
 -86894873.342 9  95396653.702 9  20796671.790    20796674.547        1336.757
      1043.773
  -4758863.760 9  -3484756.374 9  22148728.299    22148731.944       -4024.514
     -3135.774
 -77449286.851 9 103461080.768 9  19966790.944    19966794.579       -1048.779
      -817.262
 88  3 23  7 58  5.0800000  0  3G 3G 9G13
 -86935143.788 9  95365274.162 9  20789008.267    20789010.777        1328.552
      1047.812
  -4638210.187 9  -3390740.616 9  22171687.401    22171691.204       -4017.417
     -3137.110
 -77417906.878 9 103485532.697 9  19972763.031    19972765.550       -1046.283
      -812.297
 88  3 23  7 58 35.0800000  0  3G 3G 9G13
 -86975250.241 9  95334022.400 9  20781375.413    20781379.430        1353.663
      1028.822
  -4517406.440 9  -3296607.860 8  22194676.061    22194678.285       -4021.021
     -3123.054
 -77386405.188 9 103510079.472 9  19978758.774    19978759.646       -1044.178
      -817.709
 88  3 23  7 59  5.0800000  0  3G 3G 9G13
 -87015193.124 9  95302898.082 9  20773775.592    20773777.814        1342.244
      1035.142
  -4396455.862 9  -3202360.654 9  22217692.199    22217694.164       -4029.099
     -3130.417
 -77354782.819 9 103534720.280 9  19984774.722    19984777.267       -1048.819
      -825.054
 88  3 23  7 59 35.0800000  0  3G 3G 9G13
 -87054973.628 8  95271900.296 9  20766205.129    20766208.420        1329.700
      1031.718
  -4275362.002 9  -3108001.797 9  22240735.826    22240738.644       -4029.705
     -3166.712
 -77323040.870 9 103559454.268 9  19990814.892    19990818.182       -1061.738
      -830.360
 88  3 23  8  0  5.0800000  0  3G 3G 9G13
 -87094591.210 9  95241029.477 9  20758666.791    20758669.286        1316.152
      1038.609
  -4154127.288 9  -3013533.184 9  22263805.792    22263809.010       -4052.385
     -3138.868
 -77291179.520 9 103584281.296 8  19996878.555    19996880.761       -1078.045
      -822.488
 88  3 23  8  0 35.0800000  0  3G 3G 9G13
 -87134046.754 9  95210284.914 9  20751157.888    20751161.544        1311.008
      1023.535
  -4032755.492 8  -2918957.753 8  22286902.020    22286903.954       -4074.960
     -3134.599
 -77259200.229 9 103609200.230 9  20002964.012    20002966.087       -1081.323
      -839.259
 88  3 23  8  1  5.0800000  0  3G 3G 9G13
 -87173342.005 9  95179665.249 9  20743680.502    20743682.611        1297.978
      1022.634
  -3911250.443 7  -2824278.532 9  22310022.975    22310026.112       -4047.799
     -3152.160
 -77227104.774 9 103634209.658 8  20009071.421    20009074.253       -1076.873
      -846.274
 88  3 23  8  1 35.0800000  0  3G 3G 9G13
 -87212477.105 9  95149170.378 8  20736233.212    20736236.901        1303.225
      1001.917
  -3789615.571 9  -2729498.161 9  22333170.496    22333172.778       -4060.199
     -3142.242
 -77194894.039 9 103659308.929 9  20015201.119    20015203.912       -1089.425
      -830.050
 88  3 23  8  2  5.0800000  0  3G 3G 9G13
 -87251452.430 9  95118800.001 9  20728816.436    20728819.254        1302.715
      1013.008
  -3667854.196 9  -2634619.190 9  22356340.708    22356343.808       -4050.973
     -3163.680
 -77162568.864 9 103684497.377 9  20021353.158    20021354.633       -1081.753
      -840.725
 88  3 23  8  2 35.0800000  0  3G 3G 9G13
 -87290268.803 9  95088553.495 9  20721430.036    20721433.068        1289.461
      1008.174
  -3545970.056 9  -2539644.561 9  22379534.498    22379536.808       -4061.507
     -3151.756
 -77130129.986 9 103709774.416 9  20027525.013    20027528.304       -1083.316
      -845.740
 88  3 23  8  3  5.0800000  0  3G 3G 9G13
 -87328927.233 9  95058430.050 9  20714074.164    20714076.772        1274.892
       995.013
  -3423965.968 9  -2444576.462 9  22402751.200    22402753.994       -4067.185
     -3172.311
 -77097578.728 9 103735139.034 8  20033720.278    20033722.497       -1086.674
      -838.575
 88  3 23  8  3 35.0800000  0  3G 3G 9G13
 -87367428.686 9  95028428.939 9  20706746.850    20706750.073        1285.961
      1003.017
  -3301845.853 9  -2349417.955 9  22425989.227    22425992.931       -4073.309
     -3167.160
 -77064915.716 9 103760590.738 9  20039935.145    20039936.949       -1099.911
      -844.360
 88  3 23  8  4  5.0800000  0  3G 3G 9G13
 -87405773.025 9  94998550.245 9  20699450.652    20699452.836        1284.677
       983.605
  -3179612.634 9  -2254171.301 9  22449249.837    22449252.608       -4066.738
     -3179.264
 -77032142.293 9 103786128.468 8  20046171.032    20046174.324       -1100.589
      -847.790
 88  3 23  8  4 35.0800000  0  3G 3G 9G13
 -87443961.826 8  94968792.743 9  20692183.885    20692185.620        1286.981
       983.505
  -3057270.108 8  -2158839.482 9  22472529.802    22472533.834       -4066.236
     -3169.167
 -76999259.666 9 103811751.286 8  20052428.565    20052432.273       -1101.984
      -853.544
 88  3 23  8  5  5.0800000  0  3G 3G 9G13
 -87481997.211 9  94939154.797 9  20684944.995    20684948.379        1268.345
       991.931
  -2934823.473 8  -2063426.545 9  22495831.249    22495834.917       -4078.732
     -3167.818
 -76966270.295 9 103837457.295 9  20058706.919    20058708.937       -1111.019
      -863.275
 88  3 23  8  5 35.0800000  0  3G 3G 9G13
 -87519880.236 9  94909635.576 8  20677736.563    20677738.307        1266.551
       991.844
  -2812276.000 8  -1967935.064 8  22519151.222    22519155.096       -4080.614
     -3185.689
 -76933175.639 8 103863245.337 9  20065004.694    20065007.527       -1114.951
      -861.591
 88  3 23  8  6  5.0800000  0  3G 3G 9G13
 -87557611.246 9  94880234.797 9  20670556.874    20670559.276        1251.224
       979.118
  -2689631.604 9  -1872368.018 8  22542490.210    22542492.461       -4087.209
     -3176.822
 -76899976.514 9 103889114.782 9  20071321.897    20071325.459       -1104.297
      -865.530
 88  3 23  8  6 35.0800000  0  3G 3G 9G13
 -87595190.996 9  94850951.889 9  20663404.584    20663408.121        1242.309
       967.306
  -2566893.376 9  -1776727.854 9  22565846.659    22565849.425       -4084.091
     -3179.879
 -76866673.887 9 103915064.868 9  20077659.319    20077661.881       -1124.871
      -870.091
 88  3 23  8  7  5.0800000  0  3G 3G 9G13
 -87632620.207 9  94821786.282 9  20656282.591    20656286.241        1247.923
       960.819
  -2444064.864 9  -1681017.314 8  22589220.429    22589222.122       -4088.963
     -3182.551
 -76833268.870 9 103941094.745 9  20084015.523    20084017.529       -1114.624
      -853.724
 88  3 23  8  7 35.0800000  0  3G 3G 9G13
 -87669898.882 8  94792737.990 8  20649188.592    20649192.009        1237.445
       972.401
  -2321148.397 9  -1585238.242 8  22612610.625    22612612.967       -4102.479
     -3199.086
 -76799761.104 9 103967204.691 9  20090392.198    20090394.930       -1118.882
      -878.182
 88  3 23  8  8  5.0800000  0  3G 3G 9G13
 -87707031.852 9  94763803.215 8  20642122.085    20642124.845        1236.081
       979.485
  -2198151.685 9  -1489396.663 8  22636016.193    22636019.115       -4095.191
     -3199.453
 -76766155.691 9 103993390.727 9  20096786.371    20096789.791       -1112.040
      -865.189
 88  3 23  8  8 35.0800000  0  3G 3G 9G13
 -87744005.675 9  94734992.465 9  20635087.828    20635089.269        1240.746
       963.354
  -2075063.802 8  -1393484.034 9  22659437.838    22659441.468       -4093.333
     -3194.488
 -76732439.502 9 104019663.081 9  20103203.152    20103205.828       -1133.595
      -876.411
 88  3 23  8  9  5.0800000  0  3G 3G 9G13
 -87780823.417 8  94706303.338 9  20628080.671    20628083.912        1231.671
       942.780
  -1951890.736 8  -1297505.052 9  22682877.006    22682880.241       -4099.361
     -3210.308
 -76698615.854 9 104046019.154 9  20109639.563    20109641.411       -1142.677
      -877.473
 88  3 23  8  9 35.0800000  0  3G 3G 9G13
 -87817489.296 8  94677732.526 9  20621103.477    20621105.018        1238.378
       959.818
  -1828639.267 9  -1201464.995 8  22706331.455    22706334.472       -4120.765
     -3202.013
 -76664689.323 9 104072455.410 9  20116094.910    20116099.288       -1128.411
      -879.810
 88  3 23  8 10  5.0800000  0  3G 3G 9G13
 -87854004.093 9  94649279.454 8  20614154.065    20614156.881        1206.297
       953.866
  -1705313.317 8  -1105366.881 9  22729799.463    22729802.479       -4112.431
     -3197.613
 -76630661.624 9 104098970.491 9  20122571.913    20122572.986       -1132.087
      -888.739
 88  3 23  8 10 35.0800000  0  3G 3G 9G13
 -87890370.501 9  94620942.017 9  20607234.291    20607237.193        1200.141
       943.203
  -1581917.557 8  -1009214.390 9  22753281.439    22753283.969       -4118.867
     -3203.895
 -76596534.542 9 104125563.008 9  20129064.644    20129068.552       -1142.000
      -879.014
 88  3 23  8 11  5.0800000  0  3G 3G 9G13
 -87926587.901 9  94592720.689 8  20600342.447    20600345.235        1196.528
       930.290
  -1458454.384 9   -913009.348 9  22776775.334    22776778.621       -4104.154
     -3198.695
 -76562308.294 9 104152232.812 9  20135577.266    20135580.029       -1142.693
      -876.728
 88  3 23  8 11 35.0800000  0  3G 3G 9G13
 -87962657.519 9  94564614.504 8  20593478.573    20593480.784        1215.196
       950.485
  -1334928.004 8   -816755.063 9  22800282.857    22800284.048       -4123.125
     -3208.071
 -76527983.996 9 104178979.007 8  20142109.533    20142111.682       -1143.132
      -877.685
 88  3 23  8 12  5.0800000  0  3G 3G 9G13
 -87998580.209 9  94536622.821 9  20586643.511    20586644.518        1197.948
       945.626
  -1211341.678 9   -720454.060 8  22823799.662    22823802.521       -4119.369
     -3209.009
 -76493562.759 9 104205800.741 9  20148659.816    20148663.478       -1128.491
      -894.418
 88  3 23  8 12 35.0800000  0  3G 3G 9G13
 -88034357.021 9  94508744.801 9  20579835.550    20579837.011        1191.768
       936.709
  -1087699.228 9   -624109.297 9  22847327.671    22847331.186       -4117.152
     -3209.127
 -76459045.906 9 104232696.994 9  20155228.654    20155230.645       -1147.582
      -885.545
 88  3 23  8 13  5.0800000  0  3G 3G 9G13
 -88069988.294 9  94480980.173 8  20573054.452    20573057.135        1175.994
       918.696
   -964003.329 9   -527722.921 9  22870866.045    22870870.026       -4128.261
     -3221.785
 -76424434.168 9 104259667.167 9  20161814.106    20161816.067       -1155.285
      -900.620
 88  3 23  8 13 35.0800000  0  3G 3G 9G13
 -88105474.656 9  94453328.482 9  20566301.512    20566303.651        1181.513
       923.996
   -840257.343 9   -431297.472 8  22894415.391    22894417.709       -4146.418
     -3213.024
 -76389727.781 9 104286711.102 9  20168418.362    20168422.670       -1155.062
      -893.865
 88  3 23  8 14  5.0800000  0  3G 3G 9G13
 -88140817.084 9  94425788.935 9  20559576.399    20559578.422        1180.859
       920.460
   -716464.747 9   -334835.732 9  22917971.802    22917974.680       -4107.360
     -3208.761
 -76354928.197 9 104313827.671 9  20175040.892    20175044.211       -1168.411
      -906.200
 88  3 23  8 14 35.0800000  0  3G 3G 9G13
 -88176015.760 9  94398361.407 9  20552877.203    20552880.429        1172.645
       905.156
   -592628.726 9   -238340.128 8  22941537.217    22941540.528       -4133.388
     -3211.700
 -76320035.086 9 104341017.114 7  20181681.260    20181684.066       -1181.154
      -905.560
 88  3 23  8 15  5.0800000  0  3G 3G 9G13
 -88211070.561 9  94371045.992 9  20546206.752    20546210.412        1176.297
       902.018
   -468752.333 9   -141813.058 9  22965109.418    22965112.858       -4127.670
     -3200.478
 -76285049.494 9 104368278.599 9  20188338.045    20188341.694       -1171.489
      -903.590
 88  3 23  8 15 35.0800000  0  3G 3G 9G13
 -88245983.320 9  94343841.264 8  20539563.340    20539566.607        1157.845
       901.403
   -344839.642 9    -45257.741 8  22988689.804    22988692.998       -4137.678
     -3222.176
 -76249973.005 9 104395610.932 9  20195013.087    20195016.779       -1173.323
      -908.642
 88  3 23  8 16  5.0800000  0  3G 3G 9G13
 -88280753.948 9  94316747.287 9  20532947.231    20532949.513        1151.505
       900.918
   -220893.266 9     51323.832 9  23012275.095    23012279.350       -4129.544
     -3216.758
 -76214805.156 9 104423014.455 8  20201705.794    20201708.229       -1173.171
      -906.051
 88  3 23  8 16 35.0800000  0  3G 3G 9G13
 -88315383.207 9  94289763.463 9  20526357.103    20526359.654        1156.896
       900.135
    -96916.333 8    147929.191 9  23035867.829    23035870.722       -4129.186
     -3220.449
 -76179547.155 9 104450488.227 9  20208415.235    20208417.454       -1171.521
      -907.828
 88  3 23  8 17  5.0800000  0  3G 3G 9G13
 -88349871.727 8  94262889.289 9  20519793.210    20519797.234        1145.732
       892.424
     27087.712 9    244555.680 9  23059464.854    23059467.933       -4137.399
     -3231.559
 -76144199.669 9 104478031.721 9  20215141.474    20215144.593       -1191.560
      -925.792
 88  3 23  8 17 35.0800000  0  3G 3G 9G13
 -88384220.126 9  94236124.313 9  20513258.030    20513260.167        1137.486
       887.465
    151115.905 9    341201.018 8  23083066.405    23083069.949       -4128.253
     -3224.674
 -76108763.346 9 104505644.428 9  20221884.669    20221887.447       -1184.216
      -910.630
 88  3 23  8 18  5.0800000  0  3G 3G 9G13
 -88418428.829 9  94209468.191 9  20506747.518    20506750.165        1144.982
       890.000
    275164.471 9    437862.245 7  23106672.517    23106674.837       -4126.849
     -3224.923
 -76073239.616 9 104533325.243 9  20228645.259    20228647.580       -1197.621
      -918.124
 88  3 23  8 18 35.0800000  0  3G 3G 9G13
 -88452498.314 9  94182920.547 8  20500264.701    20500266.758        1140.341
       884.253
    399230.336 9    534536.974 8  23130282.087    23130283.257       -4125.485
     -3214.732
 -76037628.919 9 104561073.830 9  20235421.191    20235423.738       -1182.852
      -927.761
 88  3 23  8 19  5.0800000  0  3G 3G 9G13
 -88486429.754 9  94156480.468 9  20493807.818    20493810.600        1137.502
       878.673
    523310.538 9    631222.846 7  23153893.337    23153895.762       -4135.780
     -3209.003
 -76001931.452 9 104588890.027 9  20242214.583    20242216.617       -1212.621
      -928.246
 88  3 23  8 19 35.0800000  0  3G 3G 9G13
 -88520223.151 9  94130147.963 8  20487376.251    20487379.734        1124.767
       890.025
    647401.769 9    727917.357 8  23177507.048    23177509.295       -4130.868
     -3239.718
 -75966147.893 9 104616773.312 9  20249023.155    20249026.119       -1194.862
      -921.274
 88  3 23  8 20  5.0800000  0  3G 3G 9G13
 -88553879.231 8  94103922.448 9  20480972.524    20480975.673        1124.942
       873.950
    771501.041 7    824618.056 8  23201120.974    23201125.362       -4119.776
     -3214.378
 -75930279.013 9 104644723.086 8  20255849.573    20255851.905       -1185.508
      -924.307
 88  3 23  8 20 35.0800000  0  3G 3G 9G13
 -88587398.962 8  94077803.189 9  20474592.926    20474597.283        1097.000
       877.548
    895604.773 9    921322.243 9  23224738.176    23224740.549       -4129.034
     -3213.806
 -75894325.228 9 104672739.032 8  20262690.955    20262693.772       -1199.941
      -938.076
 88  3 23  8 21  5.0800000  0  3G 3G 9G13
 -88620782.620 8  94051789.958 9  20468241.096    20468244.084        1104.967
       864.574
   1019709.843 8   1018027.435 8  23248354.534    23248357.622       -4137.032
     -3218.635
 -75858287.619 9 104700820.289 9  20269548.744    20269551.577       -1203.849
      -940.599
 88  3 23  8 21 35.0800000  0  3G 3G 9G13
 -88654030.081 9  94025882.844 9  20461914.624    20461916.662        1129.592
       870.837
   1143813.495 8   1114731.589 8  23271970.749    23271974.108       -4140.342
     -3220.188
 -75822166.479 9 104728966.617 8  20276422.051    20276424.839       -1202.940
      -948.907
 88  3 23  8 22  5.0800000  0  3G 3G 9G13
 -88687142.571 9  94000080.921 9  20455613.769    20455616.077        1095.389
       865.878
   1267912.077 9   1211431.767 8  23295586.277    23295588.557       -4134.839
     -3213.614
 -75785962.107 9 104757177.804 8  20283312.523    20283315.615       -1211.321
      -940.251
 88  3 23  8 22 35.0800000  0  3G 3G 9G13
 -88720120.245 9  93974384.037 9  20449338.102    20449341.089        1108.499
       857.260
   1392002.576 9   1308125.672 8  23319199.601    23319202.925       -4140.892
     -3225.532
 -75749675.240 9 104785453.271 9  20290217.509    20290219.725       -1207.134
      -955.264
 88  3 23  8 23  5.0800000  0  3G 3G 9G13
 -88752963.980 9  93948791.522 9  20443087.508    20443091.129        1111.490
       853.488
   1516081.784 9   1404810.766 8  23342811.396    23342814.733       -4140.908
     -3229.167
 -75713306.890 9 104813792.240 9  20297137.646    20297139.637       -1216.656
      -938.710
 88  3 23  8 23 35.0800000  0  3G 3G 9G13
 -88785674.023 9  93923303.178 7  20436863.928    20436864.983        1080.589
       857.850
   1640146.622 9   1501484.656 9  23366419.651    23366422.585       -4132.359
     -3237.276
 -75676856.988 9 104842194.745 8  20304073.330    20304076.407       -1217.597
      -940.755
 88  3 23  8 24  5.0800000  0  3G 3G 9G13
 -88818251.184 8  93897918.401 9  20430663.674    20430666.254        1106.960
       855.365
   1764193.906 9   1598144.840 9  23390025.305    23390029.723       -4146.394
     -3229.583
 -75640326.555 9 104870660.021 8  20311025.259    20311028.249       -1214.758
      -953.580
 88  3 23  8 24 35.0800000  0  3G 3G 9G13
 -88850695.668 9  93872636.982 9  20424490.036    20424492.327        1085.150
       854.389
   1888220.506 9   1694788.933 9  23413627.974    23413630.725       -4135.493
     -3217.970
 -75603716.473 9 104899187.369 9  20317991.677    20317994.697       -1217.644
      -936.076
 88  3 23  8 25  5.0800000  0  3G 3G 9G13
 -88883008.316 9  93847458.304 9  20418341.150    20418343.942        1065.478
       839.743
   2012223.344 9   1791414.510 8  23437223.232    23437227.380       -4127.742
     -3204.306
 -75567026.592 9 104927776.870 9  20324973.555    20324976.159       -1221.831
      -950.324
 88  3 23  8 25 35.0800000  0  3G 3G 9G13
 -88915189.689 9  93822381.927 9  20412217.477    20412220.074        1069.393
       835.021
   2136198.953 9   1888018.866 9  23460814.739    23460819.207       -4135.174
     -3217.205
 -75530258.062 8 104956427.676 8  20331969.716    20331973.223       -1238.824
      -956.954
 88  3 23  8 26  5.0800000  0  3G 3G 9G13
 -88947240.041 8  93797407.629 8  20406117.852    20406121.156        1068.683
       829.354
   2260144.300 9   1984599.666 9  23484402.840    23484405.271       -4125.733
     -3203.392
 -75493410.898 9 104985139.751 9  20338983.490    20338985.564       -1222.660
      -958.687
 88  3 23  8 26 35.0800000  0  3G 3G 9G13
 -88979160.062 9  93772534.893 8  20400044.372    20400046.312        1060.382
       810.557
   2384056.543 9   2081154.650 9  23507981.817    23507985.276       -4123.715
     -3217.684
 -75456485.979 9 105013912.417 9  20346010.006    20346010.793       -1224.694
      -947.273
 88  3 23  8 27  5.0800000  0  3G 3G 9G13
 -89010950.255 9  93747763.320 8  20393994.403    20393997.379        1059.545
       820.773
   2507932.688 7   2177681.484 9  23531554.375    23531557.503       -4149.233
     -3207.288
 -75419483.689 9 105042745.368 8  20353050.923    20353052.525       -1228.769
      -958.526
